Wetterdaten aus der Harmsstraße 54 in 24114 Kiel (4. OG, außen), die per BME280 und einem ESP-32 erhoben werden.
Unter https://wetter.janbpunkt.de/weather.xml steht eine entsprechende XML bereit, die das jüngste Messergebnis enthält.
Da der weatherino ab und zu ausfällt/gewartet wird, können Messpunkte fehlen.
Keine Garantie auf Korrektheit der Werte. Keine Haftung für direkte oder indirekte Schäden, die aus der Verwendung der Daten resultieren. Die Daten der Website werden per SSL verschlüsselt übertragen, es werden keine Cookies gesetzt und keine IP-Adressen geloggt. Weiterhin findet keine Verarbeitung von personenbezogenen Daten statt.
Mehr zu dem Projekt findet man hier.
Impressum| Zeitpunkt | Temperatur | Luftfeuchte | Luftdruck |
|---|---|---|---|
| 2026-05-06 11:09:57 | 14.83 ℃ | 82.45 % | 1009.88 hPa |
| Zeitpunkt | Temperatur | Luftfeuchte | Luftdruck |
|---|---|---|---|
| 2026-05-06 11:09:57 | 14.83 ℃ | 82.45 % | 1009.88 hPa |
| 2026-05-06 10:59:56 | 14.78 ℃ | 82.82 % | 1009.82 hPa |
| 2026-05-06 10:49:58 | 15.2 ℃ | 79.27 % | 1009.76 hPa |
| 2026-05-06 10:39:56 | 14.92 ℃ | 76.15 % | 1009.77 hPa |
| 2026-05-06 10:29:57 | 14.48 ℃ | 75.9 % | 1009.8 hPa |
| 2026-05-06 10:19:57 | 13.65 ℃ | 76.98 % | 1009.91 hPa |
| 2026-05-06 10:09:57 | 13.71 ℃ | 77.44 % | 1009.92 hPa |
| 2026-05-06 09:59:59 | 13.72 ℃ | 78.17 % | 1009.75 hPa |
| 2026-05-06 09:49:57 | 13.6 ℃ | 79.11 % | 1009.78 hPa |
| 2026-05-06 09:39:57 | 13.7 ℃ | 80.17 % | 1009.81 hPa |
| 2026-05-06 09:29:57 | 13.56 ℃ | 80.93 % | 1009.82 hPa |
| 2026-05-06 09:19:57 | 13.35 ℃ | 82.74 % | 1009.88 hPa |
| 2026-05-06 09:09:57 | 13.31 ℃ | 85.58 % | 1009.89 hPa |
| 2026-05-06 08:59:57 | 13.29 ℃ | 90.72 % | 1009.93 hPa |
| 2026-05-06 08:49:57 | 13.05 ℃ | 98.07 % | 1009.92 hPa |
| 2026-05-06 08:39:57 | 12.82 ℃ | 100 % | 1009.93 hPa |
| 2026-05-06 08:29:57 | 12.67 ℃ | 100 % | 1009.91 hPa |
| 2026-05-06 08:19:57 | 12.57 ℃ | 100 % | 1009.91 hPa |
| 2026-05-06 08:09:57 | 12.52 ℃ | 100 % | 1009.83 hPa |
| 2026-05-06 07:59:57 | 12.36 ℃ | 100 % | 1009.84 hPa |
| 2026-05-06 07:49:57 | 12.32 ℃ | 100 % | 1009.83 hPa |
| 2026-05-06 07:39:57 | 12.28 ℃ | 100 % | 1009.8 hPa |
| 2026-05-06 07:30:00 | 12.3 ℃ | 100 % | 1009.79 hPa |
| 2026-05-06 07:19:57 | 12.23 ℃ | 100 % | 1009.8 hPa |
| 2026-05-06 07:09:57 | 12.4 ℃ | 100 % | 1009.81 hPa |
| 2026-05-06 06:59:57 | 12.18 ℃ | 100 % | 1009.83 hPa |
| 2026-05-06 06:49:57 | 11.82 ℃ | 100 % | 1009.88 hPa |
| 2026-05-06 06:39:58 | 11.88 ℃ | 100 % | 1009.84 hPa |
| 2026-05-06 06:29:57 | 11.98 ℃ | 100 % | 1009.82 hPa |
| 2026-05-06 06:19:58 | 12.04 ℃ | 100 % | 1009.83 hPa |
| 2026-05-06 06:09:57 | 11.98 ℃ | 100 % | 1009.82 hPa |
| 2026-05-06 05:59:57 | 12.08 ℃ | 100 % | 1009.86 hPa |
| 2026-05-06 05:49:57 | 12.3 ℃ | 100 % | 1009.83 hPa |
| 2026-05-06 05:39:58 | 12.11 ℃ | 100 % | 1009.85 hPa |
| 2026-05-06 05:29:57 | 12.24 ℃ | 100 % | 1009.85 hPa |
| 2026-05-06 05:19:58 | 12.26 ℃ | 100 % | 1009.88 hPa |
| 2026-05-06 05:09:57 | 12.03 ℃ | 100 % | 1009.93 hPa |
| 2026-05-06 04:59:57 | 12.21 ℃ | 100 % | 1009.95 hPa |
| 2026-05-06 04:49:57 | 12.26 ℃ | 100 % | 1009.95 hPa |
| 2026-05-06 04:39:58 | 12.3 ℃ | 100 % | 1009.97 hPa |
| 2026-05-06 04:29:58 | 12.35 ℃ | 100 % | 1010.07 hPa |
| 2026-05-06 04:19:57 | 12.17 ℃ | 100 % | 1010.15 hPa |
| 2026-05-06 04:09:58 | 12.25 ℃ | 100 % | 1010.22 hPa |
| 2026-05-06 03:59:57 | 12.3 ℃ | 100 % | 1010.31 hPa |
| 2026-05-06 03:49:58 | 12.48 ℃ | 100 % | 1010.31 hPa |
| 2026-05-06 03:39:58 | 12.76 ℃ | 100 % | 1010.33 hPa |
| 2026-05-06 03:29:58 | 13.1 ℃ | 100 % | 1010.35 hPa |
| 2026-05-06 03:19:58 | 13.14 ℃ | 100 % | 1010.33 hPa |
| 2026-05-06 03:09:58 | 13.3 ℃ | 100 % | 1010.35 hPa |
| 2026-05-06 02:59:58 | 13.52 ℃ | 100 % | 1010.37 hPa |
| 2026-05-06 02:49:58 | 13.89 ℃ | 100 % | 1010.36 hPa |
| 2026-05-06 02:39:57 | 13.57 ℃ | 100 % | 1010.41 hPa |
| 2026-05-06 02:29:57 | 13.79 ℃ | 100 % | 1010.46 hPa |
| 2026-05-06 02:19:58 | 14.06 ℃ | 100 % | 1010.48 hPa |
| 2026-05-06 02:09:58 | 13.86 ℃ | 100 % | 1010.46 hPa |
| 2026-05-06 01:59:58 | 13.76 ℃ | 100 % | 1010.47 hPa |
| 2026-05-06 01:49:57 | 13.81 ℃ | 100 % | 1010.52 hPa |
| 2026-05-06 01:39:57 | 14.12 ℃ | 100 % | 1010.58 hPa |
| 2026-05-06 01:30:00 | 13.75 ℃ | 100 % | 1010.53 hPa |
| 2026-05-06 01:19:58 | 13.95 ℃ | 100 % | 1010.47 hPa |
| 2026-05-06 01:09:58 | 13.88 ℃ | 100 % | 1010.42 hPa |
| 2026-05-06 00:59:59 | 14.13 ℃ | 100 % | 1010.45 hPa |
| 2026-05-06 00:49:58 | 13.97 ℃ | 100 % | 1010.49 hPa |
| 2026-05-06 00:39:58 | 14.16 ℃ | 100 % | 1010.52 hPa |
| 2026-05-06 00:29:58 | 14.03 ℃ | 100 % | 1010.58 hPa |
| 2026-05-06 00:19:57 | 13.82 ℃ | 100 % | 1010.67 hPa |
| 2026-05-06 00:09:58 | 13.79 ℃ | 100 % | 1010.71 hPa |
| 2026-05-05 23:59:58 | 13.7 ℃ | 100 % | 1010.79 hPa |
| 2026-05-05 23:49:58 | 14.02 ℃ | 100 % | 1010.81 hPa |
| 2026-05-05 23:39:58 | 13.95 ℃ | 100 % | 1010.88 hPa |
| 2026-05-05 23:29:58 | 13.99 ℃ | 100 % | 1010.94 hPa |
| 2026-05-05 23:19:58 | 14 ℃ | 100 % | 1010.99 hPa |
| 2026-05-05 23:09:58 | 13.98 ℃ | 100 % | 1011.04 hPa |
| 2026-05-05 22:59:58 | 13.98 ℃ | 100 % | 1011.09 hPa |
| 2026-05-05 22:49:58 | 13.84 ℃ | 100 % | 1011.14 hPa |
| 2026-05-05 22:39:58 | 13.61 ℃ | 100 % | 1011.15 hPa |
| 2026-05-05 22:30:00 | 13.97 ℃ | 100 % | 1011.13 hPa |
| 2026-05-05 22:19:58 | 13.99 ℃ | 100 % | 1011.09 hPa |
| 2026-05-05 22:09:58 | 13.56 ℃ | 100 % | 1011.14 hPa |
| 2026-05-05 21:59:58 | 13.46 ℃ | 100 % | 1011.13 hPa |
| 2026-05-05 21:49:58 | 13.62 ℃ | 100 % | 1011.15 hPa |
| 2026-05-05 21:39:58 | 13.86 ℃ | 100 % | 1011.13 hPa |
| 2026-05-05 21:29:59 | 14.14 ℃ | 100 % | 1011.05 hPa |
| 2026-05-05 21:19:58 | 14.02 ℃ | 100 % | 1010.99 hPa |
| 2026-05-05 21:09:59 | 14.11 ℃ | 100 % | 1010.92 hPa |
| 2026-05-05 20:59:59 | 14.13 ℃ | 100 % | 1010.89 hPa |
| 2026-05-05 20:49:59 | 14.51 ℃ | 100 % | 1010.84 hPa |
| 2026-05-05 20:39:58 | 14.69 ℃ | 100 % | 1010.8 hPa |
| 2026-05-05 20:29:59 | 14.6 ℃ | 100 % | 1010.84 hPa |
| 2026-05-05 20:19:58 | 14.73 ℃ | 100 % | 1010.87 hPa |
| 2026-05-05 20:09:59 | 14.86 ℃ | 100 % | 1010.89 hPa |
| 2026-05-05 19:59:58 | 14.96 ℃ | 100 % | 1010.85 hPa |
| 2026-05-05 19:49:58 | 14.82 ℃ | 100 % | 1010.89 hPa |
| 2026-05-05 19:39:58 | 14.94 ℃ | 100 % | 1010.85 hPa |
| 2026-05-05 19:29:58 | 15.13 ℃ | 100 % | 1010.84 hPa |
| 2026-05-05 19:19:58 | 15.01 ℃ | 100 % | 1010.85 hPa |
| 2026-05-05 19:09:59 | 14.84 ℃ | 99.99 % | 1010.85 hPa |
| 2026-05-05 18:59:59 | 15.23 ℃ | 99.98 % | 1010.87 hPa |
| 2026-05-05 18:49:58 | 15.37 ℃ | 99.97 % | 1010.92 hPa |
| 2026-05-05 18:39:58 | 15.79 ℃ | 99.93 % | 1010.95 hPa |
| 2026-05-05 18:29:58 | 15.51 ℃ | 99.86 % | 1011.02 hPa |
| 2026-05-05 18:19:58 | 15.68 ℃ | 99.73 % | 1011.04 hPa |
| 2026-05-05 18:09:58 | 15.94 ℃ | 99.46 % | 1011.06 hPa |
| 2026-05-05 17:59:58 | 15.97 ℃ | 98.92 % | 1011.15 hPa |
| 2026-05-05 17:49:59 | 16.22 ℃ | 97.84 % | 1011.17 hPa |
| 2026-05-05 17:39:58 | 16.14 ℃ | 95.68 % | 1011.2 hPa |
| 2026-05-05 17:29:58 | 16.42 ℃ | 92.52 % | 1011.18 hPa |
| 2026-05-05 17:19:59 | 15.9 ℃ | 91.35 % | 1011.25 hPa |
| 2026-05-05 17:09:58 | 15.69 ℃ | 95.12 % | 1011.29 hPa |
| 2026-05-05 16:59:58 | 15.86 ℃ | 95.92 % | 1011.33 hPa |
| 2026-05-05 16:49:58 | 15.6 ℃ | 99.82 % | 1011.53 hPa |
| 2026-05-05 16:39:58 | 15.98 ℃ | 99.64 % | 1011.5 hPa |
| 2026-05-05 16:29:58 | 16.12 ℃ | 99.28 % | 1011.49 hPa |
| 2026-05-05 16:19:58 | 15.97 ℃ | 98.57 % | 1011.53 hPa |
| 2026-05-05 16:09:58 | 15.81 ℃ | 100 % | 1011.6 hPa |
| 2026-05-05 15:59:58 | 15.43 ℃ | 100 % | 1011.61 hPa |
| 2026-05-05 15:49:58 | 15.42 ℃ | 100 % | 1011.65 hPa |
| 2026-05-05 15:39:59 | 15.36 ℃ | 100 % | 1011.62 hPa |
| 2026-05-05 15:29:58 | 15.37 ℃ | 100 % | 1011.71 hPa |
| 2026-05-05 15:20:00 | 15.25 ℃ | 100 % | 1011.73 hPa |
| 2026-05-05 15:09:59 | 15.45 ℃ | 100 % | 1011.71 hPa |
| 2026-05-05 14:59:59 | 15.14 ℃ | 100 % | 1011.78 hPa |
| 2026-05-05 14:49:58 | 15.31 ℃ | 99.99 % | 1011.9 hPa |
| 2026-05-05 14:39:58 | 15.12 ℃ | 99.98 % | 1011.96 hPa |
| 2026-05-05 14:29:59 | 14.98 ℃ | 99.96 % | 1011.95 hPa |
| 2026-05-05 14:19:59 | 15.02 ℃ | 99.92 % | 1011.93 hPa |
| 2026-05-05 14:09:58 | 15.29 ℃ | 99.85 % | 1011.93 hPa |
| 2026-05-05 13:59:59 | 15.12 ℃ | 99.69 % | 1011.98 hPa |
| 2026-05-05 13:50:00 | 15.23 ℃ | 99.38 % | 1011.97 hPa |
| 2026-05-05 13:39:59 | 15.07 ℃ | 98.76 % | 1011.99 hPa |
| 2026-05-05 13:30:00 | 14.84 ℃ | 100 % | 1012.05 hPa |
| 2026-05-05 13:19:58 | 14.27 ℃ | 100 % | 1012.15 hPa |
| 2026-05-05 13:09:59 | 14.12 ℃ | 100 % | 1012.25 hPa |
| 2026-05-05 12:59:59 | 14.77 ℃ | 100 % | 1012.17 hPa |
| 2026-05-05 12:49:59 | 14.88 ℃ | 100 % | 1012.26 hPa |
| 2026-05-05 12:39:58 | 14.63 ℃ | 100 % | 1012.29 hPa |
| 2026-05-05 12:29:59 | 14.35 ℃ | 100 % | 1012.33 hPa |
| 2026-05-05 12:19:59 | 13.89 ℃ | 100 % | 1012.42 hPa |
| 2026-05-05 12:10:00 | 13.85 ℃ | 100 % | 1012.46 hPa |
| 2026-05-05 11:59:59 | 14.05 ℃ | 100 % | 1012.45 hPa |
| 2026-05-05 11:49:59 | 13.8 ℃ | 100 % | 1012.49 hPa |
| 2026-05-05 11:39:59 | 13.83 ℃ | 100 % | 1012.49 hPa |
| 2026-05-05 11:29:59 | 13.68 ℃ | 100 % | 1012.54 hPa |
| 2026-05-05 11:19:59 | 13.98 ℃ | 100 % | 1012.47 hPa |
| 2026-05-05 11:09:59 | 13.96 ℃ | 100 % | 1012.44 hPa |
| 2026-05-05 10:59:59 | 13.97 ℃ | 100 % | 1012.45 hPa |
| 2026-05-05 10:50:00 | 13.53 ℃ | 100 % | 1012.47 hPa |
| 2026-05-05 10:40:00 | 13.33 ℃ | 100 % | 1012.41 hPa |
| 2026-05-05 10:29:59 | 13.04 ℃ | 100 % | 1012.43 hPa |
| 2026-05-05 10:19:59 | 13.39 ℃ | 100 % | 1012.39 hPa |
| 2026-05-05 10:09:59 | 13.19 ℃ | 100 % | 1012.38 hPa |
| 2026-05-05 10:00:00 | 13.02 ℃ | 100 % | 1012.37 hPa |
| 2026-05-05 09:49:59 | 12.74 ℃ | 100 % | 1012.41 hPa |
| 2026-05-05 09:39:59 | 12.97 ℃ | 100 % | 1012.38 hPa |
| 2026-05-05 09:29:59 | 12.93 ℃ | 100 % | 1012.44 hPa |
| 2026-05-05 09:19:59 | 12.55 ℃ | 100 % | 1012.49 hPa |
| 2026-05-05 09:09:59 | 12.64 ℃ | 100 % | 1012.51 hPa |
| 2026-05-05 08:59:59 | 12.67 ℃ | 100 % | 1012.52 hPa |
| 2026-05-05 08:49:59 | 12.63 ℃ | 100 % | 1012.54 hPa |
| 2026-05-05 08:39:59 | 12.53 ℃ | 100 % | 1012.53 hPa |
| 2026-05-05 08:29:59 | 12.41 ℃ | 100 % | 1012.54 hPa |
| 2026-05-05 08:19:59 | 12.47 ℃ | 100 % | 1012.48 hPa |
| 2026-05-05 08:09:59 | 12.73 ℃ | 100 % | 1012.43 hPa |
| 2026-05-05 07:59:59 | 12.66 ℃ | 100 % | 1012.43 hPa |
| 2026-05-05 07:49:59 | 12.65 ℃ | 100 % | 1012.47 hPa |
| 2026-05-05 07:40:00 | 12.44 ℃ | 100 % | 1012.5 hPa |
| 2026-05-05 07:29:59 | 12.75 ℃ | 100 % | 1012.48 hPa |
| 2026-05-05 07:19:59 | 12.73 ℃ | 100 % | 1012.43 hPa |
| 2026-05-05 07:09:59 | 12.59 ℃ | 100 % | 1012.47 hPa |
| 2026-05-05 07:00:00 | 12.48 ℃ | 100 % | 1012.48 hPa |
| 2026-05-05 06:49:59 | 12.64 ℃ | 100 % | 1012.43 hPa |
| 2026-05-05 06:39:59 | 12.32 ℃ | 100 % | 1012.44 hPa |
| 2026-05-05 06:29:59 | 12.06 ℃ | 100 % | 1012.4 hPa |
| 2026-05-05 06:19:59 | 11.97 ℃ | 100 % | 1012.39 hPa |
| 2026-05-05 06:09:59 | 11.9 ℃ | 100 % | 1012.37 hPa |
| 2026-05-05 05:59:59 | 12.02 ℃ | 100 % | 1012.39 hPa |
| 2026-05-05 05:49:59 | 11.99 ℃ | 100 % | 1012.4 hPa |
| 2026-05-05 05:39:59 | 12.21 ℃ | 100 % | 1012.41 hPa |
| 2026-05-05 05:29:59 | 11.73 ℃ | 100 % | 1012.44 hPa |
| 2026-05-05 05:20:00 | 11.51 ℃ | 100 % | 1012.46 hPa |
| 2026-05-05 05:09:59 | 11.27 ℃ | 100 % | 1012.49 hPa |
| 2026-05-05 04:59:59 | 11.25 ℃ | 100 % | 1012.51 hPa |
| 2026-05-05 04:49:59 | 10.95 ℃ | 100 % | 1012.59 hPa |
| 2026-05-05 04:39:59 | 11.14 ℃ | 100 % | 1012.62 hPa |
| 2026-05-05 04:29:59 | 11.04 ℃ | 100 % | 1012.66 hPa |
| 2026-05-05 04:19:59 | 11.35 ℃ | 100 % | 1012.64 hPa |
| 2026-05-05 04:09:59 | 11.64 ℃ | 100 % | 1012.64 hPa |
| 2026-05-05 03:59:59 | 11.7 ℃ | 100 % | 1012.67 hPa |
| 2026-05-05 03:49:59 | 11.71 ℃ | 100 % | 1012.73 hPa |
| 2026-05-05 03:39:59 | 12.03 ℃ | 100 % | 1012.77 hPa |
| 2026-05-05 03:30:00 | 12.39 ℃ | 100 % | 1012.85 hPa |
| 2026-05-05 03:20:00 | 12.55 ℃ | 100 % | 1012.9 hPa |
| 2026-05-05 03:09:59 | 12.68 ℃ | 100 % | 1012.89 hPa |
| 2026-05-05 02:59:59 | 13.02 ℃ | 100 % | 1012.87 hPa |
| 2026-05-05 02:49:59 | 13.56 ℃ | 100 % | 1012.9 hPa |
| 2026-05-05 02:40:00 | 14.05 ℃ | 100 % | 1012.92 hPa |
| 2026-05-05 02:29:59 | 14.38 ℃ | 100 % | 1012.99 hPa |
| 2026-05-05 02:19:59 | 14.09 ℃ | 100 % | 1013.01 hPa |
| 2026-05-05 02:09:59 | 14.1 ℃ | 100 % | 1013.09 hPa |
| 2026-05-05 01:59:59 | 13.86 ℃ | 100 % | 1013.11 hPa |
| 2026-05-05 01:49:59 | 13.47 ℃ | 100 % | 1013.12 hPa |
| 2026-05-05 01:39:59 | 13.8 ℃ | 100 % | 1013.14 hPa |
| 2026-05-05 01:30:00 | 13.83 ℃ | 100 % | 1013.13 hPa |
| 2026-05-05 01:20:00 | 13.9 ℃ | 100 % | 1013.17 hPa |
| 2026-05-05 01:10:00 | 13.89 ℃ | 100 % | 1013.24 hPa |
| 2026-05-05 01:00:00 | 14.07 ℃ | 100 % | 1013.33 hPa |
| 2026-05-05 00:50:00 | 13.81 ℃ | 100 % | 1013.39 hPa |
| 2026-05-05 00:40:00 | 13.66 ℃ | 100 % | 1013.43 hPa |
| 2026-05-05 00:30:00 | 13.62 ℃ | 100 % | 1013.48 hPa |
| 2026-05-05 00:20:00 | 13.3 ℃ | 100 % | 1013.52 hPa |
| 2026-05-05 00:10:00 | 13.89 ℃ | 100 % | 1013.59 hPa |
| 2026-05-05 00:00:00 | 13.93 ℃ | 100 % | 1013.63 hPa |
| 2026-05-04 23:50:00 | 14.04 ℃ | 100 % | 1013.69 hPa |
| 2026-05-04 23:40:00 | 14.19 ℃ | 100 % | 1013.69 hPa |
| 2026-05-04 23:30:00 | 14.7 ℃ | 100 % | 1013.65 hPa |
| 2026-05-04 23:20:00 | 15.28 ℃ | 100 % | 1013.59 hPa |
| 2026-05-04 23:10:00 | 15.46 ℃ | 100 % | 1013.54 hPa |
| 2026-05-04 23:00:00 | 16.04 ℃ | 100 % | 1013.49 hPa |
| 2026-05-04 22:50:01 | 16.26 ℃ | 100 % | 1013.45 hPa |
| 2026-05-04 22:40:00 | 16.47 ℃ | 100 % | 1013.39 hPa |
| 2026-05-04 22:30:00 | 16.44 ℃ | 100 % | 1013.33 hPa |
| 2026-05-04 22:20:00 | 16.76 ℃ | 100 % | 1013.27 hPa |
| 2026-05-04 22:10:00 | 17.17 ℃ | 100 % | 1013.22 hPa |
| 2026-05-04 22:00:00 | 17.71 ℃ | 100 % | 1013.21 hPa |
| 2026-05-04 21:50:00 | 17.9 ℃ | 100 % | 1013.15 hPa |
| 2026-05-04 21:40:00 | 18.08 ℃ | 100 % | 1013.12 hPa |
| 2026-05-04 21:30:00 | 18.43 ℃ | 100 % | 1013.13 hPa |
| 2026-05-04 21:20:00 | 18.48 ℃ | 100 % | 1013.1 hPa |
| 2026-05-04 21:10:00 | 18.35 ℃ | 100 % | 1013.02 hPa |
| 2026-05-04 21:00:00 | 18.65 ℃ | 100 % | 1012.97 hPa |
| 2026-05-04 20:50:00 | 18.78 ℃ | 100 % | 1012.9 hPa |
| 2026-05-04 20:40:00 | 18.68 ℃ | 100 % | 1012.87 hPa |
| 2026-05-04 20:30:00 | 18.67 ℃ | 100 % | 1012.83 hPa |
| 2026-05-04 20:20:01 | 18.9 ℃ | 100 % | 1012.83 hPa |
| 2026-05-04 20:10:00 | 18.98 ℃ | 100 % | 1012.81 hPa |
| 2026-05-04 20:00:00 | 19.48 ℃ | 100 % | 1012.8 hPa |
| 2026-05-04 19:50:00 | 19.5 ℃ | 100 % | 1012.76 hPa |
| 2026-05-04 19:40:00 | 19.45 ℃ | 100 % | 1012.79 hPa |
| 2026-05-04 19:30:00 | 19.51 ℃ | 100 % | 1012.79 hPa |
| 2026-05-04 19:20:00 | 19.61 ℃ | 100 % | 1012.77 hPa |
| 2026-05-04 19:10:00 | 19.73 ℃ | 100 % | 1012.72 hPa |
| 2026-05-04 19:00:00 | 19.77 ℃ | 100 % | 1012.69 hPa |
| 2026-05-04 18:50:00 | 19.84 ℃ | 100 % | 1012.69 hPa |
| 2026-05-04 18:40:00 | 19.66 ℃ | 100 % | 1012.72 hPa |
| 2026-05-04 18:30:00 | 19.55 ℃ | 100 % | 1012.75 hPa |
| 2026-05-04 18:20:00 | 19.66 ℃ | 100 % | 1012.81 hPa |
| 2026-05-04 18:10:00 | 19.59 ℃ | 100 % | 1012.86 hPa |
| 2026-05-04 18:00:00 | 19.68 ℃ | 100 % | 1012.91 hPa |
| 2026-05-04 17:50:00 | 19.98 ℃ | 100 % | 1012.9 hPa |
| 2026-05-04 17:40:00 | 20.17 ℃ | 100 % | 1012.9 hPa |
| 2026-05-04 17:30:00 | 20.65 ℃ | 100 % | 1012.9 hPa |
| 2026-05-04 17:20:00 | 20.39 ℃ | 100 % | 1012.93 hPa |
| 2026-05-04 17:10:00 | 20.58 ℃ | 100 % | 1012.99 hPa |
| 2026-05-04 17:00:01 | 20.53 ℃ | 100 % | 1013.06 hPa |
| 2026-05-04 16:50:00 | 20.58 ℃ | 100 % | 1013.12 hPa |
| 2026-05-04 16:40:01 | 20.6 ℃ | 100 % | 1013.13 hPa |
| 2026-05-04 16:30:01 | 20.34 ℃ | 100 % | 1013.16 hPa |
| 2026-05-04 16:20:01 | 20.35 ℃ | 100 % | 1013.2 hPa |
| 2026-05-04 16:10:01 | 20.43 ℃ | 100 % | 1013.25 hPa |
| 2026-05-04 16:00:00 | 19.99 ℃ | 100 % | 1013.32 hPa |
| 2026-05-04 15:50:01 | 20.07 ℃ | 100 % | 1013.29 hPa |
| 2026-05-04 15:40:01 | 20.56 ℃ | 100 % | 1013.34 hPa |
| 2026-05-04 15:30:00 | 20.65 ℃ | 100 % | 1013.42 hPa |
| 2026-05-04 15:20:01 | 20.54 ℃ | 100 % | 1013.45 hPa |
| 2026-05-04 15:10:01 | 20.38 ℃ | 100 % | 1013.42 hPa |
| 2026-05-04 15:00:01 | 20.14 ℃ | 100 % | 1013.41 hPa |
| 2026-05-04 14:50:00 | 20.32 ℃ | 100 % | 1013.33 hPa |
| 2026-05-04 14:40:00 | 19.73 ℃ | 100 % | 1013.27 hPa |
| 2026-05-04 14:30:01 | 20.25 ℃ | 100 % | 1013.18 hPa |
| 2026-05-04 14:20:02 | 19.93 ℃ | 100 % | 1013.24 hPa |
| 2026-05-04 14:10:01 | 19.98 ℃ | 100 % | 1013.24 hPa |
| 2026-05-04 14:00:01 | 19.81 ℃ | 100 % | 1013.15 hPa |
| 2026-05-04 13:50:02 | 19.74 ℃ | 100 % | 1013.04 hPa |
| 2026-05-04 13:40:01 | 19.99 ℃ | 100 % | 1012.95 hPa |
| 2026-05-04 13:30:01 | 20.02 ℃ | 100 % | 1012.92 hPa |
| 2026-05-04 13:20:01 | 19.9 ℃ | 100 % | 1012.97 hPa |
| 2026-05-04 13:10:01 | 19.81 ℃ | 100 % | 1013.01 hPa |
| 2026-05-04 13:00:01 | 19.53 ℃ | 100 % | 1013 hPa |
| 2026-05-04 12:50:01 | 19.91 ℃ | 100 % | 1012.97 hPa |
| 2026-05-04 12:40:01 | 19.78 ℃ | 100 % | 1012.99 hPa |
| 2026-05-04 12:30:01 | 19.52 ℃ | 100 % | 1012.93 hPa |
| 2026-05-04 12:20:01 | 19.39 ℃ | 100 % | 1012.99 hPa |
| 2026-05-04 12:10:01 | 19.34 ℃ | 100 % | 1012.97 hPa |
| 2026-05-04 12:00:01 | 19.03 ℃ | 100 % | 1012.93 hPa |
| 2026-05-04 11:50:01 | 19.1 ℃ | 100 % | 1012.86 hPa |
| 2026-05-04 11:40:01 | 18.55 ℃ | 100 % | 1012.89 hPa |
| 2026-05-04 11:30:01 | 18.59 ℃ | 100 % | 1012.86 hPa |
| 2026-05-04 11:20:02 | 18.49 ℃ | 100 % | 1012.84 hPa |
| 2026-05-04 11:10:02 | 18.68 ℃ | 100 % | 1012.86 hPa |
| 2026-05-04 11:00:01 | 18.36 ℃ | 100 % | 1012.8 hPa |
| 2026-05-04 10:50:01 | 18.18 ℃ | 100 % | 1012.75 hPa |
| 2026-05-04 10:40:01 | 18.17 ℃ | 100 % | 1012.64 hPa |
| 2026-05-04 10:30:01 | 18.64 ℃ | 100 % | 1012.52 hPa |
| 2026-05-04 10:20:01 | 18.22 ℃ | 100 % | 1012.46 hPa |
| 2026-05-04 10:10:01 | 18.37 ℃ | 100 % | 1012.4 hPa |
| 2026-05-04 10:00:01 | 18 ℃ | 100 % | 1012.31 hPa |
| 2026-05-04 09:50:01 | 18.25 ℃ | 100 % | 1012.21 hPa |
| 2026-05-04 09:40:01 | 18.07 ℃ | 100 % | 1012.15 hPa |
| 2026-05-04 09:30:01 | 17.85 ℃ | 100 % | 1012.05 hPa |
| 2026-05-04 09:20:01 | 17.81 ℃ | 100 % | 1011.94 hPa |
| 2026-05-04 09:10:01 | 17.42 ℃ | 100 % | 1011.88 hPa |
| 2026-05-04 09:00:01 | 16.99 ℃ | 100 % | 1011.71 hPa |
| 2026-05-04 08:50:01 | 16.17 ℃ | 100 % | 1011.64 hPa |
| 2026-05-04 08:40:01 | 16.44 ℃ | 100 % | 1011.52 hPa |
| 2026-05-04 08:30:01 | 16.15 ℃ | 100 % | 1011.45 hPa |
| 2026-05-04 08:20:01 | 16.26 ℃ | 100 % | 1011.26 hPa |
| 2026-05-04 08:10:01 | 15.93 ℃ | 100 % | 1011.21 hPa |
| 2026-05-04 08:00:01 | 15.6 ℃ | 100 % | 1011.11 hPa |
| 2026-05-04 07:50:02 | 15.54 ℃ | 100 % | 1011 hPa |
| 2026-05-04 07:40:01 | 15.46 ℃ | 100 % | 1010.85 hPa |
| 2026-05-04 07:30:01 | 15.42 ℃ | 100 % | 1010.73 hPa |
| 2026-05-04 07:20:01 | 15.43 ℃ | 100 % | 1010.61 hPa |
| 2026-05-04 07:10:01 | 15.55 ℃ | 100 % | 1010.49 hPa |
| 2026-05-04 07:00:01 | 15.44 ℃ | 100 % | 1010.38 hPa |
| 2026-05-04 06:50:01 | 15.44 ℃ | 100 % | 1010.22 hPa |
| 2026-05-04 06:40:01 | 15.36 ℃ | 100 % | 1010.1 hPa |
| 2026-05-04 06:30:01 | 15.35 ℃ | 100 % | 1010.03 hPa |
| 2026-05-04 06:20:01 | 15.44 ℃ | 100 % | 1009.99 hPa |
| 2026-05-04 06:10:01 | 15.3 ℃ | 100 % | 1009.9 hPa |
| 2026-05-04 06:00:01 | 15.31 ℃ | 100 % | 1009.79 hPa |
| 2026-05-04 05:50:01 | 15.12 ℃ | 100 % | 1009.7 hPa |
| 2026-05-04 05:40:02 | 15.35 ℃ | 100 % | 1009.66 hPa |
| 2026-05-04 05:30:01 | 15.5 ℃ | 100 % | 1009.62 hPa |
| 2026-05-04 05:20:01 | 15.45 ℃ | 100 % | 1009.57 hPa |
| 2026-05-04 05:10:01 | 15.87 ℃ | 100 % | 1009.46 hPa |
| 2026-05-04 05:00:02 | 16.16 ℃ | 100 % | 1009.3 hPa |
| 2026-05-04 04:50:01 | 16.56 ℃ | 100 % | 1009.17 hPa |
| 2026-05-04 04:40:02 | 16.78 ℃ | 100 % | 1009.14 hPa |
| 2026-05-04 04:30:02 | 16.89 ℃ | 100 % | 1009.1 hPa |
| 2026-05-04 04:20:01 | 16.78 ℃ | 100 % | 1009.09 hPa |
| 2026-05-04 04:10:02 | 16.94 ℃ | 100 % | 1009.08 hPa |
| 2026-05-04 04:00:01 | 17.28 ℃ | 100 % | 1009.13 hPa |
| 2026-05-04 03:50:01 | 17.47 ℃ | 100 % | 1009.24 hPa |
| 2026-05-04 03:40:01 | 17.41 ℃ | 100 % | 1009.52 hPa |
| 2026-05-04 03:30:01 | 16.72 ℃ | 100 % | 1010.15 hPa |
| 2026-05-04 03:20:01 | 15.29 ℃ | 100 % | 1011.34 hPa |
| 2026-05-04 03:10:01 | 12.73 ℃ | 100 % | 1013.78 hPa |
| 2026-05-04 03:00:02 | 7.85 ℃ | 100 % | 1018.56 hPa |
| 2026-05-04 02:50:01 | -2.26 ℃ | 100 % | 1028.15 hPa |
| 2026-05-04 02:40:02 | -22.33 ℃ | 100 % | 1047.35 hPa |
| 2026-05-04 02:30:02 | -63.25 ℃ | 100 % | 1085.81 hPa |
| 2026-05-04 02:20:02 | 18.77 ℃ | 100 % | 1008.87 hPa |
| 2026-05-04 02:10:02 | 18.64 ℃ | 100 % | 1008.88 hPa |
| 2026-05-04 02:00:02 | 19.06 ℃ | 100 % | 1008.89 hPa |
| 2026-05-04 01:50:02 | 19.37 ℃ | 100 % | 1008.88 hPa |
| 2026-05-04 01:40:02 | 19.35 ℃ | 100 % | 1008.9 hPa |
| 2026-05-04 01:30:02 | 19.39 ℃ | 100 % | 1008.93 hPa |
| 2026-05-04 01:20:02 | 19.65 ℃ | 100 % | 1008.94 hPa |
| 2026-05-04 01:10:02 | 19.86 ℃ | 100 % | 1008.96 hPa |
| 2026-05-04 01:00:02 | 19.99 ℃ | 100 % | 1009.06 hPa |
| 2026-05-04 00:50:02 | 19.89 ℃ | 100 % | 1009.21 hPa |
| 2026-05-04 00:40:02 | 19.55 ℃ | 100 % | 1009.52 hPa |
| 2026-05-04 00:30:02 | 18.71 ℃ | 100 % | 1010.11 hPa |
| 2026-05-04 00:20:02 | 17.34 ℃ | 100 % | 1011.3 hPa |
| 2026-05-04 00:10:02 | 14.62 ℃ | 100 % | 1013.7 hPa |
| 2026-05-04 00:00:02 | 9.7 ℃ | 100 % | 1018.51 hPa |
| 2026-05-03 23:50:02 | -0.44 ℃ | 100 % | 1028.07 hPa |
| 2026-05-03 23:40:02 | -21.26 ℃ | 100 % | 1047.35 hPa |
| 2026-05-03 23:30:02 | -62.49 ℃ | 100 % | 1085.82 hPa |
| 2026-05-03 23:20:02 | 20.29 ℃ | 100 % | 1008.88 hPa |
| 2026-05-03 23:10:02 | 20.62 ℃ | 100 % | 1008.83 hPa |
| 2026-05-03 23:00:02 | 20.7 ℃ | 100 % | 1008.8 hPa |
| 2026-05-03 22:50:02 | 20.69 ℃ | 100 % | 1008.77 hPa |
| 2026-05-03 22:40:02 | 20.42 ℃ | 100 % | 1008.73 hPa |
| 2026-05-03 22:30:02 | 20.44 ℃ | 100 % | 1008.66 hPa |
| 2026-05-03 22:20:02 | 20.85 ℃ | 100 % | 1008.65 hPa |
| 2026-05-03 22:10:02 | 20.67 ℃ | 100 % | 1008.72 hPa |
| 2026-05-03 22:00:02 | 20.82 ℃ | 100 % | 1008.72 hPa |
| 2026-05-03 21:50:02 | 20.88 ℃ | 100 % | 1008.67 hPa |
| 2026-05-03 21:40:02 | 20.32 ℃ | 100 % | 1008.59 hPa |
| 2026-05-03 21:30:03 | 19.7 ℃ | 100 % | 1008.51 hPa |
| 2026-05-03 21:20:02 | 19.22 ℃ | 100 % | 1008.4 hPa |
| 2026-05-03 21:10:02 | 18.93 ℃ | 100 % | 1008.41 hPa |
| 2026-05-03 21:00:02 | 19.18 ℃ | 100 % | 1008.35 hPa |
| 2026-05-03 20:50:02 | 19.23 ℃ | 100 % | 1008.29 hPa |
| 2026-05-03 20:40:02 | 19.4 ℃ | 100 % | 1008.21 hPa |
| 2026-05-03 20:30:02 | 19.9 ℃ | 100 % | 1007.96 hPa |
| 2026-05-03 20:20:02 | 20.35 ℃ | 100 % | 1007.68 hPa |
| 2026-05-03 20:10:02 | 20.19 ℃ | 100 % | 1007.46 hPa |
| 2026-05-03 20:00:02 | 20.18 ℃ | 100 % | 1007.18 hPa |
| 2026-05-03 19:50:02 | 20.08 ℃ | 100 % | 1007.17 hPa |
| 2026-05-03 19:40:03 | 19.92 ℃ | 100 % | 1007.22 hPa |
| 2026-05-03 19:30:02 | 19.75 ℃ | 100 % | 1007.19 hPa |
| 2026-05-03 19:20:02 | 19.51 ℃ | 100 % | 1007.25 hPa |
| 2026-05-03 19:10:02 | 19.51 ℃ | 100 % | 1007.25 hPa |
| 2026-05-03 19:00:03 | 19.97 ℃ | 100 % | 1007.31 hPa |
| 2026-05-03 18:50:03 | 19.57 ℃ | 100 % | 1007.09 hPa |
| 2026-05-03 18:40:02 | 19.48 ℃ | 100 % | 1007.32 hPa |
| 2026-05-03 18:30:02 | 19.84 ℃ | 100 % | 1007.56 hPa |
| 2026-05-03 18:20:02 | 19.75 ℃ | 100 % | 1007.71 hPa |
| 2026-05-03 18:10:03 | 19.69 ℃ | 100 % | 1007.89 hPa |
| 2026-05-03 18:00:02 | 20 ℃ | 100 % | 1008.04 hPa |
| 2026-05-03 17:50:02 | 20.36 ℃ | 100 % | 1008.11 hPa |
| 2026-05-03 17:40:02 | 19.9 ℃ | 100 % | 1008.29 hPa |
| 2026-05-03 17:30:03 | 19.26 ℃ | 100 % | 1008.48 hPa |
| 2026-05-03 17:20:02 | 19.2 ℃ | 100 % | 1008.61 hPa |
| 2026-05-03 17:10:03 | 19.42 ℃ | 100 % | 1008.67 hPa |
| 2026-05-03 17:00:02 | 19.65 ℃ | 100 % | 1008.8 hPa |
| 2026-05-03 16:50:03 | 19.57 ℃ | 100 % | 1008.97 hPa |
| 2026-05-03 16:40:03 | 20.17 ℃ | 100 % | 1009.01 hPa |
| 2026-05-03 16:30:03 | 20.17 ℃ | 100 % | 1009.13 hPa |
| 2026-05-03 16:20:03 | 20.35 ℃ | 100 % | 1009.29 hPa |
| 2026-05-03 16:10:03 | 20.57 ℃ | 100 % | 1009.47 hPa |
| 2026-05-03 16:00:04 | 20.95 ℃ | 100 % | 1009.66 hPa |
| 2026-05-03 15:50:02 | 21.31 ℃ | 100 % | 1009.81 hPa |
| 2026-05-03 15:40:03 | 21.35 ℃ | 100 % | 1009.92 hPa |
| 2026-05-03 15:30:03 | 21.56 ℃ | 100 % | 1010 hPa |
| 2026-05-03 15:20:03 | 21.29 ℃ | 100 % | 1010.12 hPa |
| 2026-05-03 15:10:03 | 21.55 ℃ | 100 % | 1010.19 hPa |
| 2026-05-03 15:00:04 | 21.4 ℃ | 100 % | 1010.26 hPa |
| 2026-05-03 14:50:03 | 21.44 ℃ | 100 % | 1010.36 hPa |
| 2026-05-03 14:40:03 | 21.26 ℃ | 100 % | 1010.47 hPa |
| 2026-05-03 14:30:03 | 20.9 ℃ | 100 % | 1010.56 hPa |
| 2026-05-03 14:20:03 | 21.15 ℃ | 100 % | 1010.62 hPa |
| 2026-05-03 14:10:04 | 20.77 ℃ | 100 % | 1010.71 hPa |
| 2026-05-03 14:00:03 | 20.26 ℃ | 100 % | 1010.85 hPa |
| 2026-05-03 13:50:03 | 20.03 ℃ | 100 % | 1010.9 hPa |
| 2026-05-03 13:40:06 | 20.18 ℃ | 100 % | 1010.96 hPa |
| 2026-05-03 13:30:03 | 19.61 ℃ | 100 % | 1011.1 hPa |
| 2026-05-03 13:20:03 | 19.69 ℃ | 100 % | 1011.13 hPa |
| 2026-05-03 13:10:03 | 19.59 ℃ | 100 % | 1011.22 hPa |
| 2026-05-03 13:00:05 | 19.62 ℃ | 100 % | 1011.25 hPa |
| 2026-05-03 12:50:03 | 20.01 ℃ | 100 % | 1011.3 hPa |
| 2026-05-03 12:40:03 | 19.43 ℃ | 100 % | 1011.38 hPa |
| 2026-05-03 12:30:03 | 19.55 ℃ | 100 % | 1011.46 hPa |
| 2026-05-03 12:20:03 | 19.99 ℃ | 100 % | 1011.51 hPa |
| 2026-05-03 12:10:03 | 19.45 ℃ | 100 % | 1011.62 hPa |
| 2026-05-03 12:00:03 | 19.85 ℃ | 100 % | 1011.69 hPa |
| 2026-05-03 11:50:03 | 19.48 ℃ | 100 % | 1011.73 hPa |
| 2026-05-03 11:40:04 | 19.12 ℃ | 100 % | 1011.81 hPa |
| 2026-05-03 11:30:03 | 19.02 ℃ | 100 % | 1011.85 hPa |
| 2026-05-03 11:20:03 | 19.29 ℃ | 100 % | 1011.86 hPa |
| 2026-05-03 11:10:03 | 19.81 ℃ | 100 % | 1011.89 hPa |
| 2026-05-03 11:00:03 | 20.6 ℃ | 100 % | 1011.87 hPa |
| 2026-05-03 10:50:04 | 21.44 ℃ | 100 % | 1011.89 hPa |
| 2026-05-03 10:40:03 | 22.18 ℃ | 100 % | 1011.88 hPa |
| 2026-05-03 10:30:03 | 22.31 ℃ | 100 % | 1011.9 hPa |
| 2026-05-03 10:20:03 | 22.12 ℃ | 100 % | 1011.88 hPa |
| 2026-05-03 10:10:03 | 21.18 ℃ | 100 % | 1011.85 hPa |
| 2026-05-03 10:00:03 | 20.76 ℃ | 100 % | 1011.8 hPa |
| 2026-05-03 09:50:03 | 20.4 ℃ | 100 % | 1011.77 hPa |
| 2026-05-03 09:40:03 | 21.28 ℃ | 100 % | 1011.81 hPa |
| 2026-05-03 09:30:03 | 21.75 ℃ | 100 % | 1011.87 hPa |
| 2026-05-03 09:20:03 | 21.93 ℃ | 100 % | 1011.9 hPa |
| 2026-05-03 09:10:03 | 21.75 ℃ | 100 % | 1011.93 hPa |
| 2026-05-03 09:00:04 | 21.16 ℃ | 100 % | 1011.94 hPa |
| 2026-05-03 08:50:03 | 20.92 ℃ | 100 % | 1011.95 hPa |
| 2026-05-03 08:40:04 | 20.26 ℃ | 100 % | 1012.01 hPa |
| 2026-05-03 08:30:03 | 21.41 ℃ | 100 % | 1012.05 hPa |
| 2026-05-03 08:20:03 | 20.95 ℃ | 100 % | 1012.1 hPa |
| 2026-05-03 08:10:03 | 20.64 ℃ | 100 % | 1012.09 hPa |
| 2026-05-03 08:00:03 | 20.51 ℃ | 100 % | 1012.16 hPa |
| 2026-05-03 07:50:03 | 20.5 ℃ | 100 % | 1012.19 hPa |
| 2026-05-03 07:40:04 | 20.57 ℃ | 100 % | 1012.09 hPa |
| 2026-05-03 07:30:03 | 20.57 ℃ | 100 % | 1011.97 hPa |
| 2026-05-03 07:20:03 | 21 ℃ | 100 % | 1011.87 hPa |
| 2026-05-03 07:10:03 | 21 ℃ | 100 % | 1011.75 hPa |
| 2026-05-03 07:00:03 | 20.96 ℃ | 100 % | 1011.8 hPa |
| 2026-05-03 06:50:04 | 21 ℃ | 100 % | 1011.84 hPa |
| 2026-05-03 06:40:05 | 20.87 ℃ | 100 % | 1011.88 hPa |
| 2026-05-03 06:30:04 | 20.68 ℃ | 100 % | 1011.85 hPa |
| 2026-05-03 06:20:04 | 20.33 ℃ | 100 % | 1011.87 hPa |
| 2026-05-03 06:10:04 | 19.95 ℃ | 100 % | 1011.86 hPa |
| 2026-05-03 06:00:03 | 19.82 ℃ | 100 % | 1011.81 hPa |
| 2026-05-03 05:50:03 | 19.51 ℃ | 100 % | 1011.84 hPa |
| 2026-05-03 05:40:04 | 19.78 ℃ | 100 % | 1011.9 hPa |
| 2026-05-03 05:30:04 | 19.79 ℃ | 100 % | 1011.95 hPa |
| 2026-05-03 05:20:06 | 19.84 ℃ | 100 % | 1011.96 hPa |
| 2026-05-03 05:10:04 | 19.7 ℃ | 100 % | 1012.04 hPa |
| 2026-05-03 05:00:04 | 19.69 ℃ | 100 % | 1012.03 hPa |
| 2026-05-03 04:50:04 | 19.48 ℃ | 100 % | 1012 hPa |
| 2026-05-03 04:40:03 | 19.04 ℃ | 100 % | 1012.1 hPa |
| 2026-05-03 04:30:04 | 19.73 ℃ | 100 % | 1012.22 hPa |
| 2026-05-03 04:20:05 | 20.15 ℃ | 100 % | 1012.41 hPa |
| 2026-05-03 04:10:04 | 20.44 ℃ | 100 % | 1012.57 hPa |
| 2026-05-03 04:00:04 | 20.29 ℃ | 100 % | 1012.71 hPa |
| 2026-05-03 03:50:03 | 19.87 ℃ | 100 % | 1012.76 hPa |
| 2026-05-03 03:40:03 | 19.83 ℃ | 100 % | 1012.94 hPa |
| 2026-05-03 03:30:04 | 19.39 ℃ | 100 % | 1013.05 hPa |
| 2026-05-03 03:20:04 | 19.51 ℃ | 100 % | 1013.15 hPa |
| 2026-05-03 03:10:03 | 19.21 ℃ | 100 % | 1013.36 hPa |
| 2026-05-03 03:00:04 | 19.15 ℃ | 100 % | 1013.63 hPa |
| 2026-05-03 02:50:04 | 19.51 ℃ | 100 % | 1013.73 hPa |
| 2026-05-03 02:40:04 | 20.11 ℃ | 100 % | 1013.69 hPa |
| 2026-05-03 02:30:04 | 20.62 ℃ | 99.99 % | 1013.42 hPa |
| 2026-05-03 02:20:04 | 21.12 ℃ | 99.99 % | 1013.45 hPa |
| 2026-05-03 02:10:04 | 21.05 ℃ | 99.98 % | 1013.43 hPa |
| 2026-05-03 02:00:04 | 21.12 ℃ | 99.96 % | 1013.47 hPa |
| 2026-05-03 01:50:04 | 21.28 ℃ | 99.92 % | 1013.46 hPa |
| 2026-05-03 01:40:04 | 22.05 ℃ | 99.84 % | 1013.47 hPa |
| 2026-05-03 01:30:04 | 22.09 ℃ | 99.68 % | 1013.48 hPa |
| 2026-05-03 01:20:04 | 22.11 ℃ | 99.35 % | 1013.59 hPa |
| 2026-05-03 01:10:04 | 22.09 ℃ | 98.7 % | 1013.67 hPa |
| 2026-05-03 01:00:04 | 22.41 ℃ | 97.4 % | 1013.66 hPa |
| 2026-05-03 00:50:04 | 22.52 ℃ | 94.81 % | 1013.61 hPa |
| 2026-05-03 00:40:04 | 22.59 ℃ | 93.11 % | 1013.64 hPa |
| 2026-05-03 00:30:05 | 22.72 ℃ | 91.34 % | 1013.66 hPa |
| 2026-05-03 00:20:04 | 22.92 ℃ | 89.44 % | 1013.66 hPa |
| 2026-05-03 00:10:04 | 23.16 ℃ | 88.61 % | 1013.69 hPa |
| 2026-05-03 00:00:04 | 23.18 ℃ | 88.31 % | 1013.76 hPa |
| 2026-05-02 23:50:04 | 23.15 ℃ | 87.54 % | 1013.83 hPa |
| 2026-05-02 23:40:04 | 23.17 ℃ | 83.51 % | 1013.92 hPa |
| 2026-05-02 23:30:04 | 23.68 ℃ | 76.1 % | 1013.98 hPa |
| 2026-05-02 23:20:04 | 23.89 ℃ | 73.6 % | 1014.02 hPa |
| 2026-05-02 23:10:04 | 23.78 ℃ | 73.5 % | 1014.02 hPa |
| 2026-05-02 23:00:04 | 23.66 ℃ | 74.42 % | 1014.07 hPa |
| 2026-05-02 22:50:04 | 23.35 ℃ | 75.81 % | 1014.11 hPa |
| 2026-05-02 22:40:04 | 23.21 ℃ | 74.8 % | 1014.21 hPa |
| 2026-05-02 22:30:04 | 22.77 ℃ | 75.05 % | 1014.24 hPa |
| 2026-05-02 22:20:04 | 22.7 ℃ | 71.25 % | 1014.31 hPa |
| 2026-05-02 22:10:04 | 22.71 ℃ | 65.8 % | 1014.32 hPa |
| 2026-05-02 22:00:04 | 23.14 ℃ | 60.32 % | 1014.28 hPa |
| 2026-05-02 21:50:04 | 23.21 ℃ | 57.76 % | 1014.2 hPa |
| 2026-05-02 21:40:04 | 23.49 ℃ | 55.86 % | 1014.12 hPa |
| 2026-05-02 21:30:04 | 23.51 ℃ | 55 % | 1014.07 hPa |
| 2026-05-02 21:20:04 | 23.66 ℃ | 54.38 % | 1014.06 hPa |
| 2026-05-02 21:10:04 | 24.02 ℃ | 53.84 % | 1014.04 hPa |
| 2026-05-02 21:00:04 | 24.83 ℃ | 53.12 % | 1013.96 hPa |
| 2026-05-02 20:50:04 | 24.62 ℃ | 53.99 % | 1013.92 hPa |
| 2026-05-02 20:40:04 | 24.79 ℃ | 52.96 % | 1013.86 hPa |
| 2026-05-02 20:30:04 | 25.12 ℃ | 50.91 % | 1013.79 hPa |
| 2026-05-02 20:20:05 | 25.61 ℃ | 47.95 % | 1013.7 hPa |
| 2026-05-02 20:10:04 | 26.34 ℃ | 44.87 % | 1013.57 hPa |
| 2026-05-02 20:00:04 | 27.45 ℃ | 41.82 % | 1013.4 hPa |
| 2026-05-02 19:50:04 | 28.93 ℃ | 39.39 % | 1013.28 hPa |
| 2026-05-02 19:40:04 | 29.44 ℃ | 38.72 % | 1013.22 hPa |
| 2026-05-02 19:30:04 | 29.54 ℃ | 38.23 % | 1013.21 hPa |
| 2026-05-02 19:20:05 | 30.4 ℃ | 36.56 % | 1013.22 hPa |
| 2026-05-02 19:10:05 | 31.74 ℃ | 35.47 % | 1013.28 hPa |
| 2026-05-02 19:00:04 | 32.28 ℃ | 35.45 % | 1013.31 hPa |
| 2026-05-02 18:50:04 | 31.92 ℃ | 35.91 % | 1013.39 hPa |
| 2026-05-02 18:40:04 | 31.16 ℃ | 36 % | 1013.49 hPa |
| 2026-05-02 18:30:05 | 29.65 ℃ | 36.46 % | 1013.59 hPa |
| 2026-05-02 18:20:04 | 28.46 ℃ | 37.45 % | 1013.69 hPa |
| 2026-05-02 18:10:04 | 28.92 ℃ | 37.21 % | 1013.74 hPa |
| 2026-05-02 18:00:04 | 29.4 ℃ | 37.5 % | 1013.78 hPa |
| 2026-05-02 17:50:05 | 30.07 ℃ | 37.87 % | 1013.88 hPa |
| 2026-05-02 17:40:04 | 30.05 ℃ | 37.68 % | 1013.97 hPa |
| 2026-05-02 17:30:04 | 29.85 ℃ | 37.48 % | 1014.03 hPa |
| 2026-05-02 17:20:04 | 29.63 ℃ | 37.12 % | 1014.1 hPa |
| 2026-05-02 17:10:04 | 29.78 ℃ | 36.36 % | 1014.15 hPa |
| 2026-05-02 17:00:04 | 29.51 ℃ | 35.94 % | 1014.23 hPa |
| 2026-05-02 16:50:05 | 29.37 ℃ | 35.37 % | 1014.35 hPa |
| 2026-05-02 16:40:05 | 29.96 ℃ | 34.38 % | 1014.46 hPa |
| 2026-05-02 16:30:04 | 30.07 ℃ | 34.35 % | 1014.54 hPa |
| 2026-05-02 16:20:04 | 30.22 ℃ | 34.5 % | 1014.57 hPa |
| 2026-05-02 16:10:04 | 30.29 ℃ | 34.6 % | 1014.68 hPa |
| 2026-05-02 16:00:05 | 30.15 ℃ | 34.2 % | 1014.75 hPa |
| 2026-05-02 15:50:04 | 29.91 ℃ | 34.3 % | 1014.82 hPa |
| 2026-05-02 15:40:05 | 29.83 ℃ | 35.25 % | 1014.94 hPa |
| 2026-05-02 15:30:05 | 29.66 ℃ | 35.61 % | 1015.06 hPa |
| 2026-05-02 15:20:05 | 29.79 ℃ | 36.23 % | 1015.18 hPa |
| 2026-05-02 15:10:04 | 29.59 ℃ | 36.6 % | 1015.38 hPa |
| 2026-05-02 15:00:04 | 29.6 ℃ | 36.26 % | 1015.51 hPa |
| 2026-05-02 14:50:04 | 29.68 ℃ | 36.22 % | 1015.65 hPa |
| 2026-05-02 14:40:04 | 29.65 ℃ | 36.04 % | 1015.78 hPa |
| 2026-05-02 14:30:05 | 29.43 ℃ | 35.68 % | 1015.87 hPa |
| 2026-05-02 14:20:05 | 29.12 ℃ | 35.37 % | 1015.99 hPa |
| 2026-05-02 14:10:05 | 29.07 ℃ | 35.64 % | 1016.08 hPa |
| 2026-05-02 14:00:05 | 28.93 ℃ | 35.52 % | 1016.16 hPa |
| 2026-05-02 13:50:05 | 29.24 ℃ | 35.32 % | 1016.3 hPa |
| 2026-05-02 13:40:05 | 29.19 ℃ | 36.03 % | 1016.46 hPa |
| 2026-05-02 13:30:05 | 29.16 ℃ | 36.4 % | 1016.54 hPa |
| 2026-05-02 13:20:05 | 28.89 ℃ | 36.58 % | 1016.63 hPa |
| 2026-05-02 13:10:05 | 28.56 ℃ | 37 % | 1016.71 hPa |
| 2026-05-02 13:00:05 | 28.7 ℃ | 37.89 % | 1016.78 hPa |
| 2026-05-02 12:50:05 | 28.48 ℃ | 39.04 % | 1016.94 hPa |
| 2026-05-02 12:40:05 | 28.41 ℃ | 40.16 % | 1017.08 hPa |
| 2026-05-02 12:30:05 | 28.17 ℃ | 41.72 % | 1017.22 hPa |
| 2026-05-02 12:20:05 | 28.17 ℃ | 43.05 % | 1017.31 hPa |
| 2026-05-02 12:10:05 | 28.24 ℃ | 44.72 % | 1017.45 hPa |
| 2026-05-02 12:00:05 | 28.03 ℃ | 46.89 % | 1017.56 hPa |
| 2026-05-02 11:50:05 | 27.92 ℃ | 47.92 % | 1017.65 hPa |
| 2026-05-02 11:40:05 | 27.76 ℃ | 48.92 % | 1017.74 hPa |
| 2026-05-02 11:30:05 | 27.44 ℃ | 49.82 % | 1017.8 hPa |
| 2026-05-02 11:20:05 | 27.16 ℃ | 51.17 % | 1017.87 hPa |
| 2026-05-02 11:10:05 | 26.9 ℃ | 51.29 % | 1017.97 hPa |
| 2026-05-02 11:00:05 | 26.88 ℃ | 51.63 % | 1018.05 hPa |
| 2026-05-02 10:50:05 | 26.48 ℃ | 52.64 % | 1018.14 hPa |
| 2026-05-02 10:40:05 | 26.16 ℃ | 53.15 % | 1018.24 hPa |
| 2026-05-02 10:30:05 | 25.92 ℃ | 53.48 % | 1018.32 hPa |
| 2026-05-02 10:20:06 | 26.05 ℃ | 53.3 % | 1018.4 hPa |
| 2026-05-02 10:10:06 | 25.76 ℃ | 54.67 % | 1018.5 hPa |
| 2026-05-02 10:00:05 | 25.63 ℃ | 55.61 % | 1018.58 hPa |
| 2026-05-02 09:50:05 | 25.16 ℃ | 56.67 % | 1018.62 hPa |
| 2026-05-02 09:40:06 | 24.87 ℃ | 57.45 % | 1018.71 hPa |
| 2026-05-02 09:30:05 | 24.78 ℃ | 58.09 % | 1018.79 hPa |
| 2026-05-02 09:20:05 | 24.67 ℃ | 58.92 % | 1018.87 hPa |
| 2026-05-02 09:10:05 | 24.68 ℃ | 58.93 % | 1018.94 hPa |
| 2026-05-02 09:00:05 | 24.56 ℃ | 59.73 % | 1018.99 hPa |
| 2026-05-02 08:50:05 | 24.25 ℃ | 60.33 % | 1019.04 hPa |
| 2026-05-02 08:40:05 | 24 ℃ | 60.8 % | 1019.07 hPa |
| 2026-05-02 08:30:05 | 23.8 ℃ | 61.61 % | 1019.09 hPa |
| 2026-05-02 08:20:05 | 23.5 ℃ | 62.4 % | 1019.09 hPa |
| 2026-05-02 08:10:05 | 23.34 ℃ | 62.26 % | 1019.12 hPa |
| 2026-05-02 08:00:05 | 23.25 ℃ | 63.02 % | 1019.19 hPa |
| 2026-05-02 07:50:05 | 22.79 ℃ | 64.81 % | 1019.24 hPa |
| 2026-05-02 07:40:05 | 22.23 ℃ | 66.08 % | 1019.27 hPa |
| 2026-05-02 07:30:05 | 22.11 ℃ | 66.49 % | 1019.31 hPa |
| 2026-05-02 07:20:05 | 21.38 ℃ | 68.54 % | 1019.35 hPa |
| 2026-05-02 07:10:05 | 20.83 ℃ | 70.54 % | 1019.41 hPa |
| 2026-05-02 07:00:05 | 20.43 ℃ | 71.87 % | 1019.43 hPa |
| 2026-05-02 06:50:05 | 20.39 ℃ | 72.23 % | 1019.45 hPa |
| 2026-05-02 06:40:05 | 19.91 ℃ | 73.83 % | 1019.46 hPa |
| 2026-05-02 06:30:05 | 19.67 ℃ | 74.89 % | 1019.5 hPa |
| 2026-05-02 06:20:06 | 19.24 ℃ | 77.8 % | 1019.55 hPa |
| 2026-05-02 06:10:06 | 18.41 ℃ | 81.24 % | 1019.62 hPa |
| 2026-05-02 06:00:05 | 17.93 ℃ | 84.07 % | 1019.75 hPa |
| 2026-05-02 05:50:06 | 17.89 ℃ | 84.42 % | 1019.83 hPa |
| 2026-05-02 05:40:05 | 18 ℃ | 84.08 % | 1019.9 hPa |
| 2026-05-02 05:30:05 | 17.73 ℃ | 85.33 % | 1020.03 hPa |
| 2026-05-02 05:20:05 | 17.57 ℃ | 85.75 % | 1020.13 hPa |
| 2026-05-02 05:10:05 | 17.46 ℃ | 85.71 % | 1020.23 hPa |
| 2026-05-02 05:00:05 | 17.84 ℃ | 83.86 % | 1020.32 hPa |
| 2026-05-02 04:50:06 | 17.9 ℃ | 82.64 % | 1020.39 hPa |
| 2026-05-02 04:40:06 | 18 ℃ | 82.46 % | 1020.51 hPa |
| 2026-05-02 04:30:06 | 18.12 ℃ | 80.77 % | 1020.62 hPa |
| 2026-05-02 04:20:05 | 18.1 ℃ | 80.92 % | 1020.76 hPa |
| 2026-05-02 04:10:05 | 18.13 ℃ | 81.1 % | 1020.85 hPa |
| 2026-05-02 04:00:06 | 18.2 ℃ | 80.36 % | 1020.94 hPa |
| 2026-05-02 03:50:05 | 18.55 ℃ | 78.34 % | 1021.05 hPa |
| 2026-05-02 03:40:05 | 18.67 ℃ | 78.15 % | 1021.14 hPa |
| 2026-05-02 03:30:05 | 18.64 ℃ | 78.19 % | 1021.24 hPa |
| 2026-05-02 03:20:05 | 18.48 ℃ | 79.07 % | 1021.37 hPa |
| 2026-05-02 03:10:06 | 18.62 ℃ | 78.89 % | 1021.43 hPa |
| 2026-05-02 03:00:06 | 18.55 ℃ | 79.97 % | 1021.59 hPa |
| 2026-05-02 02:50:05 | 18.72 ℃ | 79.86 % | 1021.68 hPa |
| 2026-05-02 02:40:05 | 18.76 ℃ | 80.07 % | 1021.77 hPa |
| 2026-05-02 02:30:06 | 18.39 ℃ | 81.47 % | 1021.91 hPa |
| 2026-05-02 02:20:06 | 18.71 ℃ | 80.96 % | 1022 hPa |
| 2026-05-02 02:10:06 | 18.44 ℃ | 82.87 % | 1022.11 hPa |
| 2026-05-02 02:00:06 | 18.5 ℃ | 83.73 % | 1022.2 hPa |
| 2026-05-02 01:50:06 | 18.47 ℃ | 83.69 % | 1022.28 hPa |
| 2026-05-02 01:40:06 | 18.68 ℃ | 82.99 % | 1022.35 hPa |
| 2026-05-02 01:30:06 | 18.75 ℃ | 83.73 % | 1022.42 hPa |
| 2026-05-02 01:20:07 | 18.84 ℃ | 84.48 % | 1022.46 hPa |
| 2026-05-02 01:10:06 | 18.66 ℃ | 86.14 % | 1022.56 hPa |
| 2026-05-02 01:00:06 | 18.53 ℃ | 87.7 % | 1022.62 hPa |
| 2026-05-02 00:50:06 | 18.42 ℃ | 89.42 % | 1022.71 hPa |
| 2026-05-02 00:40:06 | 18.46 ℃ | 89.74 % | 1022.73 hPa |
| 2026-05-02 00:30:07 | 18.81 ℃ | 86.83 % | 1022.78 hPa |
| 2026-05-02 00:20:06 | 19.24 ℃ | 84.63 % | 1022.82 hPa |
| 2026-05-02 00:10:06 | 19.32 ℃ | 81.99 % | 1022.84 hPa |
| 2026-05-02 00:00:06 | 19.46 ℃ | 80.94 % | 1022.86 hPa |
| 2026-05-01 23:50:06 | 19.31 ℃ | 80.7 % | 1022.91 hPa |
| 2026-05-01 23:40:06 | 19.51 ℃ | 78.34 % | 1022.93 hPa |
| 2026-05-01 23:30:06 | 19.49 ℃ | 76.52 % | 1022.97 hPa |
| 2026-05-01 23:20:06 | 19.48 ℃ | 75.25 % | 1023.03 hPa |
| 2026-05-01 23:10:06 | 19.77 ℃ | 72.56 % | 1023.11 hPa |
| 2026-05-01 23:00:06 | 19.87 ℃ | 70.81 % | 1023.22 hPa |
| 2026-05-01 22:50:06 | 19.76 ℃ | 70.15 % | 1023.33 hPa |
| 2026-05-01 22:40:06 | 19.92 ℃ | 68.7 % | 1023.47 hPa |
| 2026-05-01 22:30:06 | 20.25 ℃ | 67.33 % | 1023.56 hPa |
| 2026-05-01 22:20:06 | 20.36 ℃ | 66.32 % | 1023.64 hPa |
| 2026-05-01 22:10:06 | 20.76 ℃ | 64.86 % | 1023.72 hPa |
| 2026-05-01 22:00:06 | 21.18 ℃ | 63.86 % | 1023.74 hPa |
| 2026-05-01 21:50:06 | 21.36 ℃ | 63.74 % | 1023.79 hPa |
| 2026-05-01 21:40:06 | 21.68 ℃ | 63.22 % | 1023.8 hPa |
| 2026-05-01 21:30:06 | 21.9 ℃ | 62.89 % | 1023.81 hPa |
| 2026-05-01 21:20:06 | 22.26 ℃ | 61.99 % | 1023.81 hPa |
| 2026-05-01 21:10:06 | 22.46 ℃ | 60.77 % | 1023.84 hPa |
| 2026-05-01 21:00:06 | 22.85 ℃ | 59.35 % | 1023.89 hPa |
| 2026-05-01 20:50:06 | 23.01 ℃ | 58.05 % | 1023.85 hPa |
| 2026-05-01 20:40:06 | 23.23 ℃ | 56.97 % | 1023.85 hPa |
| 2026-05-01 20:30:06 | 23.42 ℃ | 55.72 % | 1023.83 hPa |
| 2026-05-01 20:20:06 | 23.88 ℃ | 53.98 % | 1023.8 hPa |
| 2026-05-01 20:10:07 | 24.46 ℃ | 51.89 % | 1023.74 hPa |
| 2026-05-01 20:00:06 | 24.42 ℃ | 51.03 % | 1023.78 hPa |
| 2026-05-01 19:50:07 | 24.45 ℃ | 49.83 % | 1023.83 hPa |
| 2026-05-01 19:40:06 | 24.61 ℃ | 48.97 % | 1023.85 hPa |
| 2026-05-01 19:30:06 | 24.54 ℃ | 48.53 % | 1023.89 hPa |
| 2026-05-01 19:20:06 | 24.6 ℃ | 48.03 % | 1023.96 hPa |
| 2026-05-01 19:10:06 | 24.9 ℃ | 47.4 % | 1024.05 hPa |
| 2026-05-01 19:00:06 | 24.79 ℃ | 47.14 % | 1024.12 hPa |
| 2026-05-01 18:50:06 | 24.97 ℃ | 46.28 % | 1024.23 hPa |
| 2026-05-01 18:40:06 | 25.15 ℃ | 45.3 % | 1024.38 hPa |
| 2026-05-01 18:30:06 | 25.42 ℃ | 44.25 % | 1024.48 hPa |
| 2026-05-01 18:20:06 | 25.56 ℃ | 43.33 % | 1024.6 hPa |
| 2026-05-01 18:10:08 | 25.87 ℃ | 42.01 % | 1024.73 hPa |
| 2026-05-01 18:00:07 | 25.8 ℃ | 41.21 % | 1024.85 hPa |
| 2026-05-01 17:50:06 | 26.03 ℃ | 40.16 % | 1025.03 hPa |
| 2026-05-01 17:40:06 | 26.14 ℃ | 40.17 % | 1025.19 hPa |
| 2026-05-01 17:30:06 | 26.04 ℃ | 40.39 % | 1025.33 hPa |
| 2026-05-01 17:20:06 | 25.97 ℃ | 40.71 % | 1025.44 hPa |
| 2026-05-01 17:10:06 | 25.86 ℃ | 40.94 % | 1025.57 hPa |
| 2026-05-01 17:00:06 | 25.89 ℃ | 40.94 % | 1025.72 hPa |
| 2026-05-01 16:50:06 | 25.71 ℃ | 41.07 % | 1025.83 hPa |
| 2026-05-01 16:40:06 | 25.7 ℃ | 40.74 % | 1025.91 hPa |
| 2026-05-01 16:30:07 | 25.45 ℃ | 40.63 % | 1026 hPa |
| 2026-05-01 16:20:06 | 25.67 ℃ | 40.22 % | 1026.07 hPa |
| 2026-05-01 16:10:07 | 25.41 ℃ | 40.51 % | 1026.22 hPa |
| 2026-05-01 16:00:06 | 25.76 ℃ | 40.39 % | 1026.32 hPa |
| 2026-05-01 15:50:06 | 25.9 ℃ | 40.38 % | 1026.4 hPa |
| 2026-05-01 15:40:06 | 25.78 ℃ | 40.68 % | 1026.53 hPa |
| 2026-05-01 15:30:07 | 25.79 ℃ | 40.51 % | 1026.67 hPa |
| 2026-05-01 15:20:07 | 25.42 ℃ | 40.92 % | 1026.82 hPa |
| 2026-05-01 15:10:08 | 25.03 ℃ | 41.04 % | 1026.95 hPa |
| 2026-05-01 15:00:06 | 25.65 ℃ | 40.45 % | 1027.09 hPa |
| 2026-05-01 14:50:06 | 25.65 ℃ | 41 % | 1027.22 hPa |
| 2026-05-01 14:40:06 | 25.74 ℃ | 41.17 % | 1027.35 hPa |
| 2026-05-01 14:30:07 | 25.66 ℃ | 41.08 % | 1027.49 hPa |
| 2026-05-01 14:20:07 | 26.11 ℃ | 41.27 % | 1027.61 hPa |
| 2026-05-01 14:10:07 | 25.77 ℃ | 41.49 % | 1027.72 hPa |
| 2026-05-01 14:00:07 | 25.64 ℃ | 41.24 % | 1027.81 hPa |
| 2026-05-01 13:50:07 | 25.4 ℃ | 41.6 % | 1027.9 hPa |
| 2026-05-01 13:40:07 | 25.66 ℃ | 41.48 % | 1028.02 hPa |
| 2026-05-01 13:30:07 | 25.46 ℃ | 41.54 % | 1028.12 hPa |
| 2026-05-01 13:20:07 | 25.09 ℃ | 42.53 % | 1028.18 hPa |
| 2026-05-01 13:10:07 | 24.67 ℃ | 43.41 % | 1028.28 hPa |
| 2026-05-01 13:00:07 | 25.25 ℃ | 43.73 % | 1028.37 hPa |
| 2026-05-01 12:50:07 | 25.48 ℃ | 43.78 % | 1028.43 hPa |
| 2026-05-01 12:40:07 | 25.28 ℃ | 44.23 % | 1028.53 hPa |
| 2026-05-01 12:30:07 | 25.12 ℃ | 44.83 % | 1028.58 hPa |
| 2026-05-01 12:20:07 | 24.86 ℃ | 45.21 % | 1028.65 hPa |
| 2026-05-01 12:10:07 | 24.63 ℃ | 45.37 % | 1028.76 hPa |
| 2026-05-01 12:00:07 | 24.26 ℃ | 45.3 % | 1028.88 hPa |
| 2026-05-01 11:50:07 | 24.4 ℃ | 44.95 % | 1028.98 hPa |
| 2026-05-01 11:40:07 | 24.5 ℃ | 44.79 % | 1029.04 hPa |
| 2026-05-01 11:30:07 | 24.44 ℃ | 45.88 % | 1029.11 hPa |
| 2026-05-01 11:20:07 | 24.4 ℃ | 46.53 % | 1029.18 hPa |
| 2026-05-01 11:10:07 | 24.32 ℃ | 47.4 % | 1029.28 hPa |
| 2026-05-01 11:00:07 | 24.12 ℃ | 48.28 % | 1029.34 hPa |
| 2026-05-01 10:50:07 | 23.83 ℃ | 47.66 % | 1029.38 hPa |
| 2026-05-01 10:40:07 | 23.65 ℃ | 48.99 % | 1029.48 hPa |
| 2026-05-01 10:30:07 | 23.68 ℃ | 50.02 % | 1029.55 hPa |
| 2026-05-01 10:20:07 | 23.94 ℃ | 51.45 % | 1029.56 hPa |
| 2026-05-01 10:10:08 | 24.1 ℃ | 50.9 % | 1029.56 hPa |
| 2026-05-01 10:00:07 | 24.12 ℃ | 50.82 % | 1029.59 hPa |
| 2026-05-01 09:50:07 | 23.49 ℃ | 51.1 % | 1029.62 hPa |
| 2026-05-01 09:40:07 | 23.29 ℃ | 49.95 % | 1029.7 hPa |
| 2026-05-01 09:30:08 | 23.39 ℃ | 50.07 % | 1029.7 hPa |
| 2026-05-01 09:20:08 | 22.89 ℃ | 53.04 % | 1029.68 hPa |
| 2026-05-01 09:10:07 | 22.93 ℃ | 55.33 % | 1029.67 hPa |
| 2026-05-01 09:00:08 | 22.38 ℃ | 57.56 % | 1029.68 hPa |
| 2026-05-01 08:50:08 | 21.9 ℃ | 58.99 % | 1029.7 hPa |
| 2026-05-01 08:40:07 | 20.83 ℃ | 62.3 % | 1029.68 hPa |
| 2026-05-01 08:30:07 | 20.54 ℃ | 64.03 % | 1029.69 hPa |
| 2026-05-01 08:20:09 | 20.23 ℃ | 66.9 % | 1029.69 hPa |
| 2026-05-01 08:10:07 | 20.89 ℃ | 68.24 % | 1029.7 hPa |
| 2026-05-01 08:00:10 | 20.41 ℃ | 72.12 % | 1029.76 hPa |
| 2026-05-01 07:50:08 | 19.73 ℃ | 75.18 % | 1029.76 hPa |
| 2026-05-01 07:40:07 | 19.43 ℃ | 76.2 % | 1029.7 hPa |
| 2026-05-01 07:30:08 | 18.9 ℃ | 77.96 % | 1029.72 hPa |
| 2026-05-01 07:20:08 | 18.8 ℃ | 76.76 % | 1029.69 hPa |
| 2026-05-01 07:10:07 | 18.61 ℃ | 77.28 % | 1029.67 hPa |
| 2026-05-01 07:00:08 | 18.87 ℃ | 76.12 % | 1029.63 hPa |
| 2026-05-01 06:50:08 | 18.47 ℃ | 77.61 % | 1029.63 hPa |
| 2026-05-01 06:40:07 | 18.48 ℃ | 78.03 % | 1029.59 hPa |
| 2026-05-01 06:30:08 | 18.29 ℃ | 79.5 % | 1029.54 hPa |
| 2026-05-01 06:20:07 | 17.65 ℃ | 83.49 % | 1029.5 hPa |
| 2026-05-01 06:10:08 | 16.66 ℃ | 88.58 % | 1029.48 hPa |
| 2026-05-01 06:00:08 | 16.09 ℃ | 89.44 % | 1029.46 hPa |
| 2026-05-01 05:50:08 | 16.41 ℃ | 87.27 % | 1029.45 hPa |
| 2026-05-01 05:40:07 | 16.27 ℃ | 88.75 % | 1029.47 hPa |
| 2026-05-01 05:30:08 | 16.05 ℃ | 90.92 % | 1029.51 hPa |
| 2026-05-01 05:20:08 | 16.23 ℃ | 91.22 % | 1029.55 hPa |
| 2026-05-01 05:10:08 | 16.21 ℃ | 91.2 % | 1029.6 hPa |
| 2026-05-01 05:00:08 | 16.15 ℃ | 90.59 % | 1029.66 hPa |
| 2026-05-01 04:50:08 | 16.57 ℃ | 86.02 % | 1029.66 hPa |
| 2026-05-01 04:40:09 | 16.56 ℃ | 85.44 % | 1029.66 hPa |
| 2026-05-01 04:30:08 | 16.38 ℃ | 86.61 % | 1029.65 hPa |
| 2026-05-01 04:20:08 | 16.22 ℃ | 87.14 % | 1029.63 hPa |
| 2026-05-01 04:10:08 | 16.71 ℃ | 85.46 % | 1029.61 hPa |
| 2026-05-01 04:00:08 | 16.91 ℃ | 84.31 % | 1029.57 hPa |
| 2026-05-01 03:50:08 | 16.93 ℃ | 83.71 % | 1029.57 hPa |
| 2026-05-01 03:40:08 | 16.86 ℃ | 83.4 % | 1029.61 hPa |
| 2026-05-01 03:30:07 | 17 ℃ | 82.85 % | 1029.61 hPa |
| 2026-05-01 03:20:08 | 17 ℃ | 82.09 % | 1029.64 hPa |
| 2026-05-01 03:10:07 | 17.26 ℃ | 79.63 % | 1029.66 hPa |
| 2026-05-01 03:00:08 | 17.61 ℃ | 77.82 % | 1029.65 hPa |
| 2026-05-01 02:50:09 | 17.78 ℃ | 76.95 % | 1029.68 hPa |
| 2026-05-01 02:40:08 | 17.91 ℃ | 75.75 % | 1029.7 hPa |
| 2026-05-01 02:30:08 | 17.92 ℃ | 75.37 % | 1029.74 hPa |
| 2026-05-01 02:20:08 | 17.96 ℃ | 74.48 % | 1029.75 hPa |
| 2026-05-01 02:10:08 | 18.19 ℃ | 72.78 % | 1029.71 hPa |
| 2026-05-01 02:00:08 | 18.3 ℃ | 72.35 % | 1029.72 hPa |
| 2026-05-01 01:50:08 | 18.35 ℃ | 71.9 % | 1029.75 hPa |
| 2026-05-01 01:40:08 | 18.25 ℃ | 71.92 % | 1029.75 hPa |
| 2026-05-01 01:30:08 | 18.05 ℃ | 72.93 % | 1029.76 hPa |
| 2026-05-01 01:20:08 | 17.69 ℃ | 76.51 % | 1029.79 hPa |
| 2026-05-01 01:10:08 | 17.09 ℃ | 80.44 % | 1029.86 hPa |
| 2026-05-01 01:00:08 | 16.72 ℃ | 82.09 % | 1029.87 hPa |
| 2026-05-01 00:50:08 | 17.69 ℃ | 75.03 % | 1029.84 hPa |
| 2026-05-01 00:40:08 | 19.2 ℃ | 63.33 % | 1029.78 hPa |
| 2026-05-01 00:30:08 | 19.36 ℃ | 62.57 % | 1029.79 hPa |
| 2026-05-01 00:20:08 | 19.39 ℃ | 62.11 % | 1029.81 hPa |
| 2026-05-01 00:10:08 | 19.34 ℃ | 61.18 % | 1029.84 hPa |
| 2026-05-01 00:00:08 | 19.47 ℃ | 60.03 % | 1029.85 hPa |
| 2026-04-30 23:50:08 | 19.65 ℃ | 58.31 % | 1029.84 hPa |
| 2026-04-30 23:40:08 | 19.92 ℃ | 55.88 % | 1029.84 hPa |
| 2026-04-30 23:30:08 | 20.41 ℃ | 54.2 % | 1029.87 hPa |
| 2026-04-30 23:20:08 | 20.52 ℃ | 53.47 % | 1029.91 hPa |
| 2026-04-30 23:10:08 | 20.74 ℃ | 52.91 % | 1029.93 hPa |
| 2026-04-30 23:00:08 | 20.84 ℃ | 52.34 % | 1029.88 hPa |
| 2026-04-30 22:50:08 | 20.95 ℃ | 51.87 % | 1029.85 hPa |
| 2026-04-30 22:40:08 | 20.85 ℃ | 51.9 % | 1029.82 hPa |
| 2026-04-30 22:30:08 | 20.68 ℃ | 52.11 % | 1029.8 hPa |
| 2026-04-30 22:20:08 | 21.12 ℃ | 51.09 % | 1029.79 hPa |
| 2026-04-30 22:10:08 | 21.3 ℃ | 50.79 % | 1029.79 hPa |
| 2026-04-30 22:00:08 | 21.56 ℃ | 50.39 % | 1029.84 hPa |
| 2026-04-30 21:50:08 | 21.94 ℃ | 49.64 % | 1029.87 hPa |
| 2026-04-30 21:40:08 | 21.88 ℃ | 49.5 % | 1029.82 hPa |
| 2026-04-30 21:30:08 | 21.91 ℃ | 49.32 % | 1029.74 hPa |
| 2026-04-30 21:20:09 | 21.98 ℃ | 49.01 % | 1029.67 hPa |
| 2026-04-30 21:10:08 | 21.97 ℃ | 48.68 % | 1029.64 hPa |
| 2026-04-30 21:00:08 | 21.61 ℃ | 49.07 % | 1029.57 hPa |
| 2026-04-30 20:50:08 | 21.04 ℃ | 49.79 % | 1029.53 hPa |
| 2026-04-30 20:40:09 | 20.72 ℃ | 49.73 % | 1029.52 hPa |
| 2026-04-30 20:30:08 | 20.71 ℃ | 49.09 % | 1029.51 hPa |
| 2026-04-30 20:20:09 | 20.63 ℃ | 48.43 % | 1029.54 hPa |
| 2026-04-30 20:10:08 | 20.11 ℃ | 48.11 % | 1029.57 hPa |
| 2026-04-30 20:00:08 | 20.36 ℃ | 46.98 % | 1029.61 hPa |
| 2026-04-30 19:50:09 | 20.49 ℃ | 46.29 % | 1029.65 hPa |
| 2026-04-30 19:40:09 | 20.66 ℃ | 45.04 % | 1029.7 hPa |
| 2026-04-30 19:30:09 | 20.77 ℃ | 44.49 % | 1029.71 hPa |
| 2026-04-30 19:20:08 | 20.67 ℃ | 44.59 % | 1029.72 hPa |
| 2026-04-30 19:10:09 | 21.01 ℃ | 44.01 % | 1029.71 hPa |
| 2026-04-30 19:00:10 | 21.01 ℃ | 43.8 % | 1029.76 hPa |
| 2026-04-30 18:50:09 | 21.29 ℃ | 43.38 % | 1029.8 hPa |
| 2026-04-30 18:40:09 | 21.78 ℃ | 42.78 % | 1029.81 hPa |
| 2026-04-30 18:30:10 | 21.62 ℃ | 43.04 % | 1029.88 hPa |
| 2026-04-30 18:20:08 | 21.12 ℃ | 43.38 % | 1029.99 hPa |
| 2026-04-30 18:10:09 | 21.62 ℃ | 43.15 % | 1030.02 hPa |
| 2026-04-30 18:00:08 | 21.53 ℃ | 43.25 % | 1030.06 hPa |
| 2026-04-30 17:50:10 | 21.31 ℃ | 43.45 % | 1030.13 hPa |
| 2026-04-30 17:40:09 | 21.15 ℃ | 43.37 % | 1030.19 hPa |
| 2026-04-30 17:30:08 | 21.29 ℃ | 43.26 % | 1030.26 hPa |
| 2026-04-30 17:20:08 | 21.05 ℃ | 43.87 % | 1030.37 hPa |
| 2026-04-30 17:10:08 | 21.66 ℃ | 44.54 % | 1030.44 hPa |
| 2026-04-30 17:00:09 | 21.14 ℃ | 45.8 % | 1030.54 hPa |
| 2026-04-30 16:50:09 | 20.58 ℃ | 46.75 % | 1030.61 hPa |
| 2026-04-30 16:40:09 | 20.62 ℃ | 46.5 % | 1030.68 hPa |
| 2026-04-30 16:30:09 | 20.86 ℃ | 45.88 % | 1030.73 hPa |
| 2026-04-30 16:20:10 | 20.78 ℃ | 45.25 % | 1030.86 hPa |
| 2026-04-30 16:10:10 | 21.06 ℃ | 44.75 % | 1030.89 hPa |
| 2026-04-30 16:00:10 | 20.98 ℃ | 44.55 % | 1030.96 hPa |
| 2026-04-30 15:50:08 | 20.93 ℃ | 44.42 % | 1031.02 hPa |
| 2026-04-30 15:40:09 | 21.3 ℃ | 43.57 % | 1031.1 hPa |
| 2026-04-30 15:30:08 | 21.15 ℃ | 43.64 % | 1031.17 hPa |
| 2026-04-30 15:20:09 | 21.25 ℃ | 43.64 % | 1031.23 hPa |
| 2026-04-30 15:10:08 | 21.61 ℃ | 43.17 % | 1031.33 hPa |
| 2026-04-30 15:00:09 | 21.73 ℃ | 42.69 % | 1031.43 hPa |
| 2026-04-30 14:50:09 | 22.08 ℃ | 42.13 % | 1031.52 hPa |
| 2026-04-30 14:40:09 | 22.51 ℃ | 41.92 % | 1031.56 hPa |
| 2026-04-30 14:30:09 | 22.29 ℃ | 42.07 % | 1031.61 hPa |
| 2026-04-30 14:20:09 | 22.26 ℃ | 41.88 % | 1031.68 hPa |
| 2026-04-30 14:10:09 | 21.41 ℃ | 43.05 % | 1031.8 hPa |
| 2026-04-30 14:00:09 | 21.82 ℃ | 43.05 % | 1031.79 hPa |
| 2026-04-30 13:50:09 | 21.23 ℃ | 43.28 % | 1031.83 hPa |
| 2026-04-30 13:40:09 | 21.72 ℃ | 43.05 % | 1031.91 hPa |
| 2026-04-30 13:30:09 | 22.09 ℃ | 42.81 % | 1031.98 hPa |
| 2026-04-30 13:20:12 | 22.28 ℃ | 41.87 % | 1032.05 hPa |
| 2026-04-30 13:10:10 | 22.38 ℃ | 41.81 % | 1032.13 hPa |
| 2026-04-30 13:00:09 | 21.71 ℃ | 42.5 % | 1032.2 hPa |
| 2026-04-30 12:50:09 | 21.41 ℃ | 42.93 % | 1032.3 hPa |
| 2026-04-30 12:40:09 | 21.44 ℃ | 43.05 % | 1032.36 hPa |
| 2026-04-30 12:30:09 | 21.7 ℃ | 43.18 % | 1032.46 hPa |
| 2026-04-30 12:20:09 | 21.82 ℃ | 43.32 % | 1032.54 hPa |
| 2026-04-30 12:10:09 | 21.58 ℃ | 42.77 % | 1032.56 hPa |
| 2026-04-30 12:00:09 | 20.61 ℃ | 43.97 % | 1032.61 hPa |
| 2026-04-30 11:50:09 | 20.95 ℃ | 44.4 % | 1032.62 hPa |
| 2026-04-30 11:40:09 | 20.59 ℃ | 44.84 % | 1032.68 hPa |
| 2026-04-30 11:30:09 | 20.69 ℃ | 45.22 % | 1032.73 hPa |
| 2026-04-30 11:20:09 | 20.73 ℃ | 44.77 % | 1032.77 hPa |
| 2026-04-30 11:10:09 | 21 ℃ | 44.04 % | 1032.78 hPa |
| 2026-04-30 11:00:10 | 20.45 ℃ | 45.19 % | 1032.88 hPa |
| 2026-04-30 10:50:10 | 20.13 ℃ | 45.4 % | 1032.93 hPa |
| 2026-04-30 10:40:09 | 20.14 ℃ | 44.96 % | 1032.96 hPa |
| 2026-04-30 10:30:09 | 20.18 ℃ | 44.98 % | 1032.98 hPa |
| 2026-04-30 10:20:09 | 20.39 ℃ | 45.18 % | 1032.98 hPa |
| 2026-04-30 10:10:09 | 20.45 ℃ | 45.38 % | 1032.96 hPa |
| 2026-04-30 10:00:09 | 20.17 ℃ | 45.54 % | 1032.99 hPa |
| 2026-04-30 09:50:09 | 20.08 ℃ | 44.82 % | 1032.98 hPa |
| 2026-04-30 09:40:10 | 20.72 ℃ | 45.73 % | 1033.02 hPa |
| 2026-04-30 09:30:09 | 20.56 ℃ | 47.25 % | 1033.07 hPa |
| 2026-04-30 09:20:09 | 19.94 ℃ | 48.79 % | 1033.08 hPa |
| 2026-04-30 09:10:09 | 19.81 ℃ | 49.15 % | 1033.09 hPa |
| 2026-04-30 09:00:09 | 20.75 ℃ | 50.03 % | 1033.07 hPa |
| 2026-04-30 08:50:09 | 20.79 ℃ | 51.89 % | 1033.03 hPa |
| 2026-04-30 08:40:09 | 20.92 ℃ | 53.41 % | 1032.99 hPa |
| 2026-04-30 08:30:09 | 20.78 ℃ | 56.61 % | 1032.98 hPa |
| 2026-04-30 08:20:09 | 20.26 ℃ | 59.66 % | 1033.03 hPa |
| 2026-04-30 08:10:09 | 19.69 ℃ | 62.98 % | 1033.04 hPa |
| 2026-04-30 08:00:10 | 19.06 ℃ | 67.2 % | 1032.96 hPa |
| 2026-04-30 07:50:10 | 18.5 ℃ | 71.05 % | 1032.93 hPa |
| 2026-04-30 07:40:09 | 17.93 ℃ | 73.63 % | 1032.94 hPa |
| 2026-04-30 07:30:09 | 17.42 ℃ | 75.58 % | 1032.95 hPa |
| 2026-04-30 07:20:09 | 16.68 ℃ | 77.64 % | 1032.94 hPa |
| 2026-04-30 07:10:10 | 16.32 ℃ | 78.22 % | 1032.9 hPa |
| 2026-04-30 07:00:10 | 15.92 ℃ | 78.82 % | 1032.89 hPa |
| 2026-04-30 06:50:10 | 15.97 ℃ | 79.07 % | 1032.87 hPa |
| 2026-04-30 06:40:09 | 16.16 ℃ | 79.1 % | 1032.83 hPa |
| 2026-04-30 06:30:09 | 16.29 ℃ | 78.43 % | 1032.73 hPa |
| 2026-04-30 06:20:09 | 15.83 ℃ | 81.37 % | 1032.72 hPa |
| 2026-04-30 06:10:09 | 14.97 ℃ | 85.57 % | 1032.73 hPa |
| 2026-04-30 06:00:09 | 14.43 ℃ | 87.16 % | 1032.72 hPa |
| 2026-04-30 05:50:09 | 14.35 ℃ | 87.32 % | 1032.68 hPa |
| 2026-04-30 05:40:09 | 14.24 ℃ | 87.59 % | 1032.64 hPa |
| 2026-04-30 05:30:10 | 14.35 ℃ | 86.79 % | 1032.56 hPa |
| 2026-04-30 05:20:10 | 14.42 ℃ | 86.05 % | 1032.49 hPa |
| 2026-04-30 05:10:11 | 14.4 ℃ | 85.67 % | 1032.45 hPa |
| 2026-04-30 05:00:10 | 14.41 ℃ | 84.67 % | 1032.47 hPa |
| 2026-04-30 04:50:09 | 14.79 ℃ | 81.67 % | 1032.41 hPa |
| 2026-04-30 04:40:09 | 14.77 ℃ | 81.03 % | 1032.36 hPa |
| 2026-04-30 04:30:10 | 14.87 ℃ | 80.11 % | 1032.42 hPa |
| 2026-04-30 04:20:09 | 14.85 ℃ | 79.56 % | 1032.44 hPa |
| 2026-04-30 04:10:10 | 15 ℃ | 78.39 % | 1032.46 hPa |
| 2026-04-30 04:00:10 | 15.07 ℃ | 77.79 % | 1032.47 hPa |
| 2026-04-30 03:50:10 | 15.03 ℃ | 76.96 % | 1032.46 hPa |
| 2026-04-30 03:40:10 | 14.81 ℃ | 75.2 % | 1032.41 hPa |
| 2026-04-30 03:30:10 | 14.82 ℃ | 71.75 % | 1032.33 hPa |
| 2026-04-30 03:20:09 | 14.41 ℃ | 72.54 % | 1032.31 hPa |
| 2026-04-30 03:10:10 | 13.86 ℃ | 74.46 % | 1032.3 hPa |
| 2026-04-30 03:00:10 | 13.65 ℃ | 74 % | 1032.3 hPa |
| 2026-04-30 02:50:10 | 14.02 ℃ | 69.67 % | 1032.26 hPa |
| 2026-04-30 02:40:11 | 14.56 ℃ | 66.33 % | 1032.22 hPa |
| 2026-04-30 02:30:10 | 15.08 ℃ | 62.8 % | 1032.17 hPa |
| 2026-04-30 02:20:10 | 15.31 ℃ | 61.23 % | 1032.13 hPa |
| 2026-04-30 02:10:10 | 15.54 ℃ | 59.78 % | 1032.11 hPa |
| 2026-04-30 02:00:10 | 15.54 ℃ | 58.27 % | 1032.1 hPa |
| 2026-04-30 01:50:10 | 15.61 ℃ | 55.95 % | 1032.09 hPa |
| 2026-04-30 01:40:10 | 15.72 ℃ | 55.45 % | 1032.09 hPa |
| 2026-04-30 01:30:10 | 15.82 ℃ | 55.64 % | 1032.03 hPa |
| 2026-04-30 01:20:10 | 15.62 ℃ | 57.01 % | 1031.98 hPa |
| 2026-04-30 01:10:10 | 15.39 ℃ | 58.16 % | 1031.93 hPa |
| 2026-04-30 01:00:10 | 15.36 ℃ | 59.74 % | 1031.9 hPa |
| 2026-04-30 00:50:11 | 15.69 ℃ | 61.17 % | 1031.88 hPa |
| 2026-04-30 00:40:10 | 16.09 ℃ | 62.18 % | 1031.84 hPa |
| 2026-04-30 00:30:10 | 16.69 ℃ | 62.44 % | 1031.76 hPa |
| 2026-04-30 00:20:10 | 16.76 ℃ | 62.81 % | 1031.74 hPa |
| 2026-04-30 00:10:10 | 16.77 ℃ | 63.59 % | 1031.71 hPa |
| 2026-04-30 00:00:10 | 16.6 ℃ | 63.89 % | 1031.71 hPa |
| 2026-04-29 23:50:10 | 16.66 ℃ | 62.56 % | 1031.72 hPa |
| 2026-04-29 23:40:12 | 17.04 ℃ | 60.13 % | 1031.69 hPa |
| 2026-04-29 23:30:10 | 16.99 ℃ | 59.2 % | 1031.69 hPa |
| 2026-04-29 23:20:10 | 17.11 ℃ | 58.35 % | 1031.66 hPa |
| 2026-04-29 23:10:11 | 17 ℃ | 58.59 % | 1031.66 hPa |
| 2026-04-29 23:00:10 | 17.01 ℃ | 58.95 % | 1031.67 hPa |
| 2026-04-29 22:50:11 | 16.81 ℃ | 59.55 % | 1031.63 hPa |
| 2026-04-29 22:40:10 | 17.11 ℃ | 57.87 % | 1031.61 hPa |
| 2026-04-29 22:30:10 | 17.03 ℃ | 57.71 % | 1031.6 hPa |
| 2026-04-29 22:20:10 | 16.62 ℃ | 57.74 % | 1031.58 hPa |
| 2026-04-29 22:10:10 | 16.15 ℃ | 58 % | 1031.6 hPa |
| 2026-04-29 22:00:10 | 16.08 ℃ | 57.29 % | 1031.6 hPa |
| 2026-04-29 21:50:10 | 15.89 ℃ | 57.04 % | 1031.55 hPa |
| 2026-04-29 21:40:10 | 16.04 ℃ | 55.93 % | 1031.48 hPa |
| 2026-04-29 21:30:10 | 16.19 ℃ | 55.12 % | 1031.42 hPa |
| 2026-04-29 21:20:10 | 16.57 ℃ | 53.81 % | 1031.3 hPa |
| 2026-04-29 21:10:10 | 17.01 ℃ | 52.72 % | 1031.25 hPa |
| 2026-04-29 21:00:10 | 16.76 ℃ | 52.24 % | 1031.19 hPa |
| 2026-04-29 20:50:10 | 16.65 ℃ | 51.68 % | 1031.1 hPa |
| 2026-04-29 20:40:10 | 16.64 ℃ | 51.35 % | 1031.03 hPa |
| 2026-04-29 20:30:10 | 17.05 ℃ | 50.9 % | 1030.95 hPa |
| 2026-04-29 20:20:10 | 16.94 ℃ | 50.82 % | 1030.93 hPa |
| 2026-04-29 20:10:10 | 16.79 ℃ | 50.89 % | 1030.95 hPa |
| 2026-04-29 20:00:10 | 17 ℃ | 51.33 % | 1030.94 hPa |
| 2026-04-29 19:50:10 | 16.73 ℃ | 51.98 % | 1030.94 hPa |
| 2026-04-29 19:40:10 | 16.56 ℃ | 52.15 % | 1030.96 hPa |
| 2026-04-29 19:30:10 | 16.44 ℃ | 52.11 % | 1030.96 hPa |
| 2026-04-29 19:20:10 | 16.49 ℃ | 51.93 % | 1030.91 hPa |
| 2026-04-29 19:10:10 | 16.32 ℃ | 51.85 % | 1030.93 hPa |
| 2026-04-29 19:00:10 | 16.45 ℃ | 51.44 % | 1030.88 hPa |
| 2026-04-29 18:50:10 | 16.48 ℃ | 51.95 % | 1030.89 hPa |
| 2026-04-29 18:40:10 | 16.8 ℃ | 51.48 % | 1030.9 hPa |
| 2026-04-29 18:30:10 | 16.61 ℃ | 52.19 % | 1030.91 hPa |
| 2026-04-29 18:20:12 | 16.38 ℃ | 52.15 % | 1030.91 hPa |
| 2026-04-29 18:10:10 | 16.71 ℃ | 53.7 % | 1030.87 hPa |
| 2026-04-29 18:00:10 | 16.37 ℃ | 55.4 % | 1030.9 hPa |
| 2026-04-29 17:50:11 | 16.55 ℃ | 55.57 % | 1030.87 hPa |
| 2026-04-29 17:40:10 | 16.53 ℃ | 56.21 % | 1030.86 hPa |
| 2026-04-29 17:30:10 | 16.38 ℃ | 56.98 % | 1030.88 hPa |
| 2026-04-29 17:20:10 | 16.43 ℃ | 58.32 % | 1030.9 hPa |
| 2026-04-29 17:10:11 | 15.98 ℃ | 59.06 % | 1030.93 hPa |
| 2026-04-29 16:50:10 | 16.11 ℃ | 64.28 % | 1031.01 hPa |
| 2026-04-29 16:40:10 | 16.2 ℃ | 65.34 % | 1031.02 hPa |
| 2026-04-29 16:30:10 | 16.02 ℃ | 65.17 % | 1031.08 hPa |
| 2026-04-29 16:20:10 | 15.86 ℃ | 65.74 % | 1031.17 hPa |
| 2026-04-29 16:10:11 | 15.71 ℃ | 64.72 % | 1031.22 hPa |
| 2026-04-29 16:00:10 | 15.64 ℃ | 65.19 % | 1031.29 hPa |
| 2026-04-29 15:50:11 | 15.85 ℃ | 64.42 % | 1031.28 hPa |
| 2026-04-29 15:40:12 | 15.97 ℃ | 63.97 % | 1031.29 hPa |
| 2026-04-29 15:30:11 | 16.25 ℃ | 63.12 % | 1031.25 hPa |
| 2026-04-29 15:20:11 | 16.18 ℃ | 62.75 % | 1031.26 hPa |
| 2026-04-29 15:10:11 | 16.07 ℃ | 60.88 % | 1031.31 hPa |
| 2026-04-29 15:00:11 | 15.49 ℃ | 59.95 % | 1031.37 hPa |
| 2026-04-29 14:50:11 | 15.25 ℃ | 60.83 % | 1031.42 hPa |
| 2026-04-29 14:40:11 | 14.94 ℃ | 62.18 % | 1031.36 hPa |
| 2026-04-29 14:30:11 | 15.3 ℃ | 61.31 % | 1031.33 hPa |
| 2026-04-29 14:20:11 | 15.34 ℃ | 64.19 % | 1031.31 hPa |
| 2026-04-29 14:10:11 | 15.55 ℃ | 65.55 % | 1031.3 hPa |
| 2026-04-29 14:00:11 | 15.36 ℃ | 69.81 % | 1031.33 hPa |
| 2026-04-29 13:50:11 | 14.98 ℃ | 72.78 % | 1031.32 hPa |
| 2026-04-29 13:40:11 | 15.09 ℃ | 74.73 % | 1031.34 hPa |
| 2026-04-29 13:30:11 | 14.91 ℃ | 73.35 % | 1031.38 hPa |
| 2026-04-29 13:20:11 | 15.02 ℃ | 75.08 % | 1031.37 hPa |
| 2026-04-29 13:10:11 | 14.96 ℃ | 73.23 % | 1031.38 hPa |
| 2026-04-29 13:00:11 | 15.13 ℃ | 72.05 % | 1031.41 hPa |
| 2026-04-29 12:50:11 | 15.09 ℃ | 68.86 % | 1031.4 hPa |
| 2026-04-29 12:40:11 | 14.82 ℃ | 68.12 % | 1031.4 hPa |
| 2026-04-29 12:30:11 | 15.19 ℃ | 65.37 % | 1031.41 hPa |
| 2026-04-29 12:20:11 | 15.11 ℃ | 63.43 % | 1031.42 hPa |
| 2026-04-29 12:10:11 | 14.85 ℃ | 62.37 % | 1031.46 hPa |
| 2026-04-29 12:00:11 | 14.54 ℃ | 61.51 % | 1031.52 hPa |
| 2026-04-29 11:50:11 | 14.52 ℃ | 61.04 % | 1031.43 hPa |
| 2026-04-29 11:40:11 | 14.28 ℃ | 61.44 % | 1031.42 hPa |
| 2026-04-29 11:30:11 | 14.05 ℃ | 62.91 % | 1031.45 hPa |
| 2026-04-29 11:20:11 | 14.01 ℃ | 63.63 % | 1031.46 hPa |
| 2026-04-29 11:10:11 | 13.72 ℃ | 64.73 % | 1031.46 hPa |
| 2026-04-29 11:00:11 | 13.82 ℃ | 66.48 % | 1031.46 hPa |
| 2026-04-29 10:50:11 | 13.8 ℃ | 64.5 % | 1031.42 hPa |
| 2026-04-29 10:40:11 | 13.63 ℃ | 58.52 % | 1031.35 hPa |
| 2026-04-29 10:30:12 | 13.68 ℃ | 61 % | 1031.35 hPa |
| 2026-04-29 10:20:11 | 13.49 ℃ | 67.02 % | 1031.29 hPa |
| 2026-04-29 10:10:11 | 13.3 ℃ | 71.9 % | 1031.24 hPa |
| 2026-04-29 10:00:11 | 13.96 ℃ | 84.75 % | 1031.16 hPa |
| 2026-04-29 09:50:11 | 13.91 ℃ | 86.85 % | 1031.09 hPa |
| 2026-04-29 09:40:11 | 13.69 ℃ | 96.82 % | 1031 hPa |
| 2026-04-29 09:30:11 | 13.09 ℃ | 100 % | 1030.94 hPa |
| 2026-04-29 09:20:11 | 12.78 ℃ | 100 % | 1030.93 hPa |
| 2026-04-29 09:10:11 | 12.74 ℃ | 100 % | 1030.89 hPa |
| 2026-04-29 09:00:11 | 12.78 ℃ | 100 % | 1030.81 hPa |
| 2026-04-29 08:50:11 | 12.98 ℃ | 100 % | 1030.78 hPa |
| 2026-04-29 08:40:11 | 12.46 ℃ | 100 % | 1030.81 hPa |
| 2026-04-29 08:30:11 | 12.7 ℃ | 100 % | 1030.78 hPa |
| 2026-04-29 08:20:11 | 12.5 ℃ | 100 % | 1030.77 hPa |
| 2026-04-29 08:10:11 | 12.08 ℃ | 100 % | 1030.79 hPa |
| 2026-04-29 04:57:34 | 12.02 ℃ | 100 % | 1029.84 hPa |
| 2026-04-29 04:47:34 | 11.9 ℃ | 100 % | 1029.8 hPa |
| 2026-04-29 04:37:34 | 11.58 ℃ | 100 % | 1029.76 hPa |
| 2026-04-29 04:27:34 | 11.19 ℃ | 100 % | 1029.75 hPa |
| 2026-04-29 04:17:34 | 11.5 ℃ | 100 % | 1029.71 hPa |
| 2026-04-29 04:07:34 | 12.05 ℃ | 100 % | 1029.66 hPa |
| 2026-04-29 03:57:34 | 12 ℃ | 100 % | 1029.62 hPa |
| 2026-04-29 03:47:34 | 11.66 ℃ | 100 % | 1029.57 hPa |
| 2026-04-29 03:37:34 | 11.84 ℃ | 100 % | 1029.54 hPa |
| 2026-04-29 03:27:34 | 12.35 ℃ | 100 % | 1029.56 hPa |
| 2026-04-29 03:17:34 | 12.85 ℃ | 100 % | 1029.53 hPa |
| 2026-04-29 03:07:34 | 13.19 ℃ | 100 % | 1029.49 hPa |
| 2026-04-29 02:57:34 | 13.41 ℃ | 100 % | 1029.5 hPa |
| 2026-04-29 02:47:34 | 13.26 ℃ | 100 % | 1029.53 hPa |
| 2026-04-29 02:37:34 | 13.17 ℃ | 100 % | 1029.56 hPa |
| 2026-04-29 02:27:34 | 12.52 ℃ | 100 % | 1029.59 hPa |
| 2026-04-29 02:17:34 | 12.38 ℃ | 100 % | 1029.63 hPa |
| 2026-04-29 02:07:34 | 12.72 ℃ | 100 % | 1029.61 hPa |
| 2026-04-29 01:57:34 | 12.6 ℃ | 100 % | 1029.61 hPa |
| 2026-04-29 01:47:34 | 12.22 ℃ | 100 % | 1029.69 hPa |
| 2026-04-29 01:37:34 | 12.16 ℃ | 100 % | 1029.65 hPa |
| 2026-04-29 01:27:34 | 12.46 ℃ | 100 % | 1029.55 hPa |
| 2026-04-29 01:17:34 | 12.39 ℃ | 100 % | 1029.44 hPa |
| 2026-04-29 01:07:34 | 12.22 ℃ | 99.99 % | 1029.38 hPa |
| 2026-04-29 00:57:34 | 12.24 ℃ | 99.99 % | 1029.32 hPa |
| 2026-04-29 00:47:35 | 12.13 ℃ | 99.98 % | 1029.29 hPa |
| 2026-04-29 00:37:34 | 11.39 ℃ | 99.96 % | 1029.28 hPa |
| 2026-04-29 00:27:34 | 11.3 ℃ | 99.91 % | 1029.22 hPa |
| 2026-04-29 00:17:34 | 11.56 ℃ | 99.82 % | 1029.14 hPa |
| 2026-04-29 00:07:35 | 11.75 ℃ | 99.64 % | 1029.11 hPa |
| 2026-04-28 23:57:35 | 11.97 ℃ | 99.29 % | 1029.06 hPa |
| 2026-04-28 23:47:35 | 11.6 ℃ | 98.58 % | 1029 hPa |
| 2026-04-28 23:37:35 | 11.87 ℃ | 97.15 % | 1028.98 hPa |
| 2026-04-28 23:27:35 | 11.97 ℃ | 94.31 % | 1028.95 hPa |
| 2026-04-28 23:17:35 | 12.12 ℃ | 88.62 % | 1028.86 hPa |
| 2026-04-28 23:07:35 | 12.38 ℃ | 82.42 % | 1028.76 hPa |
| 2026-04-28 22:57:35 | 12.16 ℃ | 81.43 % | 1028.66 hPa |
| 2026-04-28 22:47:35 | 12.38 ℃ | 79.01 % | 1028.59 hPa |
| 2026-04-28 22:37:35 | 12.38 ℃ | 76.13 % | 1028.56 hPa |
| 2026-04-28 22:27:36 | 12.44 ℃ | 71.76 % | 1028.51 hPa |
| 2026-04-28 22:17:35 | 12.59 ℃ | 67.48 % | 1028.46 hPa |
| 2026-04-28 22:07:35 | 12.56 ℃ | 65.32 % | 1028.47 hPa |
| 2026-04-28 21:57:35 | 12.68 ℃ | 65.67 % | 1028.46 hPa |
| 2026-04-28 21:47:35 | 12.5 ℃ | 68.21 % | 1028.55 hPa |
| 2026-04-28 21:37:35 | 12.74 ℃ | 69.46 % | 1028.48 hPa |
| 2026-04-28 21:27:35 | 12.84 ℃ | 66.28 % | 1028.46 hPa |
| 2026-04-28 21:17:35 | 13.03 ℃ | 63.54 % | 1028.44 hPa |
| 2026-04-28 21:07:35 | 13.08 ℃ | 62.22 % | 1028.39 hPa |
| 2026-04-28 20:57:35 | 13.19 ℃ | 60.99 % | 1028.33 hPa |
| 2026-04-28 20:47:35 | 13.35 ℃ | 60.06 % | 1028.26 hPa |
| 2026-04-28 20:37:35 | 13.43 ℃ | 59.23 % | 1028.22 hPa |
| 2026-04-28 20:27:35 | 13.46 ℃ | 58.37 % | 1028.16 hPa |
| 2026-04-28 20:17:35 | 13.54 ℃ | 57.34 % | 1028.17 hPa |
| 2026-04-28 20:07:35 | 13.75 ℃ | 55.93 % | 1028.15 hPa |
| 2026-04-28 19:57:35 | 13.99 ℃ | 54.79 % | 1028.13 hPa |
| 2026-04-28 19:47:35 | 14.16 ℃ | 53.73 % | 1028.14 hPa |
| 2026-04-28 19:37:35 | 14.11 ℃ | 52.48 % | 1028.14 hPa |
| 2026-04-28 19:27:35 | 14.44 ℃ | 51.14 % | 1028.06 hPa |
| 2026-04-28 19:17:35 | 14.49 ℃ | 50.38 % | 1028.04 hPa |
| 2026-04-28 19:07:35 | 14.77 ℃ | 49.73 % | 1028.02 hPa |
| 2026-04-28 18:57:36 | 14.81 ℃ | 49.32 % | 1028.05 hPa |
| 2026-04-28 18:47:35 | 14.69 ℃ | 49.14 % | 1028.04 hPa |
| 2026-04-28 18:37:35 | 14.64 ℃ | 48.65 % | 1028.05 hPa |
| 2026-04-28 18:27:35 | 14.44 ℃ | 48.13 % | 1028.09 hPa |
| 2026-04-28 18:17:35 | 14.54 ℃ | 47.82 % | 1027.98 hPa |
| 2026-04-28 18:07:35 | 14.97 ℃ | 46.77 % | 1028 hPa |
| 2026-04-28 17:57:35 | 14.73 ℃ | 46.38 % | 1028.08 hPa |
| 2026-04-28 17:47:35 | 14.57 ℃ | 48.15 % | 1028.15 hPa |
| 2026-04-28 17:37:35 | 14.9 ℃ | 50.08 % | 1028.27 hPa |
| 2026-04-28 17:27:35 | 14.96 ℃ | 52.74 % | 1028.22 hPa |
| 2026-04-28 17:17:36 | 15.01 ℃ | 55.35 % | 1028.29 hPa |
| 2026-04-28 17:07:35 | 15.15 ℃ | 56.15 % | 1028.3 hPa |
| 2026-04-28 16:57:36 | 15.39 ℃ | 56.15 % | 1028.38 hPa |
| 2026-04-28 16:47:35 | 15.38 ℃ | 57.15 % | 1028.42 hPa |
| 2026-04-28 16:37:35 | 15.41 ℃ | 57.75 % | 1028.49 hPa |
| 2026-04-28 16:27:35 | 15.18 ℃ | 58.45 % | 1028.59 hPa |
| 2026-04-28 16:17:35 | 15.04 ℃ | 58.59 % | 1028.62 hPa |
| 2026-04-28 16:07:35 | 14.63 ℃ | 58.54 % | 1028.66 hPa |
| 2026-04-28 15:57:36 | 14.57 ℃ | 59.69 % | 1028.69 hPa |
| 2026-04-28 15:47:35 | 14.5 ℃ | 63.04 % | 1028.77 hPa |
| 2026-04-28 15:37:35 | 14.28 ℃ | 64.75 % | 1028.78 hPa |
| 2026-04-28 15:27:35 | 14.79 ℃ | 65.14 % | 1028.73 hPa |
| 2026-04-28 15:17:36 | 14.74 ℃ | 66.25 % | 1028.75 hPa |
| 2026-04-28 15:07:36 | 14.7 ℃ | 68.18 % | 1028.76 hPa |
| 2026-04-28 14:57:37 | 14.94 ℃ | 71.32 % | 1028.76 hPa |
| 2026-04-28 14:47:35 | 15 ℃ | 73.8 % | 1028.79 hPa |
| 2026-04-28 14:37:35 | 14.96 ℃ | 76.68 % | 1028.86 hPa |
| 2026-04-28 14:27:35 | 15.13 ℃ | 80.52 % | 1028.86 hPa |
| 2026-04-28 14:17:36 | 14.64 ℃ | 81.37 % | 1028.88 hPa |
| 2026-04-28 14:07:35 | 14.68 ℃ | 81.65 % | 1028.84 hPa |
| 2026-04-28 13:57:36 | 14.77 ℃ | 87.42 % | 1028.88 hPa |
| 2026-04-28 13:47:35 | 14.51 ℃ | 91.14 % | 1028.96 hPa |
| 2026-04-28 13:37:35 | 14.64 ℃ | 94.96 % | 1028.94 hPa |
| 2026-04-28 13:27:35 | 14.67 ℃ | 98.06 % | 1028.93 hPa |
| 2026-04-28 13:17:36 | 14.23 ℃ | 99.69 % | 1028.99 hPa |
| 2026-04-28 13:07:36 | 13.94 ℃ | 99.39 % | 1029.04 hPa |
| 2026-04-28 12:57:36 | 13.61 ℃ | 98.78 % | 1028.99 hPa |
| 2026-04-28 12:47:35 | 13.73 ℃ | 97.56 % | 1029 hPa |
| 2026-04-28 12:37:36 | 13.67 ℃ | 95.12 % | 1028.95 hPa |
| 2026-04-28 12:27:36 | 13.76 ℃ | 90.24 % | 1028.91 hPa |
| 2026-04-28 12:17:36 | 14.01 ℃ | 80.85 % | 1028.84 hPa |
| 2026-04-28 12:07:36 | 14.84 ℃ | 66.78 % | 1028.73 hPa |
| 2026-04-28 11:57:36 | 14.62 ℃ | 65.04 % | 1028.72 hPa |
| 2026-04-28 11:47:36 | 14.2 ℃ | 70.4 % | 1028.79 hPa |
| 2026-04-28 11:37:36 | 14.23 ℃ | 74.96 % | 1028.83 hPa |
| 2026-04-28 11:27:36 | 13.79 ℃ | 79.89 % | 1028.91 hPa |
| 2026-04-28 11:17:36 | 14.45 ℃ | 91.1 % | 1028.85 hPa |
| 2026-04-28 11:07:36 | 14.19 ℃ | 100 % | 1028.83 hPa |
| 2026-04-28 10:57:36 | 14.01 ℃ | 100 % | 1028.74 hPa |
| 2026-04-28 10:47:36 | 14 ℃ | 100 % | 1028.74 hPa |
| 2026-04-28 10:37:36 | 14.25 ℃ | 100 % | 1028.71 hPa |
| 2026-04-28 10:27:36 | 14.05 ℃ | 100 % | 1028.68 hPa |
| 2026-04-28 10:17:36 | 13.81 ℃ | 100 % | 1028.6 hPa |
| 2026-04-28 10:07:36 | 13.54 ℃ | 100 % | 1028.55 hPa |
| 2026-04-28 09:57:36 | 13.4 ℃ | 100 % | 1028.5 hPa |
| 2026-04-28 09:47:36 | 13.64 ℃ | 100 % | 1028.41 hPa |
| 2026-04-28 09:37:36 | 13.46 ℃ | 100 % | 1028.32 hPa |
| 2026-04-28 09:27:36 | 13.28 ℃ | 100 % | 1028.26 hPa |
| 2026-04-28 09:17:36 | 12.62 ℃ | 100 % | 1028.22 hPa |
| 2026-04-28 09:07:36 | 12.68 ℃ | 100 % | 1028.17 hPa |
| 2026-04-28 08:57:36 | 12.41 ℃ | 100 % | 1028.2 hPa |
| 2026-04-28 08:47:36 | 12.05 ℃ | 100 % | 1028.18 hPa |
| 2026-04-28 08:37:36 | 11.88 ℃ | 100 % | 1028.17 hPa |
| 2026-04-28 08:27:36 | 11.58 ℃ | 100 % | 1028.14 hPa |
| 2026-04-28 08:17:36 | 11.65 ℃ | 100 % | 1028.03 hPa |
| 2026-04-28 08:07:36 | 11.63 ℃ | 100 % | 1027.95 hPa |
| 2026-04-28 07:57:36 | 11.46 ℃ | 100 % | 1027.88 hPa |
| 2026-04-28 07:47:36 | 11.17 ℃ | 100 % | 1027.84 hPa |
| 2026-04-28 07:37:36 | 11.29 ℃ | 100 % | 1027.73 hPa |
| 2026-04-28 07:27:36 | 11.56 ℃ | 100 % | 1027.65 hPa |
| 2026-04-28 07:17:36 | 11.41 ℃ | 100 % | 1027.63 hPa |
| 2026-04-28 07:07:36 | 11.78 ℃ | 100 % | 1027.57 hPa |
| 2026-04-28 06:57:36 | 11.4 ℃ | 100 % | 1027.48 hPa |
| 2026-04-28 06:47:37 | 11.92 ℃ | 100 % | 1027.37 hPa |
| 2026-04-28 06:37:36 | 11.68 ℃ | 100 % | 1027.33 hPa |
| 2026-04-28 06:27:36 | 11.11 ℃ | 100 % | 1027.33 hPa |
| 2026-04-28 06:17:36 | 10.79 ℃ | 100 % | 1027.34 hPa |
| 2026-04-28 06:07:36 | 10.22 ℃ | 100 % | 1027.35 hPa |
| 2026-04-28 05:57:36 | 10.41 ℃ | 100 % | 1027.31 hPa |
| 2026-04-28 05:47:36 | 9.96 ℃ | 100 % | 1027.35 hPa |
| 2026-04-28 05:37:36 | 9.95 ℃ | 100 % | 1027.36 hPa |
| 2026-04-28 05:27:36 | 10.14 ℃ | 100 % | 1027.28 hPa |
| 2026-04-28 05:17:36 | 10.04 ℃ | 100 % | 1027.21 hPa |
| 2026-04-28 05:07:36 | 10.23 ℃ | 100 % | 1027.16 hPa |
| 2026-04-28 04:57:36 | 10.21 ℃ | 100 % | 1027.07 hPa |
| 2026-04-28 04:47:36 | 10.19 ℃ | 100 % | 1026.99 hPa |
| 2026-04-28 04:37:36 | 10.07 ℃ | 100 % | 1026.97 hPa |
| 2026-04-28 04:27:36 | 10.09 ℃ | 100 % | 1026.94 hPa |
| 2026-04-28 04:17:36 | 10.12 ℃ | 100 % | 1026.88 hPa |
| 2026-04-28 04:07:36 | 9.75 ℃ | 100 % | 1026.82 hPa |
| 2026-04-28 03:57:36 | 9.6 ℃ | 100 % | 1026.75 hPa |
| 2026-04-28 03:47:36 | 9.86 ℃ | 100 % | 1026.63 hPa |
| 2026-04-28 03:37:36 | 9.8 ℃ | 100 % | 1026.55 hPa |
| 2026-04-28 03:27:36 | 10.03 ℃ | 100 % | 1026.43 hPa |
| 2026-04-28 03:17:36 | 10.26 ℃ | 100 % | 1026.3 hPa |
| 2026-04-28 03:07:37 | 10.32 ℃ | 100 % | 1026.3 hPa |
| 2026-04-28 02:57:36 | 10.64 ℃ | 100 % | 1026.24 hPa |
| 2026-04-28 02:47:36 | 10.91 ℃ | 100 % | 1026.21 hPa |
| 2026-04-28 02:37:36 | 10.86 ℃ | 100 % | 1026.24 hPa |
| 2026-04-28 02:27:37 | 10.7 ℃ | 100 % | 1026.22 hPa |
| 2026-04-28 02:17:37 | 10.61 ℃ | 100 % | 1026.19 hPa |
| 2026-04-28 02:07:36 | 10.63 ℃ | 100 % | 1026.15 hPa |
| 2026-04-28 01:57:36 | 10.75 ℃ | 100 % | 1026.07 hPa |
| 2026-04-28 01:47:37 | 10.74 ℃ | 100 % | 1026.03 hPa |
| 2026-04-28 01:37:37 | 10.56 ℃ | 100 % | 1026 hPa |
| 2026-04-28 01:27:37 | 10.68 ℃ | 100 % | 1025.95 hPa |
| 2026-04-28 01:17:37 | 10.75 ℃ | 100 % | 1025.93 hPa |
| 2026-04-28 01:07:37 | 10.91 ℃ | 100 % | 1025.91 hPa |
| 2026-04-28 00:57:37 | 11.07 ℃ | 100 % | 1025.9 hPa |
| 2026-04-28 00:47:37 | 11.24 ℃ | 100 % | 1025.86 hPa |
| 2026-04-28 00:37:37 | 11.66 ℃ | 100 % | 1025.81 hPa |
| 2026-04-28 00:27:37 | 11.61 ℃ | 100 % | 1025.8 hPa |
| 2026-04-28 00:17:37 | 11.54 ℃ | 100 % | 1025.76 hPa |
| 2026-04-28 00:07:37 | 11.66 ℃ | 100 % | 1025.76 hPa |
| 2026-04-27 23:57:37 | 11.8 ℃ | 100 % | 1025.76 hPa |
| 2026-04-27 23:47:37 | 11.93 ℃ | 100 % | 1025.76 hPa |
| 2026-04-27 23:37:37 | 12.33 ℃ | 100 % | 1025.72 hPa |
| 2026-04-27 23:27:37 | 12.14 ℃ | 100 % | 1025.7 hPa |
| 2026-04-27 23:17:37 | 12.51 ℃ | 100 % | 1025.65 hPa |
| 2026-04-27 23:07:37 | 12.06 ℃ | 100 % | 1025.65 hPa |
| 2026-04-27 22:57:37 | 11.99 ℃ | 100 % | 1025.65 hPa |
| 2026-04-27 22:47:37 | 11.88 ℃ | 100 % | 1025.64 hPa |
| 2026-04-27 22:37:37 | 12 ℃ | 100 % | 1025.58 hPa |
| 2026-04-27 22:27:37 | 11.55 ℃ | 100 % | 1025.53 hPa |
| 2026-04-27 22:17:37 | 11.75 ℃ | 100 % | 1025.47 hPa |
| 2026-04-27 22:07:37 | 11.72 ℃ | 100 % | 1025.41 hPa |
| 2026-04-27 21:57:37 | 11.99 ℃ | 100 % | 1025.37 hPa |
| 2026-04-27 21:47:37 | 11.93 ℃ | 100 % | 1025.34 hPa |
| 2026-04-27 21:37:37 | 11.83 ℃ | 100 % | 1025.29 hPa |
| 2026-04-27 21:27:37 | 11.65 ℃ | 100 % | 1025.28 hPa |
| 2026-04-27 21:17:37 | 11.96 ℃ | 100 % | 1025.28 hPa |
| 2026-04-27 21:07:37 | 11.96 ℃ | 100 % | 1025.22 hPa |
| 2026-04-27 20:57:37 | 12.11 ℃ | 100 % | 1025.08 hPa |
| 2026-04-27 20:47:37 | 11.95 ℃ | 100 % | 1024.98 hPa |
| 2026-04-27 20:37:37 | 11.92 ℃ | 100 % | 1024.86 hPa |
| 2026-04-27 20:27:37 | 12.16 ℃ | 100 % | 1024.84 hPa |
| 2026-04-27 20:17:37 | 12.34 ℃ | 100 % | 1024.82 hPa |
| 2026-04-27 20:07:37 | 12.44 ℃ | 100 % | 1024.73 hPa |
| 2026-04-27 19:57:37 | 12.51 ℃ | 100 % | 1024.73 hPa |
| 2026-04-27 19:47:37 | 12.72 ℃ | 100 % | 1024.72 hPa |
| 2026-04-27 19:37:37 | 12.71 ℃ | 100 % | 1024.72 hPa |
| 2026-04-27 19:27:38 | 12.91 ℃ | 99.99 % | 1024.67 hPa |
| 2026-04-27 19:17:37 | 13.02 ℃ | 99.98 % | 1024.61 hPa |
| 2026-04-27 19:07:37 | 12.89 ℃ | 99.97 % | 1024.56 hPa |
| 2026-04-27 18:57:37 | 12.98 ℃ | 99.94 % | 1024.5 hPa |
| 2026-04-27 18:47:37 | 13.06 ℃ | 99.88 % | 1024.46 hPa |
| 2026-04-27 18:37:37 | 13.12 ℃ | 99.75 % | 1024.5 hPa |
| 2026-04-27 18:27:37 | 12.95 ℃ | 99.5 % | 1024.53 hPa |
| 2026-04-27 18:17:37 | 13.05 ℃ | 99.01 % | 1024.53 hPa |
| 2026-04-27 18:07:38 | 13.17 ℃ | 98.02 % | 1024.5 hPa |
| 2026-04-27 17:57:37 | 12.84 ℃ | 96.03 % | 1024.51 hPa |
| 2026-04-27 17:47:37 | 13.12 ℃ | 92.07 % | 1024.48 hPa |
| 2026-04-27 17:37:37 | 13.33 ℃ | 86.48 % | 1024.46 hPa |
| 2026-04-27 17:27:37 | 13.22 ℃ | 81.08 % | 1024.54 hPa |
| 2026-04-27 17:17:37 | 13.75 ℃ | 70.71 % | 1024.61 hPa |
| 2026-04-27 17:07:37 | 13.58 ℃ | 66.88 % | 1024.68 hPa |
| 2026-04-27 16:57:37 | 14.18 ℃ | 64.49 % | 1024.76 hPa |
| 2026-04-27 16:47:38 | 13.94 ℃ | 61.4 % | 1024.86 hPa |
| 2026-04-27 16:37:38 | 14.2 ℃ | 52.97 % | 1024.91 hPa |
| 2026-04-27 16:27:38 | 13.87 ℃ | 44.28 % | 1025.01 hPa |
| 2026-04-27 16:17:37 | 13.54 ℃ | 45.23 % | 1025.1 hPa |
| 2026-04-27 16:07:38 | 13.28 ℃ | 54 % | 1025.17 hPa |
| 2026-04-27 15:57:38 | 13.09 ℃ | 63.33 % | 1025.23 hPa |
| 2026-04-27 15:47:37 | 13.3 ℃ | 72.75 % | 1025.28 hPa |
| 2026-04-27 15:37:37 | 12.71 ℃ | 77.75 % | 1025.32 hPa |
| 2026-04-27 15:27:37 | 13.15 ℃ | 85.2 % | 1025.32 hPa |
| 2026-04-27 15:17:38 | 12.3 ℃ | 92.48 % | 1025.42 hPa |
| 2026-04-27 15:07:37 | 12.33 ℃ | 96.32 % | 1025.39 hPa |
| 2026-04-27 14:57:38 | 11.67 ℃ | 100 % | 1025.5 hPa |
| 2026-04-27 14:47:38 | 12.08 ℃ | 100 % | 1025.53 hPa |
| 2026-04-27 14:37:38 | 11.75 ℃ | 100 % | 1025.64 hPa |
| 2026-04-27 14:27:38 | 11.62 ℃ | 100 % | 1025.67 hPa |
| 2026-04-27 14:17:38 | 11.48 ℃ | 100 % | 1025.74 hPa |
| 2026-04-27 14:07:38 | 11.17 ℃ | 100 % | 1025.77 hPa |
| 2026-04-27 13:57:38 | 11.27 ℃ | 100 % | 1025.78 hPa |
| 2026-04-27 13:47:38 | 11.45 ℃ | 100 % | 1025.76 hPa |
| 2026-04-27 13:37:38 | 11.81 ℃ | 100 % | 1025.74 hPa |
| 2026-04-27 13:27:38 | 11.99 ℃ | 100 % | 1025.68 hPa |
| 2026-04-27 13:17:38 | 12.04 ℃ | 100 % | 1025.68 hPa |
| 2026-04-27 13:07:38 | 12.06 ℃ | 100 % | 1025.67 hPa |
| 2026-04-27 12:57:38 | 11.58 ℃ | 100 % | 1025.71 hPa |
| 2026-04-27 12:47:38 | 11.04 ℃ | 100 % | 1025.76 hPa |
| 2026-04-27 12:37:38 | 11.42 ℃ | 100 % | 1025.8 hPa |
| 2026-04-27 12:27:38 | 11.44 ℃ | 100 % | 1025.8 hPa |
| 2026-04-27 12:17:38 | 11.4 ℃ | 100 % | 1025.82 hPa |
| 2026-04-27 12:07:38 | 10.67 ℃ | 100 % | 1025.81 hPa |
| 2026-04-27 11:57:38 | 10.87 ℃ | 100 % | 1025.79 hPa |
| 2026-04-27 11:47:38 | 11.09 ℃ | 100 % | 1025.77 hPa |
| 2026-04-27 11:37:38 | 11.16 ℃ | 100 % | 1025.78 hPa |
| 2026-04-27 11:27:38 | 10.74 ℃ | 100 % | 1025.79 hPa |
| 2026-04-27 11:17:38 | 10.92 ℃ | 100 % | 1025.75 hPa |
| 2026-04-27 11:07:38 | 10.71 ℃ | 100 % | 1025.73 hPa |
| 2026-04-27 10:57:38 | 11.35 ℃ | 100 % | 1025.67 hPa |
| 2026-04-27 10:47:38 | 11.18 ℃ | 100 % | 1025.67 hPa |
| 2026-04-27 10:37:38 | 11.1 ℃ | 100 % | 1025.73 hPa |
| 2026-04-27 10:27:38 | 11 ℃ | 100 % | 1025.8 hPa |
| 2026-04-27 10:17:38 | 10.84 ℃ | 100 % | 1025.83 hPa |
| 2026-04-27 10:07:38 | 11.38 ℃ | 100 % | 1025.82 hPa |
| 2026-04-27 09:57:38 | 11.04 ℃ | 100 % | 1025.87 hPa |
| 2026-04-27 09:47:38 | 10.92 ℃ | 100 % | 1025.84 hPa |
| 2026-04-27 09:37:38 | 10.92 ℃ | 100 % | 1025.81 hPa |
| 2026-04-27 09:27:38 | 10.74 ℃ | 100 % | 1025.78 hPa |
| 2026-04-27 09:17:38 | 11.24 ℃ | 100 % | 1025.77 hPa |
| 2026-04-27 09:07:38 | 10.98 ℃ | 100 % | 1025.75 hPa |
| 2026-04-27 08:57:38 | 11.39 ℃ | 100 % | 1025.72 hPa |
| 2026-04-27 08:47:38 | 10.9 ℃ | 100 % | 1025.71 hPa |
| 2026-04-27 08:37:38 | 10.23 ℃ | 100 % | 1025.74 hPa |
| 2026-04-27 08:27:38 | 9.58 ℃ | 100 % | 1025.75 hPa |
| 2026-04-27 08:17:38 | 9.95 ℃ | 100 % | 1025.7 hPa |
| 2026-04-27 08:07:38 | 9.99 ℃ | 100 % | 1025.66 hPa |
| 2026-04-27 07:57:38 | 9.52 ℃ | 100 % | 1025.58 hPa |
| 2026-04-27 07:47:38 | 9.84 ℃ | 100 % | 1025.52 hPa |
| 2026-04-27 07:37:38 | 9.65 ℃ | 100 % | 1025.52 hPa |
| 2026-04-27 07:27:38 | 9.75 ℃ | 100 % | 1025.46 hPa |
| 2026-04-27 07:17:38 | 9.74 ℃ | 100 % | 1025.37 hPa |
| 2026-04-27 07:07:38 | 9.6 ℃ | 100 % | 1025.28 hPa |
| 2026-04-27 06:57:38 | 9.15 ℃ | 100 % | 1025.2 hPa |
| 2026-04-27 06:47:38 | 8.78 ℃ | 100 % | 1025.11 hPa |
| 2026-04-27 06:37:39 | 8.15 ℃ | 100 % | 1025.07 hPa |
| 2026-04-27 06:27:38 | 7.57 ℃ | 100 % | 1025.07 hPa |
| 2026-04-27 06:17:38 | 7.27 ℃ | 100 % | 1025.08 hPa |
| 2026-04-27 06:07:38 | 7.29 ℃ | 100 % | 1025.07 hPa |
| 2026-04-27 05:57:38 | 7.36 ℃ | 100 % | 1025.02 hPa |
| 2026-04-27 05:47:38 | 7.4 ℃ | 100 % | 1024.96 hPa |
| 2026-04-27 05:37:39 | 7.74 ℃ | 100 % | 1024.87 hPa |
| 2026-04-27 05:27:38 | 7.8 ℃ | 100 % | 1024.81 hPa |
| 2026-04-27 05:17:38 | 7.95 ℃ | 100 % | 1024.82 hPa |
| 2026-04-27 05:07:38 | 7.95 ℃ | 100 % | 1024.86 hPa |
| 2026-04-27 04:57:38 | 7.85 ℃ | 100 % | 1024.87 hPa |
| 2026-04-27 04:47:38 | 8.1 ℃ | 100 % | 1024.89 hPa |
| 2026-04-27 04:37:38 | 8.15 ℃ | 100 % | 1024.9 hPa |
| 2026-04-27 04:27:39 | 8.59 ℃ | 100 % | 1024.89 hPa |
| 2026-04-27 04:17:38 | 8.9 ℃ | 100 % | 1024.87 hPa |
| 2026-04-27 04:07:38 | 9.09 ℃ | 100 % | 1024.91 hPa |
| 2026-04-27 03:57:39 | 9.53 ℃ | 100 % | 1024.95 hPa |
| 2026-04-27 03:47:39 | 9.61 ℃ | 100 % | 1024.99 hPa |
| 2026-04-27 03:37:39 | 9.65 ℃ | 100 % | 1025.05 hPa |
| 2026-04-27 03:27:40 | 9.86 ℃ | 100 % | 1025.08 hPa |
| 2026-04-27 03:17:39 | 10.2 ℃ | 100 % | 1025.11 hPa |
| 2026-04-27 03:07:39 | 10.46 ℃ | 100 % | 1025.16 hPa |
| 2026-04-27 02:57:39 | 10.34 ℃ | 100 % | 1025.14 hPa |
| 2026-04-27 02:47:39 | 9.88 ℃ | 100 % | 1025.13 hPa |
| 2026-04-27 02:37:39 | 9.59 ℃ | 100 % | 1025.13 hPa |
| 2026-04-27 02:27:39 | 9.86 ℃ | 100 % | 1025.07 hPa |
| 2026-04-27 02:17:39 | 9.79 ℃ | 100 % | 1025.08 hPa |
| 2026-04-27 02:07:39 | 10.25 ℃ | 100 % | 1025.13 hPa |
| 2026-04-27 01:57:39 | 10.6 ℃ | 100 % | 1025.1 hPa |
| 2026-04-27 01:47:39 | 10.73 ℃ | 100 % | 1025.1 hPa |
| 2026-04-27 01:37:39 | 10.73 ℃ | 100 % | 1025.1 hPa |
| 2026-04-27 01:27:39 | 10.91 ℃ | 100 % | 1025.15 hPa |
| 2026-04-27 01:17:39 | 10.69 ℃ | 100 % | 1025.2 hPa |
| 2026-04-27 01:07:39 | 10.73 ℃ | 100 % | 1025.26 hPa |
| 2026-04-27 00:57:39 | 10.78 ℃ | 100 % | 1025.23 hPa |
| 2026-04-27 00:47:39 | 10.86 ℃ | 100 % | 1025.16 hPa |
| 2026-04-27 00:37:39 | 10.72 ℃ | 100 % | 1025.14 hPa |
| 2026-04-27 00:27:39 | 10.83 ℃ | 100 % | 1025.09 hPa |
| 2026-04-27 00:17:39 | 10.73 ℃ | 100 % | 1025.09 hPa |
| 2026-04-27 00:07:39 | 11.13 ℃ | 100 % | 1025.09 hPa |
| 2026-04-26 23:57:40 | 11.52 ℃ | 100 % | 1025.06 hPa |
| 2026-04-26 23:47:39 | 11.73 ℃ | 100 % | 1024.99 hPa |
| 2026-04-26 23:37:39 | 12.05 ℃ | 99.99 % | 1024.98 hPa |
| 2026-04-26 23:27:39 | 12.48 ℃ | 99.99 % | 1024.96 hPa |
| 2026-04-26 23:17:39 | 12.68 ℃ | 99.97 % | 1024.91 hPa |
| 2026-04-26 23:07:39 | 13.04 ℃ | 99.95 % | 1024.89 hPa |
| 2026-04-26 22:57:39 | 13.55 ℃ | 99.9 % | 1024.86 hPa |
| 2026-04-26 22:47:39 | 13.82 ℃ | 99.79 % | 1024.85 hPa |
| 2026-04-26 22:37:39 | 14.02 ℃ | 99.59 % | 1024.82 hPa |
| 2026-04-26 22:27:40 | 13.96 ℃ | 99.17 % | 1024.78 hPa |
| 2026-04-26 22:17:39 | 14 ℃ | 98.35 % | 1024.76 hPa |
| 2026-04-26 22:07:39 | 13.96 ℃ | 96.69 % | 1024.78 hPa |
| 2026-04-26 21:57:40 | 14.54 ℃ | 93.39 % | 1024.69 hPa |
| 2026-04-26 21:47:39 | 14.61 ℃ | 91.03 % | 1024.62 hPa |
| 2026-04-26 21:37:39 | 14.62 ℃ | 88.67 % | 1024.62 hPa |
| 2026-04-26 21:27:39 | 14.95 ℃ | 86.34 % | 1024.61 hPa |
| 2026-04-26 21:17:40 | 14.85 ℃ | 86.13 % | 1024.58 hPa |
| 2026-04-26 21:07:39 | 15.16 ℃ | 85.06 % | 1024.48 hPa |
| 2026-04-26 20:57:39 | 15.4 ℃ | 84.64 % | 1024.41 hPa |
| 2026-04-26 20:47:39 | 15.18 ℃ | 84.84 % | 1024.36 hPa |
| 2026-04-26 20:37:39 | 15.42 ℃ | 81.52 % | 1024.34 hPa |
| 2026-04-26 20:27:39 | 15.23 ℃ | 80.18 % | 1024.36 hPa |
| 2026-04-26 20:17:39 | 15.15 ℃ | 74.69 % | 1024.39 hPa |
| 2026-04-26 20:07:39 | 15.2 ℃ | 65.99 % | 1024.4 hPa |
| 2026-04-26 19:57:39 | 15.65 ℃ | 57.43 % | 1024.4 hPa |
| 2026-04-26 19:47:39 | 16.17 ℃ | 55.72 % | 1024.39 hPa |
| 2026-04-26 19:37:39 | 16.45 ℃ | 55.02 % | 1024.36 hPa |
| 2026-04-26 19:27:41 | 16.68 ℃ | 54.38 % | 1024.41 hPa |
| 2026-04-26 19:17:39 | 16.97 ℃ | 55.71 % | 1024.46 hPa |
| 2026-04-26 19:07:39 | 16.62 ℃ | 57.23 % | 1024.44 hPa |
| 2026-04-26 18:57:39 | 16.64 ℃ | 57.62 % | 1024.43 hPa |
| 2026-04-26 18:47:39 | 16.68 ℃ | 57.47 % | 1024.47 hPa |
| 2026-04-26 18:37:39 | 16.83 ℃ | 57.45 % | 1024.5 hPa |
| 2026-04-26 18:27:39 | 17.01 ℃ | 57.87 % | 1024.51 hPa |
| 2026-04-26 18:17:40 | 16.91 ℃ | 58.47 % | 1024.56 hPa |
| 2026-04-26 18:07:39 | 16.86 ℃ | 56.29 % | 1024.61 hPa |
| 2026-04-26 17:57:40 | 17.6 ℃ | 53.58 % | 1024.56 hPa |
| 2026-04-26 17:47:40 | 17.46 ℃ | 54.5 % | 1024.58 hPa |
| 2026-04-26 17:37:40 | 17.71 ℃ | 55.24 % | 1024.59 hPa |
| 2026-04-26 17:27:40 | 17.5 ℃ | 55.74 % | 1024.6 hPa |
| 2026-04-26 17:17:40 | 17.38 ℃ | 56.09 % | 1024.6 hPa |
| 2026-04-26 17:07:39 | 17.17 ℃ | 55.58 % | 1024.62 hPa |
| 2026-04-26 16:57:40 | 17.6 ℃ | 54.87 % | 1024.67 hPa |
| 2026-04-26 16:47:40 | 17.91 ℃ | 52.95 % | 1024.68 hPa |
| 2026-04-26 16:37:40 | 18.23 ℃ | 51.18 % | 1024.67 hPa |
| 2026-04-26 16:27:40 | 18.17 ℃ | 50.38 % | 1024.65 hPa |
| 2026-04-26 16:17:40 | 18.2 ℃ | 49.89 % | 1024.67 hPa |
| 2026-04-26 16:07:40 | 17.91 ℃ | 50.3 % | 1024.71 hPa |
| 2026-04-26 15:57:40 | 18.22 ℃ | 47.71 % | 1024.73 hPa |
| 2026-04-26 15:47:40 | 18.19 ℃ | 45.49 % | 1024.77 hPa |
| 2026-04-26 15:37:40 | 18.57 ℃ | 41.61 % | 1024.83 hPa |
| 2026-04-26 15:27:40 | 18.52 ℃ | 41.51 % | 1024.92 hPa |
| 2026-04-26 15:17:40 | 18.17 ℃ | 41.18 % | 1024.97 hPa |
| 2026-04-26 15:07:40 | 18.22 ℃ | 41.11 % | 1025.06 hPa |
| 2026-04-26 14:57:40 | 18.11 ℃ | 42.04 % | 1025.12 hPa |
| 2026-04-26 14:47:40 | 18.29 ℃ | 42.83 % | 1025.19 hPa |
| 2026-04-26 14:37:40 | 18.06 ℃ | 43.18 % | 1025.26 hPa |
| 2026-04-26 14:27:40 | 18.02 ℃ | 44.06 % | 1025.34 hPa |
| 2026-04-26 14:17:40 | 17.73 ℃ | 44.17 % | 1025.4 hPa |
| 2026-04-26 14:07:40 | 17.87 ℃ | 44.4 % | 1025.46 hPa |
| 2026-04-26 13:57:40 | 17.75 ℃ | 44.12 % | 1025.5 hPa |
| 2026-04-26 13:47:40 | 17.96 ℃ | 43.22 % | 1025.53 hPa |
| 2026-04-26 13:37:40 | 17.73 ℃ | 44.67 % | 1025.58 hPa |
| 2026-04-26 13:27:40 | 17.24 ℃ | 45.56 % | 1025.56 hPa |
| 2026-04-26 13:17:40 | 17.22 ℃ | 45.62 % | 1025.57 hPa |
| 2026-04-26 13:07:40 | 16.45 ℃ | 46.55 % | 1025.63 hPa |
| 2026-04-26 12:57:40 | 16.37 ℃ | 46.77 % | 1025.65 hPa |
| 2026-04-26 12:47:40 | 16.85 ℃ | 46.86 % | 1025.59 hPa |
| 2026-04-26 12:37:40 | 16.99 ℃ | 46.25 % | 1025.53 hPa |
| 2026-04-26 12:27:40 | 16.65 ℃ | 47.27 % | 1025.57 hPa |
| 2026-04-26 12:17:40 | 16.08 ℃ | 48.84 % | 1025.59 hPa |
| 2026-04-26 12:07:40 | 16.56 ℃ | 50.15 % | 1025.62 hPa |
| 2026-04-26 11:57:40 | 16.5 ℃ | 50.79 % | 1025.68 hPa |
| 2026-04-26 11:47:40 | 16.54 ℃ | 51.23 % | 1025.66 hPa |
| 2026-04-26 11:37:40 | 16.4 ℃ | 52.7 % | 1025.66 hPa |
| 2026-04-26 11:27:40 | 15.94 ℃ | 55.13 % | 1025.72 hPa |
| 2026-04-26 11:17:40 | 15.67 ℃ | 57.36 % | 1025.68 hPa |
| 2026-04-26 11:07:40 | 15.22 ℃ | 59.24 % | 1025.6 hPa |
| 2026-04-26 10:57:40 | 16.01 ℃ | 60.93 % | 1025.53 hPa |
| 2026-04-26 10:47:40 | 16.44 ℃ | 58.87 % | 1025.46 hPa |
| 2026-04-26 10:37:40 | 17.06 ℃ | 62.11 % | 1025.4 hPa |
| 2026-04-26 10:27:40 | 15.97 ℃ | 68.9 % | 1025.38 hPa |
| 2026-04-26 10:17:40 | 15.29 ℃ | 79.34 % | 1025.36 hPa |
| 2026-04-26 10:07:40 | 16.08 ℃ | 88.68 % | 1025.35 hPa |
| 2026-04-26 09:57:40 | 14.82 ℃ | 100 % | 1025.38 hPa |
| 2026-04-26 09:47:40 | 13.67 ℃ | 100 % | 1025.32 hPa |
| 2026-04-26 09:37:40 | 12.65 ℃ | 100 % | 1025.32 hPa |
| 2026-04-26 09:27:40 | 13.08 ℃ | 100 % | 1025.22 hPa |
| 2026-04-26 09:17:41 | 13.92 ℃ | 100 % | 1025.06 hPa |
| 2026-04-26 09:07:40 | 14.27 ℃ | 100 % | 1024.98 hPa |
| 2026-04-26 08:57:40 | 13.82 ℃ | 100 % | 1024.96 hPa |
| 2026-04-26 08:47:41 | 13.81 ℃ | 100 % | 1024.9 hPa |
| 2026-04-26 08:37:40 | 14.48 ℃ | 100 % | 1024.81 hPa |
| 2026-04-26 08:27:40 | 14.47 ℃ | 100 % | 1024.71 hPa |
| 2026-04-26 08:17:40 | 14.35 ℃ | 100 % | 1024.59 hPa |
| 2026-04-26 08:07:40 | 14.13 ℃ | 100 % | 1024.49 hPa |
| 2026-04-26 07:57:41 | 13.65 ℃ | 100 % | 1024.41 hPa |
| 2026-04-26 07:47:40 | 13.33 ℃ | 100 % | 1024.29 hPa |
| 2026-04-26 07:37:42 | 13.52 ℃ | 100 % | 1024.12 hPa |
| 2026-04-26 07:27:40 | 13.38 ℃ | 100 % | 1023.99 hPa |
| 2026-04-26 07:17:41 | 12.82 ℃ | 100 % | 1023.91 hPa |
| 2026-04-26 07:07:40 | 12.7 ℃ | 100 % | 1023.75 hPa |
| 2026-04-26 06:57:41 | 12.25 ℃ | 100 % | 1023.6 hPa |
| 2026-04-26 06:47:41 | 11.81 ℃ | 100 % | 1023.44 hPa |
| 2026-04-26 06:37:40 | 11.42 ℃ | 100 % | 1023.28 hPa |
| 2026-04-26 06:27:41 | 11 ℃ | 100 % | 1023.18 hPa |
| 2026-04-26 06:17:40 | 10.41 ℃ | 100 % | 1023.07 hPa |
| 2026-04-26 06:07:42 | 9.93 ℃ | 100 % | 1022.96 hPa |
| 2026-04-26 05:57:41 | 9.88 ℃ | 100 % | 1022.89 hPa |
| 2026-04-26 05:47:41 | 10.26 ℃ | 100 % | 1022.78 hPa |
| 2026-04-26 05:37:41 | 10.09 ℃ | 100 % | 1022.66 hPa |
| 2026-04-26 05:27:41 | 9.92 ℃ | 100 % | 1022.51 hPa |
| 2026-04-26 05:17:41 | 10.02 ℃ | 100 % | 1022.38 hPa |
| 2026-04-26 05:07:42 | 10.18 ℃ | 100 % | 1022.24 hPa |
| 2026-04-26 04:57:41 | 10.05 ℃ | 100 % | 1022.14 hPa |
| 2026-04-26 04:47:41 | 9.66 ℃ | 100 % | 1022.01 hPa |
| 2026-04-26 04:37:41 | 9.51 ℃ | 100 % | 1021.82 hPa |
| 2026-04-26 04:27:41 | 10.12 ℃ | 100 % | 1021.67 hPa |
| 2026-04-26 04:17:41 | 10.05 ℃ | 100 % | 1021.55 hPa |
| 2026-04-26 04:07:41 | 9.79 ℃ | 100 % | 1021.42 hPa |
| 2026-04-26 03:57:41 | 10.03 ℃ | 100 % | 1021.25 hPa |
| 2026-04-26 03:47:41 | 9.89 ℃ | 100 % | 1021.16 hPa |
| 2026-04-26 03:37:41 | 9.62 ℃ | 100 % | 1021.07 hPa |
| 2026-04-26 03:27:41 | 9.48 ℃ | 100 % | 1020.97 hPa |
| 2026-04-26 03:17:41 | 9.21 ℃ | 100 % | 1020.82 hPa |
| 2026-04-26 03:07:41 | 9.64 ℃ | 100 % | 1020.66 hPa |
| 2026-04-26 02:57:41 | 9.95 ℃ | 100 % | 1020.48 hPa |
| 2026-04-26 02:47:41 | 9.64 ℃ | 100 % | 1020.36 hPa |
| 2026-04-26 02:37:41 | 9.05 ℃ | 100 % | 1020.22 hPa |
| 2026-04-26 02:27:41 | 9.04 ℃ | 100 % | 1020.1 hPa |
| 2026-04-26 02:17:41 | 9.17 ℃ | 100 % | 1019.96 hPa |
| 2026-04-26 02:07:41 | 9.47 ℃ | 100 % | 1019.83 hPa |
| 2026-04-26 01:57:41 | 9.58 ℃ | 100 % | 1019.7 hPa |
| 2026-04-26 01:47:41 | 9.54 ℃ | 100 % | 1019.55 hPa |
| 2026-04-26 01:37:41 | 9.51 ℃ | 100 % | 1019.38 hPa |
| 2026-04-26 01:27:42 | 9.35 ℃ | 100 % | 1019.21 hPa |
| 2026-04-26 01:17:41 | 9.47 ℃ | 100 % | 1019.04 hPa |
| 2026-04-26 01:07:41 | 9.65 ℃ | 100 % | 1018.91 hPa |
| 2026-04-26 00:57:41 | 9.24 ℃ | 100 % | 1018.81 hPa |
| 2026-04-26 00:47:41 | 9.19 ℃ | 100 % | 1018.71 hPa |
| 2026-04-26 00:37:41 | 8.94 ℃ | 100 % | 1018.64 hPa |
| 2026-04-26 00:27:41 | 8.76 ℃ | 100 % | 1018.58 hPa |
| 2026-04-26 00:17:41 | 8.8 ℃ | 100 % | 1018.5 hPa |
| 2026-04-26 00:07:41 | 8.95 ℃ | 100 % | 1018.37 hPa |
| 2026-04-25 23:57:41 | 9.21 ℃ | 100 % | 1018.26 hPa |
| 2026-04-25 23:47:41 | 9.17 ℃ | 100 % | 1018.14 hPa |
| 2026-04-25 23:37:42 | 9.27 ℃ | 100 % | 1017.98 hPa |
| 2026-04-25 23:27:41 | 9.43 ℃ | 100 % | 1017.85 hPa |
| 2026-04-25 23:17:41 | 9.46 ℃ | 100 % | 1017.78 hPa |
| 2026-04-25 23:07:41 | 9.58 ℃ | 100 % | 1017.74 hPa |
| 2026-04-25 22:57:41 | 9.74 ℃ | 100 % | 1017.62 hPa |
| 2026-04-25 22:47:41 | 9.69 ℃ | 100 % | 1017.48 hPa |
| 2026-04-25 22:37:41 | 9.6 ℃ | 100 % | 1017.29 hPa |
| 2026-04-25 22:27:41 | 9.86 ℃ | 100 % | 1017.09 hPa |
| 2026-04-25 22:17:41 | 9.9 ℃ | 100 % | 1016.99 hPa |
| 2026-04-25 22:07:43 | 9.75 ℃ | 100 % | 1016.92 hPa |
| 2026-04-25 21:57:41 | 9.94 ℃ | 100 % | 1016.77 hPa |
| 2026-04-25 21:47:41 | 10 ℃ | 100 % | 1016.69 hPa |
| 2026-04-25 21:37:43 | 10.15 ℃ | 100 % | 1016.52 hPa |
| 2026-04-25 21:27:41 | 10.01 ℃ | 100 % | 1016.42 hPa |
| 2026-04-25 21:17:41 | 10.11 ℃ | 100 % | 1016.25 hPa |
| 2026-04-25 21:07:41 | 10.24 ℃ | 100 % | 1016.07 hPa |
| 2026-04-25 20:57:41 | 10.45 ℃ | 100 % | 1015.99 hPa |
| 2026-04-25 20:47:41 | 10.76 ℃ | 100 % | 1015.83 hPa |
| 2026-04-25 20:37:41 | 10.94 ℃ | 100 % | 1015.63 hPa |
| 2026-04-25 20:27:41 | 10.99 ℃ | 100 % | 1015.4 hPa |
| 2026-04-25 20:17:42 | 11.2 ℃ | 100 % | 1015.18 hPa |
| 2026-04-25 20:07:41 | 11.39 ℃ | 100 % | 1015.08 hPa |
| 2026-04-25 19:57:41 | 11.39 ℃ | 100 % | 1014.96 hPa |
| 2026-04-25 19:47:42 | 11.56 ℃ | 100 % | 1014.85 hPa |
| 2026-04-25 19:37:42 | 12.18 ℃ | 100 % | 1014.67 hPa |
| 2026-04-25 19:27:42 | 12.52 ℃ | 100 % | 1014.47 hPa |
| 2026-04-25 19:17:42 | 12.72 ℃ | 100 % | 1014.29 hPa |
| 2026-04-25 19:07:41 | 13.02 ℃ | 100 % | 1014.19 hPa |
| 2026-04-25 18:57:42 | 12.33 ℃ | 100 % | 1014.13 hPa |
| 2026-04-25 18:47:42 | 12.6 ℃ | 100 % | 1014.17 hPa |
| 2026-04-25 18:37:42 | 12.65 ℃ | 100 % | 1014.19 hPa |
| 2026-04-25 18:27:42 | 12.94 ℃ | 100 % | 1014.26 hPa |
| 2026-04-25 18:17:42 | 12.73 ℃ | 100 % | 1014.27 hPa |
| 2026-04-25 18:07:42 | 12.73 ℃ | 100 % | 1014.29 hPa |
| 2026-04-25 17:57:42 | 12.79 ℃ | 100 % | 1014.28 hPa |
| 2026-04-25 17:47:42 | 12.78 ℃ | 100 % | 1014.39 hPa |
| 2026-04-25 17:37:42 | 12.92 ℃ | 100 % | 1014.43 hPa |
| 2026-04-25 17:27:42 | 12.77 ℃ | 100 % | 1014.51 hPa |
| 2026-04-25 17:17:42 | 13.02 ℃ | 100 % | 1014.48 hPa |
| 2026-04-25 17:07:42 | 12.59 ℃ | 100 % | 1014.43 hPa |
| 2026-04-25 16:57:42 | 12.66 ℃ | 100 % | 1014.49 hPa |
| 2026-04-25 16:47:42 | 12.96 ℃ | 100 % | 1014.43 hPa |
| 2026-04-25 16:37:42 | 13.14 ℃ | 100 % | 1014.39 hPa |
| 2026-04-25 16:27:42 | 13.54 ℃ | 100 % | 1014.28 hPa |
| 2026-04-25 16:17:42 | 13.79 ℃ | 100 % | 1014.22 hPa |
| 2026-04-25 16:07:42 | 13.54 ℃ | 100 % | 1014.2 hPa |
| 2026-04-25 15:57:42 | 13.2 ℃ | 100 % | 1014.33 hPa |
| 2026-04-25 15:47:42 | 13.08 ℃ | 100 % | 1014.38 hPa |
| 2026-04-25 15:37:42 | 13.4 ℃ | 100 % | 1014.44 hPa |
| 2026-04-25 15:27:42 | 13.16 ℃ | 100 % | 1014.49 hPa |
| 2026-04-25 15:17:42 | 13.3 ℃ | 100 % | 1014.56 hPa |
| 2026-04-25 15:07:42 | 13.26 ℃ | 100 % | 1014.58 hPa |
| 2026-04-25 14:57:42 | 13.24 ℃ | 100 % | 1014.61 hPa |
| 2026-04-25 14:47:42 | 13.1 ℃ | 100 % | 1014.59 hPa |
| 2026-04-25 14:37:42 | 13.42 ℃ | 100 % | 1014.67 hPa |
| 2026-04-25 14:27:42 | 13.45 ℃ | 100 % | 1014.69 hPa |
| 2026-04-25 14:17:42 | 13.55 ℃ | 100 % | 1014.68 hPa |
| 2026-04-25 14:07:42 | 13.79 ℃ | 100 % | 1014.69 hPa |
| 2026-04-25 13:57:42 | 14.11 ℃ | 100 % | 1014.64 hPa |
| 2026-04-25 13:47:42 | 14.27 ℃ | 100 % | 1014.6 hPa |
| 2026-04-25 13:37:42 | 13.92 ℃ | 100 % | 1014.67 hPa |
| 2026-04-25 13:27:42 | 14.06 ℃ | 100 % | 1014.64 hPa |
| 2026-04-25 13:17:42 | 14.1 ℃ | 100 % | 1014.6 hPa |
| 2026-04-25 13:07:42 | 13.97 ℃ | 100 % | 1014.65 hPa |
| 2026-04-25 12:57:42 | 14.07 ℃ | 100 % | 1014.68 hPa |
| 2026-04-25 12:47:42 | 14.34 ℃ | 100 % | 1014.72 hPa |
| 2026-04-25 12:37:42 | 14.63 ℃ | 100 % | 1014.77 hPa |
| 2026-04-25 12:27:42 | 14.29 ℃ | 100 % | 1014.76 hPa |
| 2026-04-25 12:17:42 | 14.1 ℃ | 100 % | 1014.73 hPa |
| 2026-04-25 12:07:42 | 14.23 ℃ | 100 % | 1014.72 hPa |
| 2026-04-25 11:57:42 | 13.99 ℃ | 100 % | 1014.77 hPa |
| 2026-04-25 11:47:42 | 14.16 ℃ | 100 % | 1014.81 hPa |
| 2026-04-25 11:37:42 | 14.49 ℃ | 100 % | 1014.72 hPa |
| 2026-04-25 11:27:42 | 14.23 ℃ | 100 % | 1014.8 hPa |
| 2026-04-25 11:17:42 | 14.18 ℃ | 100 % | 1014.8 hPa |
| 2026-04-25 11:07:42 | 13.89 ℃ | 100 % | 1014.81 hPa |
| 2026-04-25 10:57:42 | 13.87 ℃ | 100 % | 1014.88 hPa |
| 2026-04-25 10:47:42 | 13.8 ℃ | 100 % | 1014.94 hPa |
| 2026-04-25 10:37:42 | 13.79 ℃ | 100 % | 1014.93 hPa |
| 2026-04-25 10:27:42 | 13.64 ℃ | 100 % | 1014.98 hPa |
| 2026-04-25 10:17:42 | 13.74 ℃ | 100 % | 1014.98 hPa |
| 2026-04-25 10:07:44 | 13.59 ℃ | 100 % | 1014.99 hPa |
| 2026-04-25 09:57:42 | 13.27 ℃ | 100 % | 1014.94 hPa |
| 2026-04-25 09:47:42 | 12.77 ℃ | 100 % | 1014.87 hPa |
| 2026-04-25 09:37:42 | 12.93 ℃ | 100 % | 1015.01 hPa |
| 2026-04-25 09:27:42 | 13.01 ℃ | 100 % | 1014.96 hPa |
| 2026-04-25 09:17:42 | 12.85 ℃ | 100 % | 1014.99 hPa |
| 2026-04-25 09:07:42 | 12.63 ℃ | 100 % | 1014.98 hPa |
| 2026-04-25 08:57:42 | 12.61 ℃ | 100 % | 1014.98 hPa |
| 2026-04-25 08:47:42 | 12.59 ℃ | 100 % | 1015.02 hPa |
| 2026-04-25 08:37:42 | 11.94 ℃ | 100 % | 1014.93 hPa |
| 2026-04-25 08:27:42 | 11.81 ℃ | 100 % | 1014.9 hPa |
| 2026-04-25 08:17:42 | 11.6 ℃ | 100 % | 1014.86 hPa |
| 2026-04-25 08:07:42 | 11.23 ℃ | 100 % | 1014.89 hPa |
| 2026-04-25 07:57:42 | 11.36 ℃ | 100 % | 1014.83 hPa |
| 2026-04-25 07:47:42 | 11.26 ℃ | 100 % | 1014.83 hPa |
| 2026-04-25 07:37:42 | 11.22 ℃ | 100 % | 1014.76 hPa |
| 2026-04-25 07:27:43 | 11.16 ℃ | 100 % | 1014.71 hPa |
| 2026-04-25 07:17:42 | 11.02 ℃ | 100 % | 1014.67 hPa |
| 2026-04-25 07:07:43 | 10.81 ℃ | 100 % | 1014.7 hPa |
| 2026-04-25 06:57:43 | 10.82 ℃ | 100 % | 1014.69 hPa |
| 2026-04-25 06:47:43 | 10.73 ℃ | 100 % | 1014.73 hPa |
| 2026-04-25 06:37:43 | 10.66 ℃ | 100 % | 1014.75 hPa |
| 2026-04-25 06:27:43 | 10.41 ℃ | 100 % | 1014.74 hPa |
| 2026-04-25 06:17:44 | 10.57 ℃ | 100 % | 1014.73 hPa |
| 2026-04-25 06:07:43 | 10.46 ℃ | 100 % | 1014.81 hPa |
| 2026-04-25 05:57:43 | 10.31 ℃ | 100 % | 1014.87 hPa |
| 2026-04-25 05:47:43 | 10.18 ℃ | 100 % | 1014.83 hPa |
| 2026-04-25 05:37:43 | 10.03 ℃ | 100 % | 1014.8 hPa |
| 2026-04-25 05:27:43 | 10.18 ℃ | 100 % | 1014.85 hPa |
| 2026-04-25 05:17:43 | 10.33 ℃ | 100 % | 1014.87 hPa |
| 2026-04-25 05:07:43 | 10.23 ℃ | 100 % | 1014.93 hPa |
| 2026-04-25 04:57:43 | 10.21 ℃ | 100 % | 1014.99 hPa |
| 2026-04-25 04:47:43 | 10.12 ℃ | 100 % | 1015.06 hPa |
| 2026-04-25 04:37:43 | 10.03 ℃ | 100 % | 1015.18 hPa |
| 2026-04-25 04:27:43 | 10.02 ℃ | 100 % | 1015.24 hPa |
| 2026-04-25 04:17:43 | 10.3 ℃ | 100 % | 1015.25 hPa |
| 2026-04-25 04:07:43 | 10.24 ℃ | 100 % | 1015.34 hPa |
| 2026-04-25 03:57:43 | 10.25 ℃ | 100 % | 1015.45 hPa |
| 2026-04-25 03:47:43 | 10.21 ℃ | 100 % | 1015.46 hPa |
| 2026-04-25 03:37:43 | 10.31 ℃ | 100 % | 1015.47 hPa |
| 2026-04-25 03:27:43 | 10.42 ℃ | 100 % | 1015.61 hPa |
| 2026-04-25 03:17:43 | 10.38 ℃ | 100 % | 1015.71 hPa |
| 2026-04-25 03:07:43 | 10.48 ℃ | 100 % | 1015.82 hPa |
| 2026-04-25 02:57:43 | 10.67 ℃ | 100 % | 1015.84 hPa |
| 2026-04-25 02:47:44 | 10.44 ℃ | 100 % | 1015.95 hPa |
| 2026-04-25 02:37:43 | 10.53 ℃ | 100 % | 1016.01 hPa |
| 2026-04-25 02:27:43 | 10.39 ℃ | 100 % | 1016.1 hPa |
| 2026-04-25 02:17:43 | 10.53 ℃ | 100 % | 1016.2 hPa |
| 2026-04-25 02:07:43 | 10.65 ℃ | 100 % | 1016.27 hPa |
| 2026-04-25 01:57:43 | 10.38 ℃ | 100 % | 1016.33 hPa |
| 2026-04-25 01:47:43 | 10.45 ℃ | 100 % | 1016.38 hPa |
| 2026-04-25 01:37:43 | 10.66 ℃ | 100 % | 1016.43 hPa |
| 2026-04-25 01:27:43 | 10.86 ℃ | 100 % | 1016.55 hPa |
| 2026-04-25 01:17:44 | 10.92 ℃ | 100 % | 1016.69 hPa |
| 2026-04-25 01:07:43 | 10.68 ℃ | 100 % | 1016.8 hPa |
| 2026-04-25 00:57:43 | 10.53 ℃ | 100 % | 1016.88 hPa |
| 2026-04-25 00:47:43 | 10.84 ℃ | 100 % | 1016.91 hPa |
| 2026-04-25 00:37:43 | 11.1 ℃ | 100 % | 1016.9 hPa |
| 2026-04-25 00:27:43 | 11.04 ℃ | 100 % | 1016.98 hPa |
| 2026-04-25 00:17:43 | 10.82 ℃ | 100 % | 1017.05 hPa |
| 2026-04-25 00:07:43 | 10.87 ℃ | 100 % | 1017.07 hPa |
| 2026-04-24 23:57:43 | 10.86 ℃ | 100 % | 1017.16 hPa |
| 2026-04-24 23:47:44 | 11.03 ℃ | 100 % | 1017.24 hPa |
| 2026-04-24 23:37:43 | 10.92 ℃ | 100 % | 1017.31 hPa |
| 2026-04-24 23:27:43 | 11.01 ℃ | 100 % | 1017.32 hPa |
| 2026-04-24 23:17:43 | 11 ℃ | 100 % | 1017.3 hPa |
| 2026-04-24 23:07:43 | 10.78 ℃ | 100 % | 1017.29 hPa |
| 2026-04-24 22:57:43 | 10.79 ℃ | 100 % | 1017.28 hPa |
| 2026-04-24 22:47:43 | 11.22 ℃ | 100 % | 1017.28 hPa |
| 2026-04-24 22:37:44 | 11.36 ℃ | 100 % | 1017.29 hPa |
| 2026-04-24 22:27:44 | 11.32 ℃ | 100 % | 1017.32 hPa |
| 2026-04-24 22:17:44 | 11.39 ℃ | 100 % | 1017.35 hPa |
| 2026-04-24 22:07:45 | 11.7 ℃ | 100 % | 1017.38 hPa |
| 2026-04-24 21:57:43 | 11.85 ℃ | 100 % | 1017.36 hPa |
| 2026-04-24 21:47:43 | 11.96 ℃ | 100 % | 1017.35 hPa |
| 2026-04-24 21:37:43 | 12.2 ℃ | 100 % | 1017.35 hPa |
| 2026-04-24 21:27:43 | 12.32 ℃ | 100 % | 1017.3 hPa |
| 2026-04-24 21:17:43 | 12.27 ℃ | 100 % | 1017.3 hPa |
| 2026-04-24 21:07:44 | 12.33 ℃ | 100 % | 1017.29 hPa |
| 2026-04-24 20:57:43 | 12.88 ℃ | 100 % | 1017.2 hPa |
| 2026-04-24 20:47:43 | 13.61 ℃ | 100 % | 1017.17 hPa |
| 2026-04-24 20:37:43 | 14.41 ℃ | 100 % | 1017.15 hPa |
| 2026-04-24 20:27:43 | 15.06 ℃ | 100 % | 1017.18 hPa |
| 2026-04-24 20:17:44 | 15.44 ℃ | 100 % | 1017.18 hPa |
| 2026-04-24 20:07:45 | 15.43 ℃ | 100 % | 1017.19 hPa |
| 2026-04-24 19:57:44 | 14.54 ℃ | 100 % | 1017.27 hPa |
| 2026-04-24 19:47:44 | 14.24 ℃ | 100 % | 1017.31 hPa |
| 2026-04-24 19:37:44 | 14.24 ℃ | 100 % | 1017.32 hPa |
| 2026-04-24 19:27:44 | 14.82 ℃ | 100 % | 1017.41 hPa |
| 2026-04-24 19:17:44 | 14.93 ℃ | 100 % | 1017.46 hPa |
| 2026-04-24 19:07:44 | 15.27 ℃ | 100 % | 1017.47 hPa |
| 2026-04-24 18:57:44 | 15.56 ℃ | 100 % | 1017.52 hPa |
| 2026-04-24 18:47:44 | 15.82 ℃ | 100 % | 1017.54 hPa |
| 2026-04-24 18:37:44 | 16.28 ℃ | 100 % | 1017.53 hPa |
| 2026-04-24 18:27:44 | 16.59 ℃ | 100 % | 1017.57 hPa |
| 2026-04-24 18:17:44 | 16.92 ℃ | 100 % | 1017.63 hPa |
| 2026-04-24 18:07:44 | 17.23 ℃ | 100 % | 1017.69 hPa |
| 2026-04-24 17:57:44 | 17.71 ℃ | 100 % | 1017.74 hPa |
| 2026-04-24 17:47:44 | 17.99 ℃ | 100 % | 1017.79 hPa |
| 2026-04-24 17:37:44 | 18.21 ℃ | 100 % | 1017.84 hPa |
| 2026-04-24 17:27:44 | 18.14 ℃ | 100 % | 1017.82 hPa |
| 2026-04-24 17:17:44 | 18.15 ℃ | 100 % | 1017.86 hPa |
| 2026-04-24 17:07:44 | 18.5 ℃ | 100 % | 1017.88 hPa |
| 2026-04-24 16:57:44 | 18.44 ℃ | 100 % | 1017.92 hPa |
| 2026-04-24 16:47:44 | 18.64 ℃ | 100 % | 1017.96 hPa |
| 2026-04-24 16:37:44 | 19.04 ℃ | 100 % | 1017.98 hPa |
| 2026-04-24 16:27:44 | 18.79 ℃ | 100 % | 1018.07 hPa |
| 2026-04-24 16:17:44 | 19.03 ℃ | 100 % | 1018.1 hPa |
| 2026-04-24 16:07:44 | 18.94 ℃ | 100 % | 1018.16 hPa |
| 2026-04-24 15:57:44 | 19.03 ℃ | 100 % | 1018.2 hPa |
| 2026-04-24 15:47:44 | 18.78 ℃ | 100 % | 1018.24 hPa |
| 2026-04-24 15:37:44 | 19.01 ℃ | 100 % | 1018.23 hPa |
| 2026-04-24 15:27:44 | 18.79 ℃ | 100 % | 1018.21 hPa |
| 2026-04-24 15:17:44 | 18.43 ℃ | 100 % | 1018.28 hPa |
| 2026-04-24 15:07:44 | 18.42 ℃ | 100 % | 1018.43 hPa |
| 2026-04-24 14:57:44 | 18.42 ℃ | 100 % | 1018.41 hPa |
| 2026-04-24 14:47:44 | 17.93 ℃ | 100 % | 1018.52 hPa |
| 2026-04-24 14:37:44 | 18.49 ℃ | 100 % | 1018.59 hPa |
| 2026-04-24 14:27:44 | 18.54 ℃ | 100 % | 1018.62 hPa |
| 2026-04-24 14:17:44 | 18.19 ℃ | 100 % | 1018.65 hPa |
| 2026-04-24 14:07:44 | 18.12 ℃ | 100 % | 1018.71 hPa |
| 2026-04-24 13:57:44 | 17.82 ℃ | 100 % | 1018.73 hPa |
| 2026-04-24 13:47:44 | 17.84 ℃ | 100 % | 1018.79 hPa |
| 2026-04-24 13:37:44 | 18.12 ℃ | 100 % | 1018.79 hPa |
| 2026-04-24 13:27:44 | 17.77 ℃ | 100 % | 1018.77 hPa |
| 2026-04-24 13:17:44 | 17.92 ℃ | 100 % | 1018.8 hPa |
| 2026-04-24 13:07:44 | 17.8 ℃ | 100 % | 1018.8 hPa |
| 2026-04-24 12:57:44 | 17.22 ℃ | 100 % | 1018.83 hPa |
| 2026-04-24 12:47:44 | 17.08 ℃ | 100 % | 1018.85 hPa |
| 2026-04-24 12:37:45 | 17.07 ℃ | 100 % | 1018.83 hPa |
| 2026-04-24 12:27:44 | 17.21 ℃ | 100 % | 1018.86 hPa |
| 2026-04-24 12:17:44 | 17.07 ℃ | 100 % | 1018.89 hPa |
| 2026-04-24 12:07:44 | 16.81 ℃ | 100 % | 1018.87 hPa |
| 2026-04-24 11:57:44 | 16.65 ℃ | 100 % | 1018.9 hPa |
| 2026-04-24 11:47:44 | 16.31 ℃ | 100 % | 1018.83 hPa |
| 2026-04-24 11:37:44 | 16.03 ℃ | 100 % | 1018.73 hPa |
| 2026-04-24 11:27:44 | 15.99 ℃ | 100 % | 1018.64 hPa |
| 2026-04-24 11:17:44 | 15.49 ℃ | 100 % | 1018.71 hPa |
| 2026-04-24 11:07:44 | 15.62 ℃ | 100 % | 1018.77 hPa |
| 2026-04-24 10:57:44 | 15.31 ℃ | 100 % | 1018.86 hPa |
| 2026-04-24 10:47:44 | 15.34 ℃ | 100 % | 1018.95 hPa |
| 2026-04-24 10:37:44 | 15.42 ℃ | 100 % | 1019.12 hPa |
| 2026-04-24 10:27:44 | 14.88 ℃ | 100 % | 1019.2 hPa |
| 2026-04-24 10:17:44 | 14.7 ℃ | 100 % | 1019.33 hPa |
| 2026-04-24 10:07:44 | 14.49 ℃ | 100 % | 1019.38 hPa |
| 2026-04-24 09:57:45 | 14.34 ℃ | 100 % | 1019.41 hPa |
| 2026-04-24 09:47:45 | 14.37 ℃ | 100 % | 1019.42 hPa |
| 2026-04-24 09:37:44 | 14.04 ℃ | 100 % | 1019.37 hPa |
| 2026-04-24 09:27:44 | 14.13 ℃ | 100 % | 1019.37 hPa |
| 2026-04-24 09:17:45 | 14.19 ℃ | 100 % | 1019.41 hPa |
| 2026-04-24 09:07:44 | 14.08 ℃ | 100 % | 1019.42 hPa |
| 2026-04-24 08:57:44 | 14.07 ℃ | 100 % | 1019.43 hPa |
| 2026-04-24 08:47:44 | 14.41 ℃ | 100 % | 1019.39 hPa |
| 2026-04-24 08:37:45 | 14.22 ℃ | 100 % | 1019.36 hPa |
| 2026-04-24 08:27:45 | 13.77 ℃ | 100 % | 1019.38 hPa |
| 2026-04-24 08:17:45 | 13.64 ℃ | 100 % | 1019.41 hPa |
| 2026-04-24 08:07:45 | 13.14 ℃ | 100 % | 1019.43 hPa |
| 2026-04-24 07:57:45 | 12.72 ℃ | 100 % | 1019.53 hPa |
| 2026-04-24 07:47:45 | 12.37 ℃ | 100 % | 1019.55 hPa |
| 2026-04-24 07:37:45 | 12.01 ℃ | 100 % | 1019.59 hPa |
| 2026-04-24 07:27:45 | 11.92 ℃ | 100 % | 1019.64 hPa |
| 2026-04-24 07:17:45 | 11.75 ℃ | 100 % | 1019.61 hPa |
| 2026-04-24 07:07:45 | 11.81 ℃ | 100 % | 1019.57 hPa |
| 2026-04-24 06:57:45 | 11.54 ℃ | 100 % | 1019.54 hPa |
| 2026-04-24 06:47:45 | 11.64 ℃ | 100 % | 1019.42 hPa |
| 2026-04-24 06:37:45 | 11.46 ℃ | 100 % | 1019.39 hPa |
| 2026-04-24 06:27:45 | 11.33 ℃ | 100 % | 1019.38 hPa |
| 2026-04-24 06:17:45 | 11.3 ℃ | 100 % | 1019.34 hPa |
| 2026-04-24 06:07:45 | 11.42 ℃ | 100 % | 1019.31 hPa |
| 2026-04-24 05:57:45 | 11.5 ℃ | 100 % | 1019.34 hPa |
| 2026-04-24 05:47:45 | 11.46 ℃ | 100 % | 1019.3 hPa |
| 2026-04-24 05:37:45 | 11.43 ℃ | 100 % | 1019.29 hPa |
| 2026-04-24 05:27:45 | 11.29 ℃ | 100 % | 1019.26 hPa |
| 2026-04-24 05:17:45 | 11.25 ℃ | 100 % | 1019.24 hPa |
| 2026-04-24 05:07:45 | 11.44 ℃ | 100 % | 1019.29 hPa |
| 2026-04-24 04:57:45 | 11.33 ℃ | 100 % | 1019.3 hPa |
| 2026-04-24 04:47:45 | 11.47 ℃ | 100 % | 1019.36 hPa |
| 2026-04-24 04:37:45 | 11.63 ℃ | 100 % | 1019.45 hPa |
| 2026-04-24 04:27:45 | 11.72 ℃ | 100 % | 1019.55 hPa |
| 2026-04-24 04:17:45 | 11.81 ℃ | 100 % | 1019.58 hPa |
| 2026-04-24 04:07:45 | 11.99 ℃ | 100 % | 1019.61 hPa |
| 2026-04-24 03:57:45 | 11.85 ℃ | 100 % | 1019.64 hPa |
| 2026-04-24 03:47:45 | 12.12 ℃ | 100 % | 1019.69 hPa |
| 2026-04-24 03:37:45 | 11.78 ℃ | 100 % | 1019.65 hPa |
| 2026-04-24 03:27:45 | 11.76 ℃ | 100 % | 1019.71 hPa |
| 2026-04-24 03:17:45 | 11.82 ℃ | 100 % | 1019.76 hPa |
| 2026-04-24 03:07:45 | 11.75 ℃ | 100 % | 1019.81 hPa |
| 2026-04-24 02:57:45 | 11.72 ℃ | 100 % | 1019.87 hPa |
| 2026-04-24 02:47:45 | 12.12 ℃ | 100 % | 1019.91 hPa |
| 2026-04-24 02:37:45 | 12.05 ℃ | 100 % | 1019.94 hPa |
| 2026-04-24 02:27:45 | 12.06 ℃ | 100 % | 1020.02 hPa |
| 2026-04-24 02:17:45 | 11.8 ℃ | 100 % | 1020.04 hPa |
| 2026-04-24 02:07:45 | 11.88 ℃ | 100 % | 1020.1 hPa |
| 2026-04-24 01:57:45 | 11.94 ℃ | 100 % | 1020.13 hPa |
| 2026-04-24 01:47:45 | 11.66 ℃ | 100 % | 1020.19 hPa |
| 2026-04-24 01:37:45 | 11.65 ℃ | 100 % | 1020.23 hPa |
| 2026-04-24 01:27:45 | 11.62 ℃ | 100 % | 1020.33 hPa |
| 2026-04-24 01:17:45 | 11.5 ℃ | 100 % | 1020.37 hPa |
| 2026-04-24 01:07:45 | 11.64 ℃ | 100 % | 1020.36 hPa |
| 2026-04-24 00:57:45 | 11.4 ℃ | 100 % | 1020.5 hPa |
| 2026-04-24 00:47:45 | 11.31 ℃ | 100 % | 1020.59 hPa |
| 2026-04-24 00:37:45 | 11.45 ℃ | 100 % | 1020.64 hPa |
| 2026-04-24 00:27:45 | 11.56 ℃ | 100 % | 1020.64 hPa |
| 2026-04-24 00:17:45 | 11.46 ℃ | 100 % | 1020.63 hPa |
| 2026-04-24 00:07:45 | 11.33 ℃ | 100 % | 1020.66 hPa |
| 2026-04-23 23:57:46 | 11.41 ℃ | 100 % | 1020.82 hPa |
| 2026-04-23 23:47:45 | 11.16 ℃ | 100 % | 1020.91 hPa |
| 2026-04-23 23:37:45 | 11.2 ℃ | 100 % | 1020.91 hPa |
| 2026-04-23 23:27:45 | 11.39 ℃ | 100 % | 1020.98 hPa |
| 2026-04-23 23:17:45 | 11.23 ℃ | 100 % | 1020.94 hPa |
| 2026-04-23 23:07:45 | 11.29 ℃ | 100 % | 1020.95 hPa |
| 2026-04-23 22:57:45 | 11.25 ℃ | 100 % | 1020.96 hPa |
| 2026-04-23 22:47:45 | 11.38 ℃ | 100 % | 1021.02 hPa |
| 2026-04-23 22:37:45 | 11.54 ℃ | 100 % | 1021.06 hPa |
| 2026-04-23 22:27:46 | 11.44 ℃ | 100 % | 1021.09 hPa |
| 2026-04-23 22:17:46 | 11.85 ℃ | 100 % | 1021.09 hPa |
| 2026-04-23 22:07:46 | 11.93 ℃ | 100 % | 1021.11 hPa |
| 2026-04-23 21:57:45 | 12.11 ℃ | 100 % | 1021.11 hPa |
| 2026-04-23 21:47:46 | 12.47 ℃ | 100 % | 1021.07 hPa |
| 2026-04-23 21:37:46 | 12.77 ℃ | 100 % | 1021.11 hPa |
| 2026-04-23 21:27:46 | 12.95 ℃ | 100 % | 1021.12 hPa |
| 2026-04-23 21:17:46 | 13.48 ℃ | 100 % | 1021.09 hPa |
| 2026-04-23 21:07:46 | 13.75 ℃ | 100 % | 1021.13 hPa |
| 2026-04-23 20:57:46 | 14.16 ℃ | 100 % | 1021.13 hPa |
| 2026-04-23 20:47:46 | 14.48 ℃ | 100 % | 1021.14 hPa |
| 2026-04-23 20:37:46 | 14.75 ℃ | 100 % | 1021.17 hPa |
| 2026-04-23 20:27:46 | 14.96 ℃ | 100 % | 1021.2 hPa |
| 2026-04-23 20:17:46 | 15.37 ℃ | 100 % | 1021.23 hPa |
| 2026-04-23 20:07:46 | 15.76 ℃ | 100 % | 1021.22 hPa |
| 2026-04-23 19:57:46 | 15.97 ℃ | 100 % | 1021.23 hPa |
| 2026-04-23 19:47:46 | 16.07 ℃ | 100 % | 1021.27 hPa |
| 2026-04-23 19:37:47 | 16.48 ℃ | 100 % | 1021.24 hPa |
| 2026-04-23 19:27:47 | 16.81 ℃ | 100 % | 1021.28 hPa |
| 2026-04-23 19:17:46 | 16.77 ℃ | 100 % | 1021.29 hPa |
| 2026-04-23 19:07:46 | 16.91 ℃ | 100 % | 1021.33 hPa |
| 2026-04-23 18:57:46 | 17.32 ℃ | 100 % | 1021.37 hPa |
| 2026-04-23 18:47:46 | 17.54 ℃ | 100 % | 1021.43 hPa |
| 2026-04-23 18:37:46 | 17.59 ℃ | 100 % | 1021.51 hPa |
| 2026-04-23 18:27:46 | 17.77 ℃ | 100 % | 1021.57 hPa |
| 2026-04-23 18:17:47 | 18.35 ℃ | 100 % | 1021.65 hPa |
| 2026-04-23 18:07:46 | 18.67 ℃ | 100 % | 1021.7 hPa |
| 2026-04-23 17:57:46 | 18.96 ℃ | 100 % | 1021.74 hPa |
| 2026-04-23 17:47:46 | 19.27 ℃ | 100 % | 1021.8 hPa |
| 2026-04-23 17:37:46 | 19.45 ℃ | 100 % | 1021.89 hPa |
| 2026-04-23 17:27:46 | 19.42 ℃ | 100 % | 1021.98 hPa |
| 2026-04-23 17:17:46 | 19.27 ℃ | 100 % | 1022.08 hPa |
| 2026-04-23 17:07:46 | 19.51 ℃ | 100 % | 1022.14 hPa |
| 2026-04-23 16:57:46 | 19.55 ℃ | 100 % | 1022.23 hPa |
| 2026-04-23 16:47:46 | 19.55 ℃ | 100 % | 1022.37 hPa |
| 2026-04-23 16:37:46 | 19.51 ℃ | 100 % | 1022.53 hPa |
| 2026-04-23 16:27:46 | 19.42 ℃ | 100 % | 1022.64 hPa |
| 2026-04-23 16:17:46 | 19.69 ℃ | 100 % | 1022.72 hPa |
| 2026-04-23 16:07:46 | 19.92 ℃ | 100 % | 1022.83 hPa |
| 2026-04-23 15:57:46 | 19.87 ℃ | 100 % | 1022.93 hPa |
| 2026-04-23 15:47:46 | 20.03 ℃ | 100 % | 1023.02 hPa |
| 2026-04-23 15:37:46 | 19.6 ℃ | 100 % | 1023.15 hPa |
| 2026-04-23 15:27:46 | 19.4 ℃ | 100 % | 1023.35 hPa |
| 2026-04-23 15:17:46 | 19.46 ℃ | 100 % | 1023.46 hPa |
| 2026-04-23 15:07:46 | 19.47 ℃ | 100 % | 1023.6 hPa |
| 2026-04-23 14:57:46 | 19.63 ℃ | 100 % | 1023.69 hPa |
| 2026-04-23 14:47:46 | 19.68 ℃ | 100 % | 1023.79 hPa |
| 2026-04-23 14:37:46 | 19.45 ℃ | 100 % | 1023.89 hPa |
| 2026-04-23 14:27:46 | 19.39 ℃ | 100 % | 1024 hPa |
| 2026-04-23 14:17:46 | 19.35 ℃ | 100 % | 1024.06 hPa |
| 2026-04-23 14:07:46 | 19.34 ℃ | 100 % | 1024.13 hPa |
| 2026-04-23 13:57:46 | 19.12 ℃ | 100 % | 1024.18 hPa |
| 2026-04-23 13:47:47 | 18.91 ℃ | 100 % | 1024.24 hPa |
| 2026-04-23 13:37:47 | 18.66 ℃ | 100 % | 1024.29 hPa |
| 2026-04-23 13:27:46 | 18.6 ℃ | 100 % | 1024.36 hPa |
| 2026-04-23 13:17:46 | 18.35 ℃ | 100 % | 1024.44 hPa |
| 2026-04-23 13:07:47 | 18.64 ℃ | 100 % | 1024.53 hPa |
| 2026-04-23 12:57:47 | 18.42 ℃ | 100 % | 1024.59 hPa |
| 2026-04-23 12:47:46 | 18.54 ℃ | 100 % | 1024.62 hPa |
| 2026-04-23 12:37:46 | 18.6 ℃ | 100 % | 1024.69 hPa |
| 2026-04-23 12:27:46 | 18.41 ℃ | 100 % | 1024.76 hPa |
| 2026-04-23 12:17:46 | 18.42 ℃ | 100 % | 1024.83 hPa |
| 2026-04-23 12:07:46 | 17.96 ℃ | 100 % | 1024.92 hPa |
| 2026-04-23 11:57:46 | 17.35 ℃ | 100 % | 1024.97 hPa |
| 2026-04-23 11:47:47 | 17.45 ℃ | 100 % | 1024.99 hPa |
| 2026-04-23 11:37:47 | 16.92 ℃ | 100 % | 1025.07 hPa |
| 2026-04-23 11:27:47 | 16.77 ℃ | 100 % | 1025.13 hPa |
| 2026-04-23 11:17:47 | 16.52 ℃ | 100 % | 1025.11 hPa |
| 2026-04-23 11:07:47 | 16.7 ℃ | 100 % | 1025.04 hPa |
| 2026-04-23 10:57:47 | 16.43 ℃ | 100 % | 1025.09 hPa |
| 2026-04-23 10:47:47 | 16.17 ℃ | 100 % | 1025.09 hPa |
| 2026-04-23 10:37:47 | 15.85 ℃ | 100 % | 1025.09 hPa |
| 2026-04-23 10:27:47 | 15.7 ℃ | 100 % | 1025.07 hPa |
| 2026-04-23 10:17:47 | 15.45 ℃ | 100 % | 1025.02 hPa |
| 2026-04-23 10:07:47 | 15.59 ℃ | 100 % | 1025.06 hPa |
| 2026-04-23 09:57:47 | 15.26 ℃ | 100 % | 1025.1 hPa |
| 2026-04-23 09:47:47 | 14.5 ℃ | 100 % | 1025.13 hPa |
| 2026-04-23 09:37:47 | 14.09 ℃ | 100 % | 1025.11 hPa |
| 2026-04-23 09:27:47 | 13.74 ℃ | 100 % | 1025.08 hPa |
| 2026-04-23 09:17:47 | 13.64 ℃ | 100 % | 1025.03 hPa |
| 2026-04-23 09:07:47 | 13.1 ℃ | 100 % | 1024.99 hPa |
| 2026-04-23 08:57:47 | 12.99 ℃ | 100 % | 1024.97 hPa |
| 2026-04-23 08:47:47 | 12.24 ℃ | 100 % | 1025.01 hPa |
| 2026-04-23 08:37:47 | 12.13 ℃ | 100 % | 1025.01 hPa |
| 2026-04-23 08:27:47 | 11.8 ℃ | 100 % | 1025.03 hPa |
| 2026-04-23 08:17:47 | 11.82 ℃ | 100 % | 1024.98 hPa |
| 2026-04-23 08:07:47 | 11.56 ℃ | 100 % | 1025.01 hPa |
| 2026-04-23 07:57:47 | 11.73 ℃ | 100 % | 1025.01 hPa |
| 2026-04-23 07:47:47 | 11.46 ℃ | 100 % | 1025.04 hPa |
| 2026-04-23 07:37:47 | 11.34 ℃ | 100 % | 1024.98 hPa |
| 2026-04-23 07:27:47 | 11.37 ℃ | 100 % | 1024.96 hPa |
| 2026-04-23 07:17:47 | 11.25 ℃ | 100 % | 1024.82 hPa |
| 2026-04-23 07:07:47 | 11.05 ℃ | 100 % | 1024.69 hPa |
| 2026-04-23 06:57:47 | 11.04 ℃ | 100 % | 1024.63 hPa |
| 2026-04-23 06:47:47 | 10.79 ℃ | 100 % | 1024.58 hPa |
| 2026-04-23 06:37:47 | 10.34 ℃ | 100 % | 1024.55 hPa |
| 2026-04-23 06:27:48 | 10.03 ℃ | 100 % | 1024.54 hPa |
| 2026-04-23 06:17:47 | 9.98 ℃ | 100 % | 1024.61 hPa |
| 2026-04-23 06:07:47 | 9.75 ℃ | 100 % | 1024.64 hPa |
| 2026-04-23 05:57:47 | 9.8 ℃ | 100 % | 1024.7 hPa |
| 2026-04-23 05:47:47 | 9.62 ℃ | 100 % | 1024.78 hPa |
| 2026-04-23 05:37:47 | 9.57 ℃ | 100 % | 1024.82 hPa |
| 2026-04-23 05:27:48 | 9.5 ℃ | 100 % | 1024.92 hPa |
| 2026-04-23 05:17:47 | 9.57 ℃ | 100 % | 1024.97 hPa |
| 2026-04-23 05:07:47 | 9.41 ℃ | 100 % | 1024.97 hPa |
| 2026-04-23 04:57:47 | 9.36 ℃ | 100 % | 1024.89 hPa |
| 2026-04-23 04:47:47 | 9.24 ℃ | 100 % | 1024.86 hPa |
| 2026-04-23 04:37:47 | 9.32 ℃ | 100 % | 1024.92 hPa |
| 2026-04-23 04:27:47 | 9.31 ℃ | 100 % | 1025.01 hPa |
| 2026-04-23 04:17:47 | 9.32 ℃ | 100 % | 1025.05 hPa |
| 2026-04-23 04:07:47 | 9.24 ℃ | 100 % | 1025.06 hPa |
| 2026-04-23 03:57:47 | 9.24 ℃ | 100 % | 1025.11 hPa |
| 2026-04-23 03:47:47 | 9.54 ℃ | 100 % | 1025.15 hPa |
| 2026-04-23 03:37:47 | 9.57 ℃ | 100 % | 1025.17 hPa |
| 2026-04-23 03:27:47 | 9.34 ℃ | 100 % | 1025.22 hPa |
| 2026-04-23 03:17:47 | 9.5 ℃ | 100 % | 1025.27 hPa |
| 2026-04-23 03:07:47 | 9.54 ℃ | 100 % | 1025.29 hPa |
| 2026-04-23 02:57:47 | 9.7 ℃ | 100 % | 1025.33 hPa |
| 2026-04-23 02:47:47 | 9.5 ℃ | 100 % | 1025.4 hPa |
| 2026-04-23 02:37:47 | 9.62 ℃ | 100 % | 1025.41 hPa |
| 2026-04-23 02:27:47 | 9.68 ℃ | 100 % | 1025.49 hPa |
| 2026-04-23 02:17:47 | 9.75 ℃ | 100 % | 1025.57 hPa |
| 2026-04-23 02:07:47 | 9.94 ℃ | 100 % | 1025.6 hPa |
| 2026-04-23 01:57:48 | 10.33 ℃ | 100 % | 1025.65 hPa |
| 2026-04-23 01:47:47 | 10.3 ℃ | 100 % | 1025.7 hPa |
| 2026-04-23 01:37:47 | 10.29 ℃ | 100 % | 1025.66 hPa |
| 2026-04-23 01:27:47 | 10.01 ℃ | 100 % | 1025.66 hPa |
| 2026-04-23 01:17:47 | 9.85 ℃ | 100 % | 1025.67 hPa |
| 2026-04-23 01:07:47 | 9.64 ℃ | 100 % | 1025.72 hPa |
| 2026-04-23 00:57:49 | 9.8 ℃ | 100 % | 1025.77 hPa |
| 2026-04-23 00:47:47 | 9.82 ℃ | 100 % | 1025.83 hPa |
| 2026-04-23 00:37:48 | 9.84 ℃ | 100 % | 1025.84 hPa |
| 2026-04-23 00:27:47 | 9.81 ℃ | 100 % | 1025.86 hPa |
| 2026-04-23 00:17:48 | 10.05 ℃ | 100 % | 1025.91 hPa |
| 2026-04-23 00:07:48 | 10.45 ℃ | 100 % | 1025.94 hPa |
| 2026-04-22 23:57:48 | 10.53 ℃ | 100 % | 1025.89 hPa |
| 2026-04-22 23:47:47 | 10.69 ℃ | 99.99 % | 1025.8 hPa |
| 2026-04-22 23:37:47 | 11.28 ℃ | 99.98 % | 1025.72 hPa |
| 2026-04-22 23:27:48 | 11.58 ℃ | 99.97 % | 1025.67 hPa |
| 2026-04-22 23:17:49 | 11.49 ℃ | 99.94 % | 1025.63 hPa |
| 2026-04-22 23:07:48 | 11.77 ℃ | 99.88 % | 1025.64 hPa |
| 2026-04-22 22:57:48 | 11.96 ℃ | 99.76 % | 1025.61 hPa |
| 2026-04-22 22:47:48 | 12.33 ℃ | 99.51 % | 1025.57 hPa |
| 2026-04-22 22:37:48 | 12.91 ℃ | 99.03 % | 1025.45 hPa |
| 2026-04-22 22:27:48 | 13.08 ℃ | 98.05 % | 1025.4 hPa |
| 2026-04-22 22:17:48 | 13.53 ℃ | 96.11 % | 1025.37 hPa |
| 2026-04-22 22:07:48 | 13.92 ℃ | 92.22 % | 1025.34 hPa |
| 2026-04-22 21:57:48 | 14.29 ℃ | 84.43 % | 1025.33 hPa |
| 2026-04-22 21:47:48 | 14.68 ℃ | 68.86 % | 1025.34 hPa |
| 2026-04-22 21:37:48 | 15.05 ℃ | 57.93 % | 1025.29 hPa |
| 2026-04-22 21:27:48 | 15.03 ℃ | 54.5 % | 1025.27 hPa |
| 2026-04-22 21:17:48 | 15.45 ℃ | 52.96 % | 1025.22 hPa |
| 2026-04-22 21:07:48 | 15.53 ℃ | 52.75 % | 1025.16 hPa |
| 2026-04-22 20:57:48 | 16.1 ℃ | 52.37 % | 1025.12 hPa |
| 2026-04-22 20:47:48 | 16.7 ℃ | 51.55 % | 1025.08 hPa |
| 2026-04-22 20:40:57 | 16.92 ℃ | 46.69 % | 1025.02 hPa |
| 2026-04-22 20:30:57 | 17.01 ℃ | 43.68 % | 1024.98 hPa |
| 2026-04-22 20:20:57 | 17.24 ℃ | 43.81 % | 1024.95 hPa |
| 2026-04-22 20:10:57 | 17.69 ℃ | 44.01 % | 1024.93 hPa |
| 2026-04-22 20:00:57 | 17.85 ℃ | 45.05 % | 1025 hPa |
| 2026-04-22 20:00:30 | 17.85 ℃ | 45.67 % | 1025.09 hPa |
| 2026-04-22 19:50:30 | 18 ℃ | 46.41 % | 1025.14 hPa |
| 2026-04-22 19:40:30 | 17.91 ℃ | 46.4 % | 1025.18 hPa |
| 2026-04-22 19:40:26 | 17.85 ℃ | 46.39 % | 1025.23 hPa |
| 2026-04-22 19:36:22 | 18.57 ℃ | 46.42 % | 1025.17 hPa |
| 2026-04-22 19:26:22 | 18.8 ℃ | 46.59 % | 1025.2 hPa |
| 2026-04-22 19:16:22 | 19.15 ℃ | 45.86 % | 1025.22 hPa |
| 2026-04-22 19:06:23 | 19.27 ℃ | 44.81 % | 1025.23 hPa |
| 2026-04-22 18:56:22 | 19.28 ℃ | 43.64 % | 1025.28 hPa |
| 2026-04-22 18:46:23 | 19.46 ℃ | 41.78 % | 1025.37 hPa |
| 2026-04-22 18:36:22 | 19.53 ℃ | 40.28 % | 1025.49 hPa |
| 2026-04-22 18:26:22 | 19.79 ℃ | 38.99 % | 1025.65 hPa |
| 2026-04-22 18:16:23 | 19.47 ℃ | 38.49 % | 1025.71 hPa |
| 2026-04-22 18:06:23 | 19.51 ℃ | 38.48 % | 1025.72 hPa |
| 2026-04-22 17:56:22 | 19.48 ℃ | 38.27 % | 1025.68 hPa |
| 2026-04-22 17:46:22 | 19.79 ℃ | 37.51 % | 1025.66 hPa |
| 2026-04-22 17:36:22 | 19.88 ℃ | 36.92 % | 1025.68 hPa |
| 2026-04-22 17:26:23 | 19.97 ℃ | 36.22 % | 1025.76 hPa |
| 2026-04-22 17:16:22 | 19.96 ℃ | 36.31 % | 1025.85 hPa |
| 2026-04-22 17:06:22 | 19.98 ℃ | 36.55 % | 1025.92 hPa |
| 2026-04-22 16:56:23 | 20.04 ℃ | 37.29 % | 1025.9 hPa |
| 2026-04-22 16:46:23 | 19.88 ℃ | 38.5 % | 1025.9 hPa |
| 2026-04-22 16:36:22 | 20.27 ℃ | 39.48 % | 1025.96 hPa |
| 2026-04-22 16:26:22 | 20.39 ℃ | 39.04 % | 1025.98 hPa |
| 2026-04-22 16:16:22 | 20.48 ℃ | 37.73 % | 1025.96 hPa |
| 2026-04-22 16:06:23 | 20.16 ℃ | 37.75 % | 1025.98 hPa |
| 2026-04-22 15:56:22 | 20.28 ℃ | 37.88 % | 1026.06 hPa |
| 2026-04-22 15:46:23 | 20.14 ℃ | 38.48 % | 1026.21 hPa |
| 2026-04-22 15:36:22 | 19.94 ℃ | 39.15 % | 1026.34 hPa |
| 2026-04-22 15:26:23 | 20.01 ℃ | 40.46 % | 1026.36 hPa |
| 2026-04-22 15:16:23 | 20.09 ℃ | 41.66 % | 1026.35 hPa |
| 2026-04-22 15:06:23 | 19.99 ℃ | 43.66 % | 1026.41 hPa |
| 2026-04-22 14:56:23 | 20.3 ℃ | 44.28 % | 1026.45 hPa |
| 2026-04-22 14:46:23 | 20.69 ℃ | 43.45 % | 1026.45 hPa |
| 2026-04-22 14:36:23 | 20.67 ℃ | 43.03 % | 1026.51 hPa |
| 2026-04-22 14:26:23 | 20.65 ℃ | 42.17 % | 1026.53 hPa |
| 2026-04-22 14:16:23 | 20.83 ℃ | 41.19 % | 1026.58 hPa |
| 2026-04-22 14:06:23 | 20.41 ℃ | 41.01 % | 1026.66 hPa |
| 2026-04-22 13:56:23 | 20.04 ℃ | 41.75 % | 1026.71 hPa |
| 2026-04-22 13:46:23 | 19.87 ℃ | 42.86 % | 1026.83 hPa |
| 2026-04-22 13:36:23 | 19.75 ℃ | 44.05 % | 1026.9 hPa |
| 2026-04-22 13:26:23 | 19.91 ℃ | 44.63 % | 1026.93 hPa |
| 2026-04-22 13:16:23 | 19.78 ℃ | 44.91 % | 1027.03 hPa |
| 2026-04-22 13:06:23 | 19.82 ℃ | 45.58 % | 1027.09 hPa |
| 2026-04-22 12:56:23 | 19.24 ℃ | 45.38 % | 1027.14 hPa |
| 2026-04-22 12:46:23 | 18.95 ℃ | 46.16 % | 1027.21 hPa |
| 2026-04-22 12:36:23 | 19.03 ℃ | 47.92 % | 1027.2 hPa |
| 2026-04-22 12:26:23 | 18.9 ℃ | 49.48 % | 1027.19 hPa |
| 2026-04-22 12:16:23 | 18.95 ℃ | 50.95 % | 1027.17 hPa |
| 2026-04-22 12:06:23 | 18.97 ℃ | 52.49 % | 1027.24 hPa |
| 2026-04-22 11:56:23 | 18.86 ℃ | 53.21 % | 1027.34 hPa |
| 2026-04-22 11:46:23 | 18.39 ℃ | 53.56 % | 1027.38 hPa |
| 2026-04-22 11:36:23 | 18.41 ℃ | 54.27 % | 1027.45 hPa |
| 2026-04-22 11:26:23 | 18.28 ℃ | 54.01 % | 1027.5 hPa |
| 2026-04-22 11:16:23 | 18.16 ℃ | 54.91 % | 1027.52 hPa |
| 2026-04-22 11:06:23 | 18.04 ℃ | 58.44 % | 1027.59 hPa |
| 2026-04-22 10:56:23 | 17.73 ℃ | 59.21 % | 1027.68 hPa |
| 2026-04-22 10:46:23 | 17.72 ℃ | 60.37 % | 1027.74 hPa |
| 2026-04-22 10:36:23 | 17.68 ℃ | 61.49 % | 1027.76 hPa |
| 2026-04-22 10:26:23 | 17.27 ℃ | 61.75 % | 1027.74 hPa |
| 2026-04-22 10:16:23 | 17.21 ℃ | 60.74 % | 1027.67 hPa |
| 2026-04-22 10:06:23 | 16.91 ℃ | 59.11 % | 1027.62 hPa |
| 2026-04-22 09:56:23 | 16.76 ℃ | 57.85 % | 1027.58 hPa |
| 2026-04-22 09:46:23 | 16.64 ℃ | 57.37 % | 1027.53 hPa |
| 2026-04-22 09:36:25 | 16.65 ℃ | 57.51 % | 1027.5 hPa |
| 2026-04-22 09:26:23 | 16.46 ℃ | 57.91 % | 1027.5 hPa |
| 2026-04-22 09:16:23 | 16.38 ℃ | 59.78 % | 1027.51 hPa |
| 2026-04-22 09:06:23 | 16.25 ℃ | 61.91 % | 1027.6 hPa |
| 2026-04-22 08:56:23 | 16.26 ℃ | 64.86 % | 1027.65 hPa |
| 2026-04-22 08:46:23 | 15.77 ℃ | 67.86 % | 1027.67 hPa |
| 2026-04-22 08:36:23 | 15.18 ℃ | 69.97 % | 1027.71 hPa |
| 2026-04-22 08:26:23 | 14.71 ℃ | 71.57 % | 1027.79 hPa |
| 2026-04-22 08:16:23 | 14.62 ℃ | 72.37 % | 1027.8 hPa |
| 2026-04-22 08:06:23 | 14.47 ℃ | 73.9 % | 1027.81 hPa |
| 2026-04-22 07:56:23 | 14.04 ℃ | 75.7 % | 1027.83 hPa |
| 2026-04-22 07:46:23 | 13.57 ℃ | 78.89 % | 1027.89 hPa |
| 2026-04-22 07:36:23 | 13.6 ℃ | 81.15 % | 1027.88 hPa |
| 2026-04-22 07:26:23 | 13.23 ℃ | 84.98 % | 1027.85 hPa |
| 2026-04-22 07:16:23 | 12.62 ℃ | 89.42 % | 1027.79 hPa |
| 2026-04-22 07:06:23 | 12.11 ℃ | 93 % | 1027.77 hPa |
| 2026-04-22 06:56:23 | 11.86 ℃ | 94 % | 1027.78 hPa |
| 2026-04-22 06:46:23 | 11.51 ℃ | 94.78 % | 1027.76 hPa |
| 2026-04-22 06:36:24 | 11.38 ℃ | 95.83 % | 1027.73 hPa |
| 2026-04-22 06:26:23 | 11.13 ℃ | 98.18 % | 1027.71 hPa |
| 2026-04-22 06:16:24 | 10.79 ℃ | 97.45 % | 1027.68 hPa |
| 2026-04-22 06:06:23 | 10.56 ℃ | 96.87 % | 1027.66 hPa |
| 2026-04-22 05:56:23 | 10.94 ℃ | 93.73 % | 1027.65 hPa |
| 2026-04-22 05:46:24 | 11.01 ℃ | 94.13 % | 1027.65 hPa |
| 2026-04-22 05:36:23 | 11.2 ℃ | 95.4 % | 1027.64 hPa |
| 2026-04-22 05:26:24 | 11.21 ℃ | 97.03 % | 1027.62 hPa |
| 2026-04-22 05:16:23 | 11.33 ℃ | 97.18 % | 1027.63 hPa |
| 2026-04-22 05:06:23 | 11.35 ℃ | 97.99 % | 1027.62 hPa |
| 2026-04-22 04:56:23 | 11.21 ℃ | 99.28 % | 1027.66 hPa |
| 2026-04-22 04:46:23 | 10.96 ℃ | 99.77 % | 1027.7 hPa |
| 2026-04-22 04:36:24 | 11.07 ℃ | 99.54 % | 1027.71 hPa |
| 2026-04-22 04:26:23 | 11.16 ℃ | 99.08 % | 1027.77 hPa |
| 2026-04-22 04:16:23 | 11.21 ℃ | 98.17 % | 1027.85 hPa |
| 2026-04-22 04:06:24 | 11.21 ℃ | 97.78 % | 1027.88 hPa |
| 2026-04-22 03:56:24 | 11.15 ℃ | 96.94 % | 1027.9 hPa |
| 2026-04-22 03:46:24 | 11.29 ℃ | 93.88 % | 1027.88 hPa |
| 2026-04-22 03:36:24 | 11.45 ℃ | 89.83 % | 1027.87 hPa |
| 2026-04-22 03:26:24 | 11.65 ℃ | 87.57 % | 1027.86 hPa |
| 2026-04-22 03:16:24 | 11.69 ℃ | 87.18 % | 1027.91 hPa |
| 2026-04-22 03:06:24 | 11.7 ℃ | 86.89 % | 1027.97 hPa |
| 2026-04-22 02:56:24 | 11.88 ℃ | 86.6 % | 1028.03 hPa |
| 2026-04-22 02:46:24 | 11.9 ℃ | 86.54 % | 1028.08 hPa |
| 2026-04-22 02:36:24 | 11.89 ℃ | 87.31 % | 1028.09 hPa |
| 2026-04-22 02:26:24 | 11.87 ℃ | 88.23 % | 1028.08 hPa |
| 2026-04-22 02:16:24 | 11.66 ℃ | 90.55 % | 1028.11 hPa |
| 2026-04-22 02:06:24 | 11.46 ℃ | 92.72 % | 1028.13 hPa |
| 2026-04-22 01:56:24 | 11.57 ℃ | 93.24 % | 1028.14 hPa |
| 2026-04-22 01:46:24 | 11.66 ℃ | 90.97 % | 1028.16 hPa |
| 2026-04-22 01:36:24 | 12.39 ℃ | 81.95 % | 1028.13 hPa |
| 2026-04-22 01:26:25 | 12.63 ℃ | 78.78 % | 1028.07 hPa |
| 2026-04-22 01:16:24 | 12.73 ℃ | 77.69 % | 1028 hPa |
| 2026-04-22 01:06:25 | 12.7 ℃ | 78.2 % | 1027.95 hPa |
| 2026-04-22 00:56:24 | 12.72 ℃ | 79.19 % | 1027.91 hPa |
| 2026-04-22 00:46:24 | 12.59 ℃ | 79.4 % | 1027.89 hPa |
| 2026-04-22 00:36:25 | 12.46 ℃ | 79.84 % | 1027.85 hPa |
| 2026-04-22 00:26:25 | 12.39 ℃ | 78.51 % | 1027.84 hPa |
| 2026-04-22 00:16:24 | 12.63 ℃ | 75.71 % | 1027.83 hPa |
| 2026-04-22 00:06:24 | 13.25 ℃ | 72.24 % | 1027.83 hPa |
| 2026-04-21 23:56:24 | 13.4 ℃ | 69.06 % | 1027.82 hPa |
| 2026-04-21 23:46:24 | 13.51 ℃ | 66.8 % | 1027.77 hPa |
| 2026-04-21 23:36:24 | 13.8 ℃ | 66.09 % | 1027.73 hPa |
| 2026-04-21 23:26:24 | 13.49 ℃ | 66.12 % | 1027.78 hPa |
| 2026-04-21 23:16:24 | 13.38 ℃ | 66.02 % | 1027.81 hPa |
| 2026-04-21 23:06:24 | 12.89 ℃ | 67.12 % | 1027.81 hPa |
| 2026-04-21 22:56:24 | 12.76 ℃ | 67.68 % | 1027.82 hPa |
| 2026-04-21 22:46:24 | 13.06 ℃ | 66.3 % | 1027.81 hPa |
| 2026-04-21 22:36:24 | 13.6 ℃ | 64.21 % | 1027.78 hPa |
| 2026-04-21 22:26:24 | 13.31 ℃ | 63.88 % | 1027.78 hPa |
| 2026-04-21 22:16:24 | 13.52 ℃ | 60.69 % | 1027.72 hPa |
| 2026-04-21 22:06:24 | 13.57 ℃ | 60.85 % | 1027.69 hPa |
| 2026-04-21 21:56:24 | 13.33 ℃ | 61.5 % | 1027.67 hPa |
| 2026-04-21 21:46:24 | 13.43 ℃ | 61.49 % | 1027.63 hPa |
| 2026-04-21 21:36:24 | 13 ℃ | 62.27 % | 1027.62 hPa |
| 2026-04-21 21:26:24 | 13.15 ℃ | 61.89 % | 1027.6 hPa |
| 2026-04-21 21:16:24 | 13.03 ℃ | 63.43 % | 1027.61 hPa |
| 2026-04-21 21:06:24 | 13.31 ℃ | 64.87 % | 1027.54 hPa |
| 2026-04-21 20:56:25 | 12.76 ℃ | 66.05 % | 1027.52 hPa |
| 2026-04-21 20:46:25 | 12.87 ℃ | 65.52 % | 1027.45 hPa |
| 2026-04-21 20:36:24 | 12.53 ℃ | 66.6 % | 1027.44 hPa |
| 2026-04-21 20:26:24 | 12.75 ℃ | 65.63 % | 1027.34 hPa |
| 2026-04-21 20:16:24 | 12.79 ℃ | 64.07 % | 1027.27 hPa |
| 2026-04-21 20:06:25 | 12.97 ℃ | 63.13 % | 1027.25 hPa |
| 2026-04-21 19:56:24 | 12.98 ℃ | 63.57 % | 1027.26 hPa |
| 2026-04-21 19:46:25 | 13.02 ℃ | 63.55 % | 1027.22 hPa |
| 2026-04-21 19:36:25 | 13.26 ℃ | 62.84 % | 1027.17 hPa |
| 2026-04-21 19:26:24 | 13.3 ℃ | 62.86 % | 1027.15 hPa |
| 2026-04-21 19:16:24 | 13.48 ℃ | 62.68 % | 1027.16 hPa |
| 2026-04-21 19:06:25 | 13.35 ℃ | 62.65 % | 1027.21 hPa |
| 2026-04-21 18:56:25 | 13.44 ℃ | 62.78 % | 1027.23 hPa |
| 2026-04-21 18:46:24 | 13.86 ℃ | 62.41 % | 1027.18 hPa |
| 2026-04-21 18:36:24 | 13.56 ℃ | 62.95 % | 1027.23 hPa |
| 2026-04-21 18:26:24 | 13.5 ℃ | 63.8 % | 1027.28 hPa |
| 2026-04-21 18:16:25 | 13.33 ℃ | 64.59 % | 1027.31 hPa |
| 2026-04-21 18:06:24 | 13.17 ℃ | 65.25 % | 1027.37 hPa |
| 2026-04-21 17:56:25 | 13.15 ℃ | 66.21 % | 1027.41 hPa |
| 2026-04-21 17:46:24 | 13.23 ℃ | 65.84 % | 1027.46 hPa |
| 2026-04-21 17:36:24 | 13.07 ℃ | 65.88 % | 1027.51 hPa |
| 2026-04-21 17:26:25 | 13.21 ℃ | 66.85 % | 1027.58 hPa |
| 2026-04-21 17:16:24 | 13.64 ℃ | 64.95 % | 1027.6 hPa |
| 2026-04-21 17:06:24 | 13.64 ℃ | 65.25 % | 1027.62 hPa |
| 2026-04-21 16:56:25 | 13.45 ℃ | 65.31 % | 1027.62 hPa |
| 2026-04-21 16:46:24 | 13.02 ℃ | 66.53 % | 1027.68 hPa |
| 2026-04-21 16:36:25 | 12.73 ℃ | 67.19 % | 1027.77 hPa |
| 2026-04-21 16:26:26 | 12.94 ℃ | 67.04 % | 1027.83 hPa |
| 2026-04-21 16:16:25 | 12.92 ℃ | 67.98 % | 1027.96 hPa |
| 2026-04-21 16:06:25 | 12.56 ℃ | 68.88 % | 1028 hPa |
| 2026-04-21 15:56:25 | 12.72 ℃ | 68.95 % | 1027.95 hPa |
| 2026-04-21 15:46:25 | 12.75 ℃ | 69.13 % | 1028.1 hPa |
| 2026-04-21 15:36:25 | 12.84 ℃ | 69.36 % | 1028.17 hPa |
| 2026-04-21 15:26:25 | 13.07 ℃ | 69.55 % | 1028.14 hPa |
| 2026-04-21 15:16:25 | 12.74 ℃ | 69.76 % | 1028.19 hPa |
| 2026-04-21 15:06:25 | 12.72 ℃ | 69.75 % | 1028.28 hPa |
| 2026-04-21 14:56:25 | 12.47 ℃ | 69.58 % | 1028.35 hPa |
| 2026-04-21 14:46:25 | 12.26 ℃ | 69.53 % | 1028.41 hPa |
| 2026-04-21 14:36:25 | 12.24 ℃ | 70.85 % | 1028.45 hPa |
| 2026-04-21 14:26:25 | 12.3 ℃ | 69.66 % | 1028.49 hPa |
| 2026-04-21 14:16:25 | 12.17 ℃ | 69.79 % | 1028.49 hPa |
| 2026-04-21 14:06:25 | 12.68 ℃ | 68.4 % | 1028.5 hPa |
| 2026-04-21 13:56:25 | 12.47 ℃ | 68.37 % | 1028.58 hPa |
| 2026-04-21 13:46:25 | 12.4 ℃ | 69.13 % | 1028.5 hPa |
| 2026-04-21 13:36:25 | 11.88 ℃ | 70.18 % | 1028.49 hPa |
| 2026-04-21 13:26:25 | 11.54 ℃ | 71.44 % | 1028.52 hPa |
| 2026-04-21 13:16:25 | 11.47 ℃ | 74.04 % | 1028.52 hPa |
| 2026-04-21 13:06:25 | 11.58 ℃ | 75.46 % | 1028.47 hPa |
| 2026-04-21 12:56:25 | 11.7 ℃ | 77.85 % | 1028.42 hPa |
| 2026-04-21 12:46:25 | 11.72 ℃ | 80.88 % | 1028.36 hPa |
| 2026-04-21 12:36:25 | 11.5 ℃ | 82.39 % | 1028.31 hPa |
| 2026-04-21 12:26:25 | 11.35 ℃ | 80.3 % | 1028.34 hPa |
| 2026-04-21 12:16:25 | 11.52 ℃ | 79.66 % | 1028.28 hPa |
| 2026-04-21 12:06:25 | 11.35 ℃ | 80.25 % | 1028.32 hPa |
| 2026-04-21 11:56:25 | 11.54 ℃ | 77.6 % | 1028.34 hPa |
| 2026-04-21 11:46:25 | 11.65 ℃ | 75.95 % | 1028.36 hPa |
| 2026-04-21 11:36:25 | 11.44 ℃ | 81.28 % | 1028.39 hPa |
| 2026-04-21 11:26:25 | 11.55 ℃ | 88.48 % | 1028.35 hPa |
| 2026-04-21 11:16:25 | 11.39 ℃ | 96.12 % | 1028.37 hPa |
| 2026-04-21 11:06:25 | 11.62 ℃ | 99.78 % | 1028.32 hPa |
| 2026-04-21 10:56:25 | 11.61 ℃ | 99.56 % | 1028.3 hPa |
| 2026-04-21 10:46:25 | 11.32 ℃ | 99.13 % | 1028.3 hPa |
| 2026-04-21 10:36:25 | 11.5 ℃ | 98.26 % | 1028.2 hPa |
| 2026-04-21 10:26:25 | 11.58 ℃ | 99.09 % | 1028.19 hPa |
| 2026-04-21 10:16:26 | 11.09 ℃ | 98.17 % | 1028.16 hPa |
| 2026-04-21 10:06:25 | 11.37 ℃ | 96.34 % | 1028.1 hPa |
| 2026-04-21 09:56:25 | 11.28 ℃ | 97.59 % | 1028.04 hPa |
| 2026-04-21 09:46:26 | 10.67 ℃ | 100 % | 1028.03 hPa |
| 2026-04-21 09:36:25 | 10.94 ℃ | 100 % | 1027.94 hPa |
| 2026-04-21 09:26:25 | 10.78 ℃ | 100 % | 1027.92 hPa |
| 2026-04-21 09:16:25 | 10.68 ℃ | 100 % | 1027.92 hPa |
| 2026-04-21 09:06:25 | 10.35 ℃ | 100 % | 1027.95 hPa |
| 2026-04-21 08:56:25 | 9.95 ℃ | 100 % | 1027.92 hPa |
| 2026-04-21 08:46:25 | 10.08 ℃ | 100 % | 1027.88 hPa |
| 2026-04-21 08:36:26 | 10.28 ℃ | 100 % | 1027.79 hPa |
| 2026-04-21 08:26:25 | 9.95 ℃ | 100 % | 1027.82 hPa |
| 2026-04-21 08:16:25 | 9.92 ℃ | 100 % | 1027.78 hPa |
| 2026-04-21 08:06:25 | 9.93 ℃ | 100 % | 1027.78 hPa |
| 2026-04-21 07:56:25 | 10.21 ℃ | 100 % | 1027.73 hPa |
| 2026-04-14 19:43:25 | 15.71 ℃ | 100 % | 1021.52 hPa |
| 2026-04-14 19:33:25 | 15.71 ℃ | 100 % | 1021.42 hPa |
| 2026-04-14 19:23:25 | 15.77 ℃ | 100 % | 1021.37 hPa |
| 2026-04-14 19:13:25 | 15.93 ℃ | 100 % | 1021.3 hPa |
| 2026-04-14 19:03:26 | 16.33 ℃ | 100 % | 1021.18 hPa |
| 2026-04-14 18:53:25 | 15.85 ℃ | 100 % | 1021.12 hPa |
| 2026-04-14 18:43:25 | 15.95 ℃ | 100 % | 1021.06 hPa |
| 2026-04-14 18:33:26 | 16.06 ℃ | 100 % | 1021.02 hPa |
| 2026-04-14 18:23:25 | 16.2 ℃ | 100 % | 1020.92 hPa |
| 2026-04-14 18:13:25 | 16.43 ℃ | 100 % | 1020.79 hPa |
| 2026-04-14 18:03:26 | 16.28 ℃ | 100 % | 1020.71 hPa |
| 2026-04-14 17:53:26 | 16.25 ℃ | 100 % | 1020.71 hPa |
| 2026-04-14 17:43:26 | 16.19 ℃ | 100 % | 1020.67 hPa |
| 2026-04-14 17:33:25 | 16.3 ℃ | 100 % | 1020.65 hPa |
| 2026-04-14 17:23:25 | 16.29 ℃ | 100 % | 1020.6 hPa |
| 2026-04-14 17:13:26 | 15.78 ℃ | 100 % | 1020.54 hPa |
| 2026-04-14 17:03:25 | 16.12 ℃ | 100 % | 1020.41 hPa |
| 2026-04-14 16:53:25 | 15.86 ℃ | 100 % | 1020.32 hPa |
| 2026-04-14 16:43:26 | 15.43 ℃ | 100 % | 1020.25 hPa |
| 2026-04-14 16:33:26 | 15.47 ℃ | 100 % | 1020.18 hPa |
| 2026-04-14 16:23:25 | 15.14 ℃ | 100 % | 1020.15 hPa |
| 2026-04-14 16:13:25 | 15.18 ℃ | 100 % | 1020.07 hPa |
| 2026-04-14 16:03:26 | 15.31 ℃ | 100 % | 1019.97 hPa |
| 2026-04-14 15:53:26 | 15.32 ℃ | 100 % | 1019.91 hPa |
| 2026-04-14 15:43:26 | 15.75 ℃ | 100 % | 1019.77 hPa |
| 2026-04-14 15:33:26 | 16.04 ℃ | 100 % | 1019.69 hPa |
| 2026-04-14 15:23:26 | 16.07 ℃ | 100 % | 1019.61 hPa |
| 2026-04-14 15:13:26 | 15.89 ℃ | 100 % | 1019.58 hPa |
| 2026-04-14 15:03:26 | 15.74 ℃ | 100 % | 1019.46 hPa |
| 2026-04-14 14:53:26 | 15.8 ℃ | 100 % | 1019.35 hPa |
| 2026-04-14 14:43:26 | 16.18 ℃ | 100 % | 1019.26 hPa |
| 2026-04-14 14:33:26 | 16.34 ℃ | 100 % | 1019.15 hPa |
| 2026-04-14 14:23:26 | 15.76 ℃ | 100 % | 1019.07 hPa |
| 2026-04-14 14:13:26 | 15.5 ℃ | 100 % | 1018.99 hPa |
| 2026-04-14 14:03:26 | 15.61 ℃ | 100 % | 1018.85 hPa |
| 2026-04-14 13:53:26 | 15.47 ℃ | 100 % | 1018.75 hPa |
| 2026-04-14 13:43:26 | 15.97 ℃ | 100 % | 1018.6 hPa |
| 2026-04-14 13:33:26 | 15.92 ℃ | 100 % | 1018.46 hPa |
| 2026-04-14 13:23:26 | 16.15 ℃ | 100 % | 1018.35 hPa |
| 2026-04-14 13:13:26 | 16.44 ℃ | 100 % | 1018.25 hPa |
| 2026-04-14 13:03:26 | 15.83 ℃ | 100 % | 1018.23 hPa |
| 2026-04-14 12:53:26 | 16.02 ℃ | 100 % | 1018.14 hPa |
| 2026-04-14 12:43:26 | 15.7 ℃ | 100 % | 1018.07 hPa |
| 2026-04-14 12:33:26 | 15.71 ℃ | 100 % | 1018.04 hPa |
| 2026-04-14 12:23:27 | 15.3 ℃ | 100 % | 1017.95 hPa |
| 2026-04-14 12:13:26 | 15.49 ℃ | 100 % | 1017.86 hPa |
| 2026-04-14 12:03:26 | 15.32 ℃ | 100 % | 1017.76 hPa |
| 2026-04-14 11:53:26 | 15.13 ℃ | 100 % | 1017.67 hPa |
| 2026-04-14 11:43:26 | 15.61 ℃ | 100 % | 1017.54 hPa |
| 2026-04-14 11:33:26 | 15.34 ℃ | 100 % | 1017.44 hPa |
| 2026-04-14 11:23:26 | 14.88 ℃ | 100 % | 1017.37 hPa |
| 2026-04-14 11:13:26 | 14.83 ℃ | 100 % | 1017.29 hPa |
| 2026-04-14 11:03:26 | 14.58 ℃ | 100 % | 1017.16 hPa |
| 2026-04-14 10:53:27 | 14.68 ℃ | 100 % | 1017.01 hPa |
| 2026-04-14 10:43:27 | 14.39 ℃ | 100 % | 1016.86 hPa |
| 2026-04-14 10:33:27 | 14.64 ℃ | 100 % | 1016.76 hPa |
| 2026-04-14 10:23:26 | 15.13 ℃ | 100 % | 1016.7 hPa |
| 2026-04-14 10:13:26 | 15.01 ℃ | 100 % | 1016.63 hPa |
| 2026-04-14 10:03:26 | 14.87 ℃ | 100 % | 1016.53 hPa |
| 2026-04-14 09:53:26 | 14.82 ℃ | 100 % | 1016.41 hPa |
| 2026-04-14 09:43:26 | 14.76 ℃ | 100 % | 1016.31 hPa |
| 2026-04-14 09:33:27 | 14.35 ℃ | 100 % | 1016.23 hPa |
| 2026-04-14 09:23:27 | 14.04 ℃ | 100 % | 1016.15 hPa |
| 2026-04-14 09:13:26 | 13.67 ℃ | 100 % | 1016.05 hPa |
| 2026-04-14 09:03:28 | 13.42 ℃ | 100 % | 1015.98 hPa |
| 2026-04-14 08:53:26 | 13.05 ℃ | 100 % | 1015.88 hPa |
| 2026-04-14 08:43:26 | 13.47 ℃ | 100 % | 1015.78 hPa |
| 2026-04-14 08:33:26 | 13.25 ℃ | 100 % | 1015.7 hPa |
| 2026-04-14 08:23:26 | 13.51 ℃ | 100 % | 1015.65 hPa |
| 2026-04-14 08:13:27 | 12.92 ℃ | 100 % | 1015.54 hPa |
| 2026-04-14 08:03:27 | 12.92 ℃ | 100 % | 1015.5 hPa |
| 2026-04-14 07:53:27 | 12.62 ℃ | 100 % | 1015.46 hPa |
| 2026-04-14 07:43:26 | 12.3 ℃ | 100 % | 1015.43 hPa |
| 2026-04-14 07:33:26 | 12.23 ℃ | 100 % | 1015.36 hPa |
| 2026-04-14 07:23:26 | 13.07 ℃ | 100 % | 1015.27 hPa |
| 2026-04-14 07:13:26 | 13.82 ℃ | 100 % | 1015.19 hPa |
| 2026-04-14 07:03:26 | 14.28 ℃ | 100 % | 1015.13 hPa |
| 2026-04-14 06:53:27 | 14.5 ℃ | 100 % | 1015.04 hPa |
| 2026-04-14 06:43:26 | 14.57 ℃ | 100 % | 1014.95 hPa |
| 2026-04-14 06:33:26 | 14.51 ℃ | 100 % | 1014.83 hPa |
| 2026-04-14 06:23:26 | 14.1 ℃ | 100 % | 1014.76 hPa |
| 2026-04-14 06:13:26 | 13.8 ℃ | 100 % | 1014.68 hPa |
| 2026-04-14 06:03:26 | 13.17 ℃ | 100 % | 1014.65 hPa |
| 2026-04-14 05:53:26 | 13.39 ℃ | 100 % | 1014.64 hPa |
| 2026-04-14 05:43:26 | 13.48 ℃ | 100 % | 1014.67 hPa |
| 2026-04-14 05:33:27 | 13.3 ℃ | 100 % | 1014.63 hPa |
| 2026-04-14 05:23:27 | 13.16 ℃ | 100 % | 1014.57 hPa |
| 2026-04-14 05:13:27 | 13.16 ℃ | 100 % | 1014.55 hPa |
| 2026-04-14 05:03:27 | 12.53 ℃ | 100 % | 1014.5 hPa |
| 2026-04-14 04:53:27 | 12.21 ℃ | 100 % | 1014.45 hPa |
| 2026-04-14 04:43:27 | 12.01 ℃ | 100 % | 1014.41 hPa |
| 2026-04-14 04:33:27 | 11.85 ℃ | 100 % | 1014.41 hPa |
| 2026-04-14 04:23:27 | 11.97 ℃ | 100 % | 1014.46 hPa |
| 2026-04-14 04:13:27 | 11.88 ℃ | 100 % | 1014.48 hPa |
| 2026-04-14 04:03:27 | 11.6 ℃ | 100 % | 1014.44 hPa |
| 2026-04-14 03:53:27 | 11.97 ℃ | 100 % | 1014.4 hPa |
| 2026-04-14 03:43:27 | 11.87 ℃ | 100 % | 1014.37 hPa |
| 2026-04-14 03:33:27 | 11.84 ℃ | 100 % | 1014.38 hPa |
| 2026-04-14 03:23:27 | 11.53 ℃ | 100 % | 1014.4 hPa |
| 2026-04-14 03:13:27 | 11.48 ℃ | 100 % | 1014.38 hPa |
| 2026-04-14 03:03:27 | 11.69 ℃ | 100 % | 1014.36 hPa |
| 2026-04-14 02:53:27 | 11.54 ℃ | 100 % | 1014.36 hPa |
| 2026-04-14 02:43:27 | 11.7 ℃ | 100 % | 1014.36 hPa |
| 2026-04-14 02:33:27 | 11.56 ℃ | 100 % | 1014.39 hPa |
| 2026-04-14 02:23:27 | 11.69 ℃ | 100 % | 1014.39 hPa |
| 2026-04-14 02:13:27 | 11.8 ℃ | 100 % | 1014.39 hPa |
| 2026-04-14 02:03:27 | 11.71 ℃ | 100 % | 1014.44 hPa |
| 2026-04-14 01:53:27 | 11.9 ℃ | 100 % | 1014.48 hPa |
| 2026-04-14 01:43:27 | 12.43 ℃ | 100 % | 1014.51 hPa |
| 2026-04-14 01:33:27 | 12.37 ℃ | 100 % | 1014.51 hPa |
| 2026-04-14 01:23:27 | 12.39 ℃ | 100 % | 1014.51 hPa |
| 2026-04-14 01:13:27 | 12.3 ℃ | 100 % | 1014.5 hPa |
| 2026-04-14 01:03:27 | 12.42 ℃ | 100 % | 1014.49 hPa |
| 2026-04-14 00:53:27 | 12.67 ℃ | 100 % | 1014.45 hPa |
| 2026-04-14 00:43:27 | 12.83 ℃ | 100 % | 1014.43 hPa |
| 2026-04-14 00:33:27 | 12.41 ℃ | 100 % | 1014.43 hPa |
| 2026-04-14 00:23:27 | 12.37 ℃ | 100 % | 1014.39 hPa |
| 2026-04-14 00:13:27 | 12.08 ℃ | 100 % | 1014.34 hPa |
| 2026-04-14 00:03:27 | 12.1 ℃ | 100 % | 1014.35 hPa |
| 2026-04-13 23:53:27 | 11.87 ℃ | 100 % | 1014.39 hPa |
| 2026-04-13 23:43:27 | 12.1 ℃ | 100 % | 1014.41 hPa |
| 2026-04-13 23:33:27 | 11.8 ℃ | 100 % | 1014.41 hPa |
| 2026-04-13 23:23:28 | 11.81 ℃ | 100 % | 1014.41 hPa |
| 2026-04-13 23:13:27 | 11.61 ℃ | 100 % | 1014.47 hPa |
| 2026-04-13 23:03:27 | 11.57 ℃ | 100 % | 1014.53 hPa |
| 2026-04-13 22:53:27 | 11.58 ℃ | 100 % | 1014.61 hPa |
| 2026-04-13 22:43:28 | 11.35 ℃ | 100 % | 1014.72 hPa |
| 2026-04-13 22:33:27 | 11.29 ℃ | 100 % | 1014.79 hPa |
| 2026-04-13 22:23:27 | 10.93 ℃ | 100 % | 1014.88 hPa |
| 2026-04-13 22:13:28 | 11.12 ℃ | 100 % | 1014.89 hPa |
| 2026-04-13 22:03:27 | 10.78 ℃ | 100 % | 1015.02 hPa |
| 2026-04-13 21:53:27 | 10.73 ℃ | 100 % | 1015.09 hPa |
| 2026-04-13 21:43:29 | 10.44 ℃ | 100 % | 1015.13 hPa |
| 2026-04-13 16:12:14 | 12.06 ℃ | 100 % | 1015.17 hPa |
| 2026-04-13 16:02:13 | 11.93 ℃ | 100 % | 1015.24 hPa |
| 2026-04-13 15:52:13 | 12.36 ℃ | 100 % | 1015.27 hPa |
| 2026-04-13 15:42:13 | 12.11 ℃ | 100 % | 1015.3 hPa |
| 2026-04-13 15:32:13 | 12.44 ℃ | 100 % | 1015.4 hPa |
| 2026-04-13 15:22:13 | 12.98 ℃ | 100 % | 1015.38 hPa |
| 2026-04-13 15:12:13 | 13.23 ℃ | 100 % | 1015.48 hPa |
| 2026-04-13 15:02:13 | 13.23 ℃ | 100 % | 1015.51 hPa |
| 2026-04-13 14:52:13 | 13.41 ℃ | 100 % | 1015.53 hPa |
| 2026-04-13 14:42:14 | 13.77 ℃ | 100 % | 1015.54 hPa |
| 2026-04-13 14:32:13 | 13.97 ℃ | 100 % | 1015.54 hPa |
| 2026-04-13 14:22:13 | 14.11 ℃ | 100 % | 1015.48 hPa |
| 2026-04-13 14:12:14 | 14.97 ℃ | 100 % | 1015.44 hPa |
| 2026-04-13 14:02:14 | 14.78 ℃ | 100 % | 1015.45 hPa |
| 2026-04-13 13:52:13 | 14.42 ℃ | 100 % | 1015.51 hPa |
| 2026-04-13 13:42:15 | 14.48 ℃ | 100 % | 1015.54 hPa |
| 2026-04-13 13:32:13 | 14.25 ℃ | 100 % | 1015.57 hPa |
| 2026-04-13 13:22:14 | 14.02 ℃ | 100 % | 1015.62 hPa |
| 2026-04-13 13:12:13 | 14.1 ℃ | 100 % | 1015.67 hPa |
| 2026-04-13 13:02:14 | 13.82 ℃ | 100 % | 1015.77 hPa |
| 2026-04-13 12:52:14 | 13.69 ℃ | 100 % | 1015.82 hPa |
| 2026-04-13 12:42:13 | 13.35 ℃ | 100 % | 1015.9 hPa |
| 2026-04-13 12:32:13 | 13.49 ℃ | 100 % | 1015.96 hPa |
| 2026-04-13 12:22:14 | 13.4 ℃ | 100 % | 1016.03 hPa |
| 2026-04-13 12:12:14 | 13.31 ℃ | 100 % | 1016.08 hPa |
| 2026-04-13 12:02:13 | 13.24 ℃ | 100 % | 1016.15 hPa |
| 2026-04-13 11:52:14 | 12.85 ℃ | 100 % | 1016.21 hPa |
| 2026-04-13 11:42:14 | 13.17 ℃ | 100 % | 1016.24 hPa |
| 2026-04-13 11:32:14 | 12.53 ℃ | 100 % | 1016.29 hPa |
| 2026-04-13 11:22:14 | 12.17 ℃ | 100 % | 1016.33 hPa |
| 2026-04-13 11:12:14 | 12.2 ℃ | 100 % | 1016.38 hPa |
| 2026-04-13 11:02:14 | 12.35 ℃ | 100 % | 1016.4 hPa |
| 2026-04-13 10:52:14 | 12.18 ℃ | 100 % | 1016.39 hPa |
| 2026-04-13 10:42:14 | 11.87 ℃ | 100 % | 1016.37 hPa |
| 2026-04-13 10:32:15 | 11.72 ℃ | 100 % | 1016.38 hPa |
| 2026-04-13 10:22:14 | 11.91 ℃ | 100 % | 1016.44 hPa |
| 2026-04-13 10:12:15 | 11.97 ℃ | 100 % | 1016.49 hPa |
| 2026-04-13 10:02:14 | 11.48 ℃ | 100 % | 1016.52 hPa |
| 2026-04-13 09:52:14 | 11.31 ℃ | 100 % | 1016.58 hPa |
| 2026-04-13 09:42:14 | 10.77 ℃ | 100 % | 1016.67 hPa |
| 2026-04-13 09:32:14 | 10.21 ℃ | 100 % | 1016.73 hPa |
| 2026-04-13 09:22:14 | 10.08 ℃ | 100 % | 1016.75 hPa |
| 2026-04-13 09:12:16 | 9.98 ℃ | 100 % | 1016.8 hPa |
| 2026-04-13 09:02:14 | 9.69 ℃ | 100 % | 1016.82 hPa |
| 2026-04-13 08:52:14 | 9.74 ℃ | 100 % | 1016.79 hPa |
| 2026-04-13 08:42:14 | 9.8 ℃ | 100 % | 1016.86 hPa |
| 2026-04-13 08:32:14 | 9.69 ℃ | 100 % | 1016.85 hPa |
| 2026-04-13 08:22:14 | 9.79 ℃ | 100 % | 1016.84 hPa |
| 2026-04-13 08:12:14 | 9.58 ℃ | 100 % | 1016.84 hPa |
| 2026-04-13 08:02:14 | 9.72 ℃ | 100 % | 1016.84 hPa |
| 2026-04-13 07:52:14 | 9.84 ℃ | 100 % | 1016.83 hPa |
| 2026-04-13 07:42:14 | 10.12 ℃ | 100 % | 1016.82 hPa |
| 2026-04-13 07:32:14 | 9.83 ℃ | 100 % | 1016.84 hPa |
| 2026-04-13 07:22:14 | 9.32 ℃ | 100 % | 1016.89 hPa |
| 2026-04-13 07:12:14 | 9.14 ℃ | 100 % | 1016.93 hPa |
| 2026-04-13 07:02:14 | 8.97 ℃ | 100 % | 1016.97 hPa |
| 2026-04-13 06:52:14 | 9.22 ℃ | 100 % | 1016.98 hPa |
| 2026-04-13 06:42:14 | 9.07 ℃ | 100 % | 1017.05 hPa |
| 2026-04-13 06:32:14 | 9.27 ℃ | 100 % | 1017.02 hPa |
| 2026-04-13 06:22:14 | 9.05 ℃ | 100 % | 1017 hPa |
| 2026-04-13 06:12:14 | 9.1 ℃ | 100 % | 1017.02 hPa |
| 2026-04-13 06:02:14 | 8.97 ℃ | 100 % | 1017.08 hPa |
| 2026-04-13 05:52:14 | 9.39 ℃ | 100 % | 1017.05 hPa |
| 2026-04-13 05:42:14 | 9.78 ℃ | 100 % | 1017.01 hPa |
| 2026-04-13 05:32:15 | 9.66 ℃ | 100 % | 1017 hPa |
| 2026-04-13 05:22:14 | 9.87 ℃ | 100 % | 1016.97 hPa |
| 2026-04-13 05:12:14 | 10.36 ℃ | 100 % | 1016.96 hPa |
| 2026-04-13 05:02:14 | 10.05 ℃ | 100 % | 1017.03 hPa |
| 2026-04-13 04:52:14 | 10.35 ℃ | 100 % | 1017.1 hPa |
| 2026-04-13 04:42:14 | 10.84 ℃ | 100 % | 1017.1 hPa |
| 2026-04-13 04:32:14 | 10.67 ℃ | 100 % | 1017.09 hPa |
| 2026-04-13 04:22:14 | 11.12 ℃ | 100 % | 1017.18 hPa |
| 2026-04-13 04:12:14 | 10.66 ℃ | 100 % | 1017.24 hPa |
| 2026-04-13 04:02:14 | 10.19 ℃ | 100 % | 1017.24 hPa |
| 2026-04-13 03:52:15 | 9.89 ℃ | 100 % | 1017.24 hPa |
| 2026-04-13 03:42:14 | 9.8 ℃ | 100 % | 1017.2 hPa |
| 2026-04-13 03:32:14 | 10.62 ℃ | 100 % | 1017.11 hPa |
| 2026-04-13 03:22:14 | 11.39 ℃ | 100 % | 1017.05 hPa |
| 2026-04-13 03:12:14 | 11.11 ℃ | 100 % | 1017.01 hPa |
| 2026-04-13 03:02:14 | 10.92 ℃ | 100 % | 1017.04 hPa |
| 2026-04-13 02:52:14 | 11.04 ℃ | 100 % | 1017.1 hPa |
| 2026-04-13 02:42:14 | 11.31 ℃ | 100 % | 1017.17 hPa |
| 2026-04-13 02:32:14 | 11.72 ℃ | 100 % | 1017.16 hPa |
| 2026-04-13 02:22:14 | 12.22 ℃ | 100 % | 1017.14 hPa |
| 2026-04-13 02:12:14 | 12.13 ℃ | 100 % | 1017.18 hPa |
| 2026-04-13 02:02:14 | 11.38 ℃ | 100 % | 1017.21 hPa |
| 2026-04-13 01:52:15 | 11.12 ℃ | 100 % | 1017.24 hPa |
| 2026-04-13 01:42:14 | 11.01 ℃ | 100 % | 1017.24 hPa |
| 2026-04-13 01:32:15 | 11.3 ℃ | 100 % | 1017.24 hPa |
| 2026-04-13 01:22:15 | 11.39 ℃ | 100 % | 1017.36 hPa |
| 2026-04-13 01:12:15 | 11.5 ℃ | 100 % | 1017.44 hPa |
| 2026-04-13 01:02:14 | 11.85 ℃ | 100 % | 1017.45 hPa |
| 2026-04-13 00:52:15 | 12.24 ℃ | 100 % | 1017.45 hPa |
| 2026-04-13 00:42:15 | 12.05 ℃ | 100 % | 1017.47 hPa |
| 2026-04-13 00:32:15 | 12.48 ℃ | 100 % | 1017.44 hPa |
| 2026-04-13 00:22:15 | 12.29 ℃ | 100 % | 1017.42 hPa |
| 2026-04-13 00:12:16 | 12.15 ℃ | 100 % | 1017.49 hPa |
| 2026-04-13 00:02:14 | 12.41 ℃ | 100 % | 1017.51 hPa |
| 2026-04-12 23:52:15 | 12.41 ℃ | 100 % | 1017.53 hPa |
| 2026-04-12 23:42:15 | 12.42 ℃ | 100 % | 1017.56 hPa |
| 2026-04-12 23:32:16 | 12.87 ℃ | 100 % | 1017.53 hPa |
| 2026-04-12 23:22:14 | 12.84 ℃ | 100 % | 1017.56 hPa |
| 2026-04-12 23:12:14 | 12.58 ℃ | 100 % | 1017.59 hPa |
| 2026-04-12 23:02:15 | 12.52 ℃ | 100 % | 1017.62 hPa |
| 2026-04-12 22:52:15 | 12.53 ℃ | 100 % | 1017.64 hPa |
| 2026-04-12 22:42:15 | 13.02 ℃ | 100 % | 1017.66 hPa |
| 2026-04-12 22:32:15 | 12.98 ℃ | 100 % | 1017.66 hPa |
| 2026-04-12 22:22:15 | 12.95 ℃ | 100 % | 1017.64 hPa |
| 2026-04-12 22:12:16 | 13.06 ℃ | 100 % | 1017.62 hPa |
| 2026-04-12 22:02:15 | 13.49 ℃ | 100 % | 1017.64 hPa |
| 2026-04-12 21:52:15 | 13.7 ℃ | 100 % | 1017.6 hPa |
| 2026-04-12 21:42:15 | 13.67 ℃ | 100 % | 1017.57 hPa |
| 2026-04-12 21:32:15 | 13.55 ℃ | 100 % | 1017.55 hPa |
| 2026-04-12 21:22:15 | 13.76 ℃ | 100 % | 1017.49 hPa |
| 2026-04-12 21:12:16 | 13.7 ℃ | 100 % | 1017.4 hPa |
| 2026-04-12 21:02:15 | 14.01 ℃ | 100 % | 1017.33 hPa |
| 2026-04-12 20:52:15 | 14.07 ℃ | 100 % | 1017.22 hPa |
| 2026-04-12 20:42:16 | 14.52 ℃ | 100 % | 1017.09 hPa |
| 2026-04-12 20:32:15 | 14.53 ℃ | 100 % | 1017 hPa |
| 2026-04-12 20:22:15 | 14.71 ℃ | 99.99 % | 1016.91 hPa |
| 2026-04-12 20:12:15 | 14.91 ℃ | 99.99 % | 1016.8 hPa |
| 2026-04-12 20:02:15 | 14.71 ℃ | 99.97 % | 1016.66 hPa |
| 2026-04-12 19:52:15 | 14.79 ℃ | 99.95 % | 1016.62 hPa |
| 2026-04-12 19:42:15 | 15.02 ℃ | 99.89 % | 1016.58 hPa |
| 2026-04-12 19:32:16 | 15.5 ℃ | 99.79 % | 1016.55 hPa |
| 2026-04-12 19:22:15 | 15.39 ℃ | 99.58 % | 1016.53 hPa |
| 2026-04-12 19:12:15 | 15.28 ℃ | 99.15 % | 1016.52 hPa |
| 2026-04-12 19:02:15 | 15.18 ℃ | 98.3 % | 1016.47 hPa |
| 2026-04-12 18:52:15 | 15.08 ℃ | 96.6 % | 1016.42 hPa |
| 2026-04-12 18:42:15 | 15.3 ℃ | 93.2 % | 1016.34 hPa |
| 2026-04-12 18:32:15 | 15.69 ℃ | 86.41 % | 1016.24 hPa |
| 2026-04-12 18:22:15 | 15.3 ℃ | 86.71 % | 1016.22 hPa |
| 2026-04-12 18:12:15 | 14.92 ℃ | 88.6 % | 1016.15 hPa |
| 2026-04-12 18:02:15 | 14.6 ℃ | 88.29 % | 1016.07 hPa |
| 2026-04-12 17:52:15 | 15.3 ℃ | 91.91 % | 1015.98 hPa |
| 2026-04-12 17:42:15 | 15.21 ℃ | 97.61 % | 1015.95 hPa |
| 2026-04-12 17:32:15 | 15.33 ℃ | 95.22 % | 1015.87 hPa |
| 2026-04-12 17:22:15 | 15.02 ℃ | 99.56 % | 1015.89 hPa |
| 2026-04-12 17:12:15 | 15.22 ℃ | 99.97 % | 1015.85 hPa |
| 2026-04-12 17:02:15 | 15.35 ℃ | 99.95 % | 1015.83 hPa |
| 2026-04-12 16:52:15 | 15.8 ℃ | 99.9 % | 1015.79 hPa |
| 2026-04-12 16:42:15 | 15.53 ℃ | 99.8 % | 1015.81 hPa |
| 2026-04-12 16:32:15 | 15.45 ℃ | 99.6 % | 1015.86 hPa |
| 2026-04-12 16:22:15 | 15.42 ℃ | 99.19 % | 1015.86 hPa |
| 2026-04-12 16:12:15 | 15.8 ℃ | 98.39 % | 1015.82 hPa |
| 2026-04-12 16:02:15 | 16 ℃ | 96.77 % | 1015.81 hPa |
| 2026-04-12 15:52:15 | 16.68 ℃ | 93.54 % | 1015.8 hPa |
| 2026-04-12 15:42:15 | 17.78 ℃ | 87.08 % | 1015.73 hPa |
| 2026-04-12 15:32:15 | 18.93 ℃ | 74.17 % | 1015.66 hPa |
| 2026-04-12 15:22:15 | 19.93 ℃ | 66.46 % | 1015.62 hPa |
| 2026-04-12 15:12:15 | 19.61 ℃ | 65.91 % | 1015.59 hPa |
| 2026-04-12 15:02:15 | 19.37 ℃ | 65.22 % | 1015.6 hPa |
| 2026-04-12 14:52:15 | 18.89 ℃ | 68.37 % | 1015.59 hPa |
| 2026-04-12 14:42:16 | 18.86 ℃ | 70.52 % | 1015.57 hPa |
| 2026-04-12 14:32:16 | 18.94 ℃ | 71.19 % | 1015.56 hPa |
| 2026-04-12 14:22:15 | 18.78 ℃ | 72.45 % | 1015.5 hPa |
| 2026-04-12 14:12:15 | 18.59 ℃ | 71.53 % | 1015.49 hPa |
| 2026-04-12 14:02:15 | 18.07 ℃ | 70.26 % | 1015.48 hPa |
| 2026-04-12 13:52:15 | 18.31 ℃ | 68.58 % | 1015.41 hPa |
| 2026-04-12 13:42:15 | 18.48 ℃ | 65.73 % | 1015.37 hPa |
| 2026-04-12 13:32:16 | 18.36 ℃ | 67.39 % | 1015.35 hPa |
| 2026-04-12 13:22:16 | 18.48 ℃ | 69.32 % | 1015.39 hPa |
| 2026-04-12 13:12:17 | 18.51 ℃ | 73.43 % | 1015.46 hPa |
| 2026-04-12 13:02:16 | 18.51 ℃ | 77.5 % | 1015.51 hPa |
| 2026-04-12 12:52:16 | 18.54 ℃ | 79.41 % | 1015.52 hPa |
| 2026-04-12 12:42:15 | 18.12 ℃ | 83.89 % | 1015.57 hPa |
| 2026-04-12 12:32:15 | 17.98 ℃ | 90.81 % | 1015.61 hPa |
| 2026-04-12 12:22:16 | 17.5 ℃ | 100 % | 1015.68 hPa |
| 2026-04-12 12:12:15 | 17.23 ℃ | 100 % | 1015.72 hPa |
| 2026-04-12 12:02:16 | 16.91 ℃ | 100 % | 1015.77 hPa |
| 2026-04-12 11:52:16 | 15.94 ℃ | 100 % | 1015.83 hPa |
| 2026-04-12 11:42:16 | 16.39 ℃ | 100 % | 1015.81 hPa |
| 2026-04-12 11:32:16 | 16.08 ℃ | 100 % | 1015.73 hPa |
| 2026-04-12 11:22:16 | 16.33 ℃ | 100 % | 1015.63 hPa |
| 2026-04-12 11:12:16 | 16.08 ℃ | 100 % | 1015.55 hPa |
| 2026-04-12 11:02:16 | 15.74 ℃ | 100 % | 1015.45 hPa |
| 2026-04-12 10:52:16 | 15.72 ℃ | 100 % | 1015.34 hPa |
| 2026-04-12 10:42:16 | 15.82 ℃ | 100 % | 1015.34 hPa |
| 2026-04-12 10:32:16 | 15.84 ℃ | 100 % | 1015.27 hPa |
| 2026-04-12 10:22:16 | 15.46 ℃ | 100 % | 1015.19 hPa |
| 2026-04-12 10:12:16 | 15.26 ℃ | 100 % | 1015.15 hPa |
| 2026-04-12 10:02:16 | 15.33 ℃ | 100 % | 1015.09 hPa |
| 2026-04-12 09:52:16 | 14.58 ℃ | 100 % | 1015.03 hPa |
| 2026-04-12 09:42:16 | 14.05 ℃ | 100 % | 1014.97 hPa |
| 2026-04-12 09:32:16 | 13.9 ℃ | 100 % | 1014.9 hPa |
| 2026-04-12 09:22:16 | 14.06 ℃ | 100 % | 1014.83 hPa |
| 2026-04-12 09:12:16 | 13.76 ℃ | 100 % | 1014.7 hPa |
| 2026-04-12 09:02:16 | 12.99 ℃ | 100 % | 1014.6 hPa |
| 2026-04-12 08:52:16 | 12.59 ℃ | 100 % | 1014.5 hPa |
| 2026-04-12 08:42:16 | 12.82 ℃ | 100 % | 1014.45 hPa |
| 2026-04-12 08:32:16 | 12.92 ℃ | 100 % | 1014.32 hPa |
| 2026-04-12 08:22:16 | 13.16 ℃ | 100 % | 1014.23 hPa |
| 2026-04-12 08:12:16 | 13.9 ℃ | 100 % | 1014.1 hPa |
| 2026-04-12 08:02:16 | 13.8 ℃ | 100 % | 1013.97 hPa |
| 2026-04-12 07:52:16 | 13.6 ℃ | 100 % | 1013.81 hPa |
| 2026-04-12 07:42:16 | 13.26 ℃ | 100 % | 1013.75 hPa |
| 2026-04-12 07:32:16 | 13.44 ℃ | 100 % | 1013.56 hPa |
| 2026-04-12 07:22:16 | 13.44 ℃ | 100 % | 1013.47 hPa |
| 2026-04-12 07:12:16 | 13.54 ℃ | 100 % | 1013.44 hPa |
| 2026-04-12 07:02:16 | 13.44 ℃ | 100 % | 1013.31 hPa |
| 2026-04-12 06:52:17 | 13.37 ℃ | 100 % | 1013.21 hPa |
| 2026-04-12 06:42:16 | 13.14 ℃ | 100 % | 1013.1 hPa |
| 2026-04-12 06:32:16 | 12.75 ℃ | 100 % | 1012.99 hPa |
| 2026-04-12 06:22:16 | 12.65 ℃ | 100 % | 1012.87 hPa |
| 2026-04-12 06:12:16 | 12.16 ℃ | 100 % | 1012.76 hPa |
| 2026-04-12 06:02:16 | 12.19 ℃ | 100 % | 1012.71 hPa |
| 2026-04-12 05:52:16 | 12.14 ℃ | 100 % | 1012.62 hPa |
| 2026-04-12 05:42:16 | 11.62 ℃ | 100 % | 1012.62 hPa |
| 2026-04-12 05:32:16 | 11.24 ℃ | 100 % | 1012.6 hPa |
| 2026-04-12 05:22:16 | 11.27 ℃ | 100 % | 1012.59 hPa |
| 2026-04-12 05:12:16 | 10.96 ℃ | 100 % | 1012.46 hPa |
| 2026-04-12 05:02:16 | 11.12 ℃ | 100 % | 1012.39 hPa |
| 2026-04-12 04:52:16 | 11.17 ℃ | 100 % | 1012.35 hPa |
| 2026-04-12 04:42:17 | 11.39 ℃ | 100 % | 1012.29 hPa |
| 2026-04-12 04:32:16 | 11.12 ℃ | 100 % | 1012.26 hPa |
| 2026-04-12 04:22:16 | 11.26 ℃ | 100 % | 1012.16 hPa |
| 2026-04-12 04:12:16 | 11.43 ℃ | 100 % | 1012.15 hPa |
| 2026-04-12 04:02:16 | 11.86 ℃ | 100 % | 1012.08 hPa |
| 2026-04-12 03:52:16 | 12.05 ℃ | 99.99 % | 1012 hPa |
| 2026-04-12 03:42:17 | 12.31 ℃ | 99.99 % | 1011.96 hPa |
| 2026-04-12 03:32:16 | 12.32 ℃ | 99.98 % | 1011.98 hPa |
| 2026-04-12 03:22:16 | 12.13 ℃ | 99.95 % | 1011.99 hPa |
| 2026-04-12 03:12:16 | 12.21 ℃ | 99.9 % | 1011.98 hPa |
| 2026-04-12 03:02:17 | 12.47 ℃ | 99.81 % | 1011.9 hPa |
| 2026-04-12 02:52:16 | 12.86 ℃ | 99.61 % | 1011.9 hPa |
| 2026-04-12 02:42:16 | 12.56 ℃ | 99.22 % | 1011.92 hPa |
| 2026-04-12 02:32:16 | 13.25 ℃ | 98.45 % | 1011.97 hPa |
| 2026-04-12 02:22:18 | 12.84 ℃ | 96.9 % | 1011.75 hPa |
| 2026-04-12 02:12:17 | 12.93 ℃ | 93.79 % | 1011.42 hPa |
| 2026-04-12 02:02:17 | 13.05 ℃ | 87.59 % | 1011.34 hPa |
| 2026-04-12 01:52:17 | 13.33 ℃ | 75.18 % | 1011.35 hPa |
| 2026-04-12 01:42:18 | 13.75 ℃ | 63.39 % | 1011.28 hPa |
| 2026-04-12 01:32:16 | 13.75 ℃ | 62.15 % | 1011.17 hPa |
| 2026-04-12 01:22:17 | 13.74 ℃ | 63.03 % | 1011.14 hPa |
| 2026-04-12 01:12:17 | 13.85 ℃ | 63.84 % | 1011.14 hPa |
| 2026-04-12 01:02:17 | 13.62 ℃ | 64.59 % | 1011.18 hPa |
| 2026-04-12 00:52:18 | 13.51 ℃ | 64.95 % | 1011.19 hPa |
| 2026-04-12 00:42:17 | 13.36 ℃ | 64.99 % | 1011.17 hPa |
| 2026-04-12 00:32:17 | 13.44 ℃ | 64.13 % | 1011.2 hPa |
| 2026-04-12 00:22:17 | 13.54 ℃ | 63.45 % | 1011.17 hPa |
| 2026-04-12 00:12:17 | 13.59 ℃ | 62.52 % | 1011.21 hPa |
| 2026-04-12 00:02:17 | 13.83 ℃ | 61.44 % | 1011.24 hPa |
| 2026-04-11 23:52:17 | 13.74 ℃ | 60.8 % | 1011.35 hPa |
| 2026-04-11 23:42:17 | 13.78 ℃ | 59.92 % | 1011.4 hPa |
| 2026-04-11 23:32:18 | 14 ℃ | 59.28 % | 1011.54 hPa |
| 2026-04-11 23:22:18 | 14.11 ℃ | 59.15 % | 1011.62 hPa |
| 2026-04-11 23:12:18 | 13.96 ℃ | 59.65 % | 1011.68 hPa |
| 2026-04-11 23:02:18 | 13.98 ℃ | 59.79 % | 1011.83 hPa |
| 2026-04-11 22:52:18 | 13.93 ℃ | 59.65 % | 1011.96 hPa |
| 2026-04-11 22:42:18 | 14.14 ℃ | 59.69 % | 1012.2 hPa |
| 2026-04-11 22:32:17 | 14.31 ℃ | 60.1 % | 1012.28 hPa |
| 2026-04-11 22:22:17 | 14.43 ℃ | 60.27 % | 1012.33 hPa |
| 2026-04-11 22:12:18 | 14.38 ℃ | 60.71 % | 1012.21 hPa |
| 2026-04-11 22:02:17 | 14.64 ℃ | 60.32 % | 1012.21 hPa |
| 2026-04-11 21:52:17 | 14.49 ℃ | 60.35 % | 1012.18 hPa |
| 2026-04-11 21:42:18 | 14.13 ℃ | 60.8 % | 1012.07 hPa |
| 2026-04-11 21:32:17 | 14.28 ℃ | 60.15 % | 1012.35 hPa |
| 2026-04-11 21:22:19 | 14.49 ℃ | 59.36 % | 1012.51 hPa |
| 2026-04-11 21:12:17 | 14.68 ℃ | 58.64 % | 1012.68 hPa |
| 2026-04-11 21:02:18 | 14.46 ℃ | 58.79 % | 1012.71 hPa |
| 2026-04-11 20:52:17 | 14.51 ℃ | 58.92 % | 1012.66 hPa |
| 2026-04-11 20:42:17 | 14.43 ℃ | 59.56 % | 1012.63 hPa |
| 2026-04-11 20:32:17 | 14.67 ℃ | 59.81 % | 1012.71 hPa |
| 2026-04-11 20:22:17 | 15 ℃ | 59.4 % | 1012.68 hPa |
| 2026-04-11 20:12:17 | 15.11 ℃ | 59.66 % | 1012.61 hPa |
| 2026-04-11 20:02:17 | 15.26 ℃ | 59.72 % | 1012.48 hPa |
| 2026-04-11 19:52:17 | 15.59 ℃ | 59.47 % | 1012.48 hPa |
| 2026-04-11 19:42:17 | 15.78 ℃ | 59.22 % | 1012.47 hPa |
| 2026-04-11 19:32:17 | 16.13 ℃ | 58.82 % | 1012.48 hPa |
| 2026-04-11 19:22:18 | 15.97 ℃ | 58.87 % | 1012.5 hPa |
| 2026-04-11 19:12:17 | 16.03 ℃ | 58.83 % | 1012.53 hPa |
| 2026-04-11 19:02:17 | 16.02 ℃ | 59.04 % | 1012.6 hPa |
| 2026-04-11 18:52:17 | 16.07 ℃ | 59.13 % | 1012.73 hPa |
| 2026-04-11 18:42:18 | 16.22 ℃ | 59.37 % | 1012.93 hPa |
| 2026-04-11 18:32:18 | 16.23 ℃ | 59.59 % | 1013.07 hPa |
| 2026-04-11 18:22:17 | 16.28 ℃ | 59.53 % | 1013 hPa |
| 2026-04-11 18:12:17 | 16.17 ℃ | 59.64 % | 1012.98 hPa |
| 2026-04-11 18:02:17 | 16.24 ℃ | 59.24 % | 1013.05 hPa |
| 2026-04-11 17:52:18 | 16.29 ℃ | 58.64 % | 1013.19 hPa |
| 2026-04-11 17:42:17 | 16.46 ℃ | 57.96 % | 1013.29 hPa |
| 2026-04-11 17:32:17 | 16.58 ℃ | 58.12 % | 1013.33 hPa |
| 2026-04-11 17:22:17 | 16.54 ℃ | 58.38 % | 1013.44 hPa |
| 2026-04-11 17:12:18 | 16.53 ℃ | 58.73 % | 1013.49 hPa |
| 2026-04-11 17:02:17 | 16.64 ℃ | 59.11 % | 1013.66 hPa |
| 2026-04-11 16:52:17 | 16.44 ℃ | 60.38 % | 1013.71 hPa |
| 2026-04-11 16:42:17 | 16.46 ℃ | 61.03 % | 1013.84 hPa |
| 2026-04-11 16:32:17 | 16.32 ℃ | 61.28 % | 1013.99 hPa |
| 2026-04-11 16:22:17 | 16.36 ℃ | 61.37 % | 1014.15 hPa |
| 2026-04-11 16:12:17 | 16.56 ℃ | 61.82 % | 1014.33 hPa |
| 2026-04-11 16:02:17 | 16.44 ℃ | 61.9 % | 1014.44 hPa |
| 2026-04-11 15:52:18 | 16.46 ℃ | 62.44 % | 1014.55 hPa |
| 2026-04-11 15:42:17 | 16.47 ℃ | 63.01 % | 1014.71 hPa |
| 2026-04-11 15:32:17 | 16.87 ℃ | 63.34 % | 1014.87 hPa |
| 2026-04-11 15:22:18 | 16.93 ℃ | 63.22 % | 1014.96 hPa |
| 2026-04-11 15:12:18 | 16.87 ℃ | 64.05 % | 1015.03 hPa |
| 2026-04-11 15:02:19 | 16.27 ℃ | 64.68 % | 1015.14 hPa |
| 2026-04-11 14:52:17 | 16.31 ℃ | 65.02 % | 1015.24 hPa |
| 2026-04-11 14:42:18 | 16.3 ℃ | 65.77 % | 1015.4 hPa |
| 2026-04-11 14:32:17 | 16.01 ℃ | 66.55 % | 1015.53 hPa |
| 2026-04-11 14:22:18 | 16.02 ℃ | 67.79 % | 1015.57 hPa |
| 2026-04-11 14:12:18 | 16.43 ℃ | 71.48 % | 1015.64 hPa |
| 2026-04-11 14:02:18 | 16.45 ℃ | 75.85 % | 1015.75 hPa |
| 2026-04-11 13:52:18 | 16.27 ℃ | 81.01 % | 1015.84 hPa |
| 2026-04-11 13:42:17 | 16.06 ℃ | 86.73 % | 1016.03 hPa |
| 2026-04-11 13:32:17 | 16.27 ℃ | 89.79 % | 1016.15 hPa |
| 2026-04-11 13:22:18 | 16.13 ℃ | 94.53 % | 1016.29 hPa |
| 2026-04-11 13:12:18 | 16.08 ℃ | 96.76 % | 1016.44 hPa |
| 2026-04-11 13:02:18 | 16.09 ℃ | 97.66 % | 1016.47 hPa |
| 2026-04-11 12:52:18 | 15.67 ℃ | 99.53 % | 1016.64 hPa |
| 2026-04-11 12:42:18 | 15.73 ℃ | 99.07 % | 1016.7 hPa |
| 2026-04-11 12:32:18 | 15.4 ℃ | 99.69 % | 1016.8 hPa |
| 2026-04-11 12:22:18 | 15.84 ℃ | 99.38 % | 1016.93 hPa |
| 2026-04-11 12:12:18 | 15.88 ℃ | 99.78 % | 1017.05 hPa |
| 2026-04-11 12:02:18 | 15.76 ℃ | 99.65 % | 1017.14 hPa |
| 2026-04-11 11:52:18 | 15.87 ℃ | 99.29 % | 1017.22 hPa |
| 2026-04-11 11:42:19 | 15.43 ℃ | 99.78 % | 1017.31 hPa |
| 2026-04-11 11:32:18 | 15.56 ℃ | 99.57 % | 1017.36 hPa |
| 2026-04-11 11:22:18 | 15.5 ℃ | 100 % | 1017.48 hPa |
| 2026-04-11 11:12:18 | 15.19 ℃ | 100 % | 1017.52 hPa |
| 2026-04-11 11:02:19 | 14.83 ℃ | 100 % | 1017.6 hPa |
| 2026-04-11 10:52:21 | 14.52 ℃ | 100 % | 1017.66 hPa |
| 2026-04-11 10:42:18 | 14.28 ℃ | 100 % | 1017.73 hPa |
| 2026-04-11 10:32:19 | 13.85 ℃ | 100 % | 1017.88 hPa |
| 2026-04-11 10:22:19 | 12.91 ℃ | 100 % | 1018 hPa |
| 2026-04-11 10:12:20 | 12.87 ℃ | 100 % | 1018.1 hPa |
| 2026-04-11 10:02:18 | 12.69 ℃ | 100 % | 1018.17 hPa |
| 2026-04-11 09:52:18 | 12.2 ℃ | 100 % | 1018.22 hPa |
| 2026-04-11 09:42:18 | 11.95 ℃ | 100 % | 1018.28 hPa |
| 2026-04-11 09:32:18 | 11.42 ℃ | 100 % | 1018.35 hPa |
| 2026-04-11 09:22:18 | 11.51 ℃ | 100 % | 1018.39 hPa |
| 2026-04-11 09:12:18 | 11.34 ℃ | 100 % | 1018.45 hPa |
| 2026-04-11 09:02:19 | 11.21 ℃ | 100 % | 1018.52 hPa |
| 2026-04-11 08:52:18 | 11.33 ℃ | 100 % | 1018.46 hPa |
| 2026-04-11 08:42:18 | 11.45 ℃ | 100 % | 1018.43 hPa |
| 2026-04-11 08:32:18 | 11.29 ℃ | 100 % | 1018.39 hPa |
| 2026-04-11 04:30:13 | 10.35 ℃ | 100 % | 1018.45 hPa |
| 2026-04-11 04:20:14 | 10.42 ℃ | 100 % | 1018.37 hPa |
| 2026-04-11 04:10:13 | 10.34 ℃ | 100 % | 1018.26 hPa |
| 2026-04-11 04:00:13 | 10.15 ℃ | 100 % | 1018.24 hPa |
| 2026-04-11 03:50:14 | 9.93 ℃ | 100 % | 1018.27 hPa |
| 2026-04-11 03:40:13 | 10.01 ℃ | 100 % | 1018.29 hPa |
| 2026-04-11 03:30:14 | 10.49 ℃ | 100 % | 1018.3 hPa |
| 2026-04-11 03:20:13 | 10.82 ℃ | 100 % | 1018.34 hPa |
| 2026-04-11 03:10:13 | 10.74 ℃ | 100 % | 1018.39 hPa |
| 2026-04-11 03:00:13 | 10.62 ℃ | 100 % | 1018.42 hPa |
| 2026-04-11 02:57:11 | 10.47 ℃ | 100 % | 1018.52 hPa |
| 2026-04-11 02:47:12 | 10.81 ℃ | 100 % | 1018.58 hPa |
| 2026-04-11 02:37:13 | 10.75 ℃ | 100 % | 1018.65 hPa |
| 2026-04-11 02:27:12 | 10.43 ℃ | 100 % | 1018.75 hPa |
| 2026-04-11 02:17:12 | 11.01 ℃ | 100 % | 1018.81 hPa |
| 2026-04-11 02:07:12 | 11.04 ℃ | 100 % | 1018.93 hPa |
| 2026-04-11 01:57:12 | 11.63 ℃ | 100 % | 1019.03 hPa |
| 2026-04-11 01:47:12 | 11.83 ℃ | 100 % | 1019.07 hPa |
| 2026-04-11 01:37:12 | 11.81 ℃ | 100 % | 1019.1 hPa |
| 2026-04-11 01:27:12 | 11.85 ℃ | 100 % | 1019.16 hPa |
| 2026-04-11 01:17:12 | 11.83 ℃ | 100 % | 1019.2 hPa |
| 2026-04-11 01:07:12 | 11.85 ℃ | 100 % | 1019.17 hPa |
| 2026-04-11 00:57:12 | 12.07 ℃ | 100 % | 1019.22 hPa |
| 2026-04-11 00:47:12 | 12.07 ℃ | 100 % | 1019.21 hPa |
| 2026-04-11 00:37:12 | 12.01 ℃ | 100 % | 1019.17 hPa |
| 2026-04-11 00:27:12 | 11.97 ℃ | 100 % | 1019.1 hPa |
| 2026-04-11 00:17:12 | 12.02 ℃ | 100 % | 1019.1 hPa |
| 2026-04-11 00:07:12 | 12.71 ℃ | 100 % | 1019.08 hPa |
| 2026-04-10 23:57:12 | 12.98 ℃ | 100 % | 1019.06 hPa |
| 2026-04-10 23:47:12 | 12.95 ℃ | 100 % | 1019.06 hPa |
| 2026-04-10 23:37:12 | 13.26 ℃ | 100 % | 1019 hPa |
| 2026-04-10 23:27:12 | 13.31 ℃ | 100 % | 1018.99 hPa |
| 2026-04-10 23:17:12 | 13.59 ℃ | 100 % | 1018.94 hPa |
| 2026-04-10 23:07:12 | 13.59 ℃ | 100 % | 1018.91 hPa |
| 2026-04-10 22:57:12 | 13.68 ℃ | 100 % | 1018.93 hPa |
| 2026-04-10 22:52:07 | 13.82 ℃ | 100 % | 1018.86 hPa |
| 2026-04-10 22:42:07 | 13.81 ℃ | 100 % | 1018.8 hPa |
| 2026-04-10 22:32:07 | 13.77 ℃ | 100 % | 1018.79 hPa |
| 2026-04-10 22:22:07 | 13.66 ℃ | 100 % | 1018.82 hPa |
| 2026-04-10 22:12:07 | 13.53 ℃ | 100 % | 1018.82 hPa |
| 2026-04-10 22:02:07 | 13.5 ℃ | 100 % | 1018.86 hPa |
| 2026-04-10 21:52:07 | 13.18 ℃ | 100 % | 1018.88 hPa |
| 2026-04-10 21:42:07 | 13.14 ℃ | 100 % | 1018.83 hPa |
| 2026-04-10 21:32:07 | 12.75 ℃ | 100 % | 1018.73 hPa |
| 2026-04-10 21:22:07 | 12.83 ℃ | 100 % | 1018.62 hPa |
| 2026-04-10 21:12:07 | 12.82 ℃ | 100 % | 1018.54 hPa |
| 2026-04-10 21:02:07 | 12.41 ℃ | 100 % | 1018.48 hPa |
| 2026-04-10 20:52:07 | 12.83 ℃ | 100 % | 1018.39 hPa |
| 2026-04-10 20:42:07 | 13.11 ℃ | 100 % | 1018.22 hPa |
| 2026-04-10 20:32:07 | 13.01 ℃ | 100 % | 1018.1 hPa |
| 2026-04-10 20:22:07 | 13.22 ℃ | 100 % | 1017.98 hPa |
| 2026-04-10 20:12:07 | 13.24 ℃ | 100 % | 1017.87 hPa |
| 2026-04-10 20:02:07 | 13.53 ℃ | 99.99 % | 1017.77 hPa |
| 2026-04-10 19:52:07 | 13.34 ℃ | 99.99 % | 1017.64 hPa |
| 2026-04-10 19:42:07 | 13.64 ℃ | 99.97 % | 1017.5 hPa |
| 2026-04-10 19:32:07 | 13.76 ℃ | 99.95 % | 1017.4 hPa |
| 2026-04-10 19:22:07 | 13.73 ℃ | 99.9 % | 1017.36 hPa |
| 2026-04-10 19:12:07 | 13.6 ℃ | 99.8 % | 1017.29 hPa |
| 2026-04-10 19:02:07 | 13.98 ℃ | 99.59 % | 1017.23 hPa |
| 2026-04-10 18:52:07 | 14.07 ℃ | 99.19 % | 1017.18 hPa |
| 2026-04-10 18:42:08 | 14.61 ℃ | 98.37 % | 1017.1 hPa |
| 2026-04-10 18:32:08 | 14.6 ℃ | 96.74 % | 1017.05 hPa |
| 2026-04-10 18:22:08 | 15.09 ℃ | 93.48 % | 1017 hPa |
| 2026-04-10 18:12:07 | 15.51 ℃ | 91.09 % | 1016.96 hPa |
| 2026-04-10 18:02:08 | 15.22 ℃ | 88.57 % | 1016.87 hPa |
| 2026-04-10 17:52:07 | 14.75 ℃ | 87.3 % | 1016.81 hPa |
| 2026-04-10 17:42:07 | 14.83 ℃ | 85.62 % | 1016.77 hPa |
| 2026-04-10 17:32:09 | 15.05 ℃ | 81.73 % | 1016.76 hPa |
| 2026-04-10 17:22:07 | 15.08 ℃ | 80.33 % | 1016.71 hPa |
| 2026-04-10 17:12:07 | 14.95 ℃ | 79.76 % | 1016.63 hPa |
| 2026-04-10 17:02:07 | 15.39 ℃ | 78.31 % | 1016.55 hPa |
| 2026-04-10 16:52:07 | 15.31 ℃ | 78.08 % | 1016.54 hPa |
| 2026-04-10 16:42:07 | 15.63 ℃ | 75.3 % | 1016.5 hPa |
| 2026-04-10 16:32:07 | 15.51 ℃ | 78.74 % | 1016.44 hPa |
| 2026-04-10 16:22:07 | 15.56 ℃ | 82.91 % | 1016.43 hPa |
| 2026-04-10 16:12:07 | 15.47 ℃ | 83.48 % | 1016.42 hPa |
| 2026-04-10 16:02:07 | 15.53 ℃ | 84.04 % | 1016.39 hPa |
| 2026-04-10 15:52:08 | 15.51 ℃ | 83.03 % | 1016.37 hPa |
| 2026-04-10 15:42:08 | 15.57 ℃ | 82.85 % | 1016.37 hPa |
| 2026-04-10 15:32:07 | 15.54 ℃ | 82.86 % | 1016.41 hPa |
| 2026-04-10 15:22:07 | 15.8 ℃ | 81.38 % | 1016.32 hPa |
| 2026-04-10 15:12:08 | 15.77 ℃ | 82.71 % | 1016.23 hPa |
| 2026-04-10 15:02:07 | 15.79 ℃ | 83.06 % | 1016.14 hPa |
| 2026-04-10 14:52:08 | 15.77 ℃ | 82.46 % | 1016.05 hPa |
| 2026-04-10 14:42:08 | 15.74 ℃ | 83.81 % | 1015.94 hPa |
| 2026-04-10 14:32:07 | 15.35 ℃ | 82.52 % | 1015.83 hPa |
| 2026-04-10 14:22:08 | 15.24 ℃ | 82.53 % | 1015.76 hPa |
| 2026-04-10 14:12:07 | 15.15 ℃ | 83.37 % | 1015.72 hPa |
| 2026-04-10 14:02:07 | 15.16 ℃ | 86.79 % | 1015.57 hPa |
| 2026-04-10 13:52:07 | 15.44 ℃ | 88.83 % | 1015.38 hPa |
| 2026-04-10 13:42:07 | 15.91 ℃ | 91.04 % | 1015.2 hPa |
| 2026-04-10 13:32:07 | 15.95 ℃ | 95.33 % | 1015.1 hPa |
| 2026-04-10 13:22:08 | 15.54 ℃ | 98.23 % | 1015.04 hPa |
| 2026-04-10 13:12:08 | 15.39 ℃ | 100 % | 1014.95 hPa |
| 2026-04-10 13:02:08 | 15.44 ℃ | 100 % | 1014.98 hPa |
| 2026-04-10 12:52:07 | 14.97 ℃ | 100 % | 1015.06 hPa |
| 2026-04-10 12:42:08 | 14.78 ℃ | 100 % | 1015.14 hPa |
| 2026-04-10 12:32:07 | 14.57 ℃ | 100 % | 1015.18 hPa |
| 2026-04-10 12:22:08 | 14.33 ℃ | 100 % | 1015.27 hPa |
| 2026-04-10 12:12:08 | 14.62 ℃ | 100 % | 1015.25 hPa |
| 2026-04-10 12:02:08 | 14.52 ℃ | 100 % | 1015.33 hPa |
| 2026-04-10 11:52:08 | 14.16 ℃ | 100 % | 1015.44 hPa |
| 2026-04-10 11:42:08 | 14.39 ℃ | 100 % | 1015.47 hPa |
| 2026-04-10 11:32:08 | 13.91 ℃ | 100 % | 1015.51 hPa |
| 2026-04-10 11:22:08 | 13.65 ℃ | 100 % | 1015.55 hPa |
| 2026-04-10 11:12:08 | 13.53 ℃ | 100 % | 1015.58 hPa |
| 2026-04-10 11:02:08 | 13.17 ℃ | 100 % | 1015.63 hPa |
| 2026-04-10 10:52:08 | 12.52 ℃ | 100 % | 1015.65 hPa |
| 2026-04-10 10:42:08 | 11.58 ℃ | 100 % | 1015.68 hPa |
| 2026-04-10 10:32:08 | 11.24 ℃ | 100 % | 1015.67 hPa |
| 2026-04-10 10:22:08 | 10.93 ℃ | 100 % | 1015.63 hPa |
| 2026-04-10 10:12:08 | 10.94 ℃ | 100 % | 1015.64 hPa |
| 2026-04-10 10:02:08 | 10.53 ℃ | 100 % | 1015.63 hPa |
| 2026-04-10 09:52:08 | 9.88 ℃ | 100 % | 1015.56 hPa |
| 2026-04-10 09:42:08 | 9.05 ℃ | 100 % | 1015.5 hPa |
| 2026-04-10 09:32:08 | 8.52 ℃ | 100 % | 1015.5 hPa |
| 2026-04-10 09:22:08 | 8 ℃ | 100 % | 1015.48 hPa |
| 2026-04-10 09:12:08 | 7.6 ℃ | 100 % | 1015.48 hPa |
| 2026-04-10 09:02:08 | 7.15 ℃ | 100 % | 1015.37 hPa |
| 2026-04-10 08:52:08 | 7.02 ℃ | 100 % | 1015.25 hPa |
| 2026-04-10 08:42:08 | 7.04 ℃ | 100 % | 1015.23 hPa |
| 2026-04-10 08:32:08 | 6.82 ℃ | 100 % | 1015.23 hPa |
| 2026-04-10 08:22:08 | 6.83 ℃ | 100 % | 1015.27 hPa |
| 2026-04-10 08:12:08 | 6.68 ℃ | 100 % | 1015.26 hPa |
| 2026-04-10 08:02:08 | 6.78 ℃ | 100 % | 1015.18 hPa |
| 2026-04-10 07:52:08 | 6.76 ℃ | 100 % | 1015.05 hPa |
| 2026-04-10 07:42:08 | 6.82 ℃ | 100 % | 1014.97 hPa |
| 2026-04-10 07:32:08 | 7.1 ℃ | 100 % | 1014.84 hPa |
| 2026-04-10 07:22:08 | 6.97 ℃ | 100 % | 1014.73 hPa |
| 2026-04-10 07:12:08 | 6.88 ℃ | 100 % | 1014.66 hPa |
| 2026-04-10 07:02:08 | 7.13 ℃ | 100 % | 1014.59 hPa |
| 2026-04-10 06:52:08 | 7.32 ℃ | 100 % | 1014.32 hPa |
| 2026-04-10 06:42:08 | 7.34 ℃ | 100 % | 1014.07 hPa |
| 2026-04-10 06:32:08 | 7.14 ℃ | 100 % | 1014.06 hPa |
| 2026-04-10 06:22:08 | 7.54 ℃ | 100 % | 1014.12 hPa |
| 2026-04-10 06:12:08 | 7.59 ℃ | 100 % | 1014.1 hPa |
| 2026-04-10 06:02:08 | 7.75 ℃ | 100 % | 1014 hPa |
| 2026-04-10 05:52:08 | 7.56 ℃ | 100 % | 1013.89 hPa |
| 2026-04-10 05:42:08 | 7.55 ℃ | 100 % | 1013.54 hPa |
| 2026-04-10 05:32:08 | 7.49 ℃ | 100 % | 1013.12 hPa |
| 2026-04-10 05:22:08 | 7.34 ℃ | 100 % | 1013.02 hPa |
| 2026-04-10 05:12:08 | 7.49 ℃ | 100 % | 1013.01 hPa |
| 2026-04-10 05:02:09 | 6.85 ℃ | 100 % | 1012.91 hPa |
| 2026-04-10 04:52:08 | 6.77 ℃ | 100 % | 1013.07 hPa |
| 2026-04-10 04:42:08 | 6.81 ℃ | 100 % | 1013.11 hPa |
| 2026-04-10 04:32:08 | 6.79 ℃ | 100 % | 1013.31 hPa |
| 2026-04-10 04:22:08 | 6.67 ℃ | 100 % | 1013.63 hPa |
| 2026-04-10 04:12:08 | 6.82 ℃ | 100 % | 1013.95 hPa |
| 2026-04-10 04:02:08 | 7.01 ℃ | 99.99 % | 1014.29 hPa |
| 2026-04-10 03:52:09 | 7.46 ℃ | 99.98 % | 1014.76 hPa |
| 2026-04-10 03:42:08 | 7.67 ℃ | 99.96 % | 1014.98 hPa |
| 2026-04-10 03:32:08 | 7.74 ℃ | 99.92 % | 1015.13 hPa |
| 2026-04-10 03:22:08 | 7.82 ℃ | 99.85 % | 1015.17 hPa |
| 2026-04-10 03:12:08 | 7.69 ℃ | 99.7 % | 1015.22 hPa |
| 2026-04-10 03:02:08 | 7.55 ℃ | 99.39 % | 1015.32 hPa |
| 2026-04-10 02:52:08 | 7.54 ℃ | 99.31 % | 1015.44 hPa |
| 2026-04-10 02:42:08 | 7.55 ℃ | 99.49 % | 1015.66 hPa |
| 2026-04-10 02:32:08 | 7.3 ℃ | 99.96 % | 1015.82 hPa |
| 2026-04-10 02:22:09 | 7.49 ℃ | 99.93 % | 1016.08 hPa |
| 2026-04-10 02:12:09 | 7.43 ℃ | 99.85 % | 1016.21 hPa |
| 2026-04-10 02:02:09 | 7.38 ℃ | 99.71 % | 1016.47 hPa |
| 2026-04-10 01:52:09 | 7.24 ℃ | 99.41 % | 1016.62 hPa |
| 2026-04-10 01:42:09 | 7.12 ℃ | 98.82 % | 1016.72 hPa |
| 2026-04-10 01:32:10 | 7.16 ℃ | 97.64 % | 1016.95 hPa |
| 2026-04-10 01:22:09 | 7.36 ℃ | 95.29 % | 1017.2 hPa |
| 2026-04-10 01:12:09 | 7.59 ℃ | 91.82 % | 1017.37 hPa |
| 2026-04-10 01:02:09 | 7.74 ℃ | 89.68 % | 1017.46 hPa |
| 2026-04-10 00:52:09 | 7.6 ℃ | 89.82 % | 1017.54 hPa |
| 2026-04-10 00:42:09 | 7.39 ℃ | 91.46 % | 1017.7 hPa |
| 2026-04-10 00:32:09 | 7.57 ℃ | 91.75 % | 1017.84 hPa |
| 2026-04-10 00:22:09 | 7.62 ℃ | 94.96 % | 1017.93 hPa |
| 2026-04-10 00:12:09 | 7.64 ℃ | 97.64 % | 1018.03 hPa |
| 2026-04-10 00:02:09 | 7.59 ℃ | 98.11 % | 1018.21 hPa |
| 2026-04-09 23:52:09 | 7.64 ℃ | 96.21 % | 1018.27 hPa |
| 2026-04-09 23:42:10 | 7.84 ℃ | 92.42 % | 1018.3 hPa |
| 2026-04-09 23:32:09 | 7.92 ℃ | 89.91 % | 1018.42 hPa |
| 2026-04-09 23:22:09 | 8.09 ℃ | 87.58 % | 1018.46 hPa |
| 2026-04-09 23:12:09 | 8.05 ℃ | 86.37 % | 1018.52 hPa |
| 2026-04-09 23:02:10 | 8.35 ℃ | 82.55 % | 1018.54 hPa |
| 2026-04-09 22:52:09 | 8.61 ℃ | 78.54 % | 1018.61 hPa |
| 2026-04-09 22:42:09 | 8.71 ℃ | 76.77 % | 1018.62 hPa |
| 2026-04-09 22:32:09 | 8.97 ℃ | 74.55 % | 1018.72 hPa |
| 2026-04-09 22:22:09 | 9.06 ℃ | 73.25 % | 1018.9 hPa |
| 2026-04-09 22:12:09 | 9.23 ℃ | 70.8 % | 1019.14 hPa |
| 2026-04-09 22:02:09 | 9.14 ℃ | 68.06 % | 1019.29 hPa |
| 2026-04-09 21:52:09 | 9.3 ℃ | 65.12 % | 1019.27 hPa |
| 2026-04-09 21:42:09 | 9.5 ℃ | 62.65 % | 1019.3 hPa |
| 2026-04-09 21:32:09 | 9.22 ℃ | 62.07 % | 1019.49 hPa |
| 2026-04-09 21:22:10 | 9.45 ℃ | 62 % | 1019.61 hPa |
| 2026-04-09 21:12:09 | 9.69 ℃ | 62.41 % | 1019.68 hPa |
| 2026-04-09 21:02:10 | 9.65 ℃ | 63.05 % | 1019.8 hPa |
| 2026-04-09 20:52:10 | 9.71 ℃ | 63.37 % | 1019.94 hPa |
| 2026-04-09 20:42:09 | 10.04 ℃ | 62.79 % | 1019.98 hPa |
| 2026-04-09 20:32:09 | 10.13 ℃ | 62.58 % | 1020.05 hPa |
| 2026-04-09 20:22:09 | 10.54 ℃ | 61.5 % | 1020.09 hPa |
| 2026-04-09 20:12:10 | 10.57 ℃ | 61.26 % | 1020.09 hPa |
| 2026-04-09 20:02:09 | 10.76 ℃ | 60.42 % | 1020.09 hPa |
| 2026-04-09 19:52:10 | 11.09 ℃ | 59.7 % | 1020.24 hPa |
| 2026-04-09 19:42:10 | 11.29 ℃ | 59.09 % | 1020.28 hPa |
| 2026-04-09 19:32:09 | 11.56 ℃ | 58.01 % | 1020.43 hPa |
| 2026-04-09 19:22:10 | 11.85 ℃ | 56.89 % | 1020.51 hPa |
| 2026-04-09 19:12:09 | 12.27 ℃ | 56.4 % | 1020.65 hPa |
| 2026-04-09 19:02:09 | 12.34 ℃ | 56.22 % | 1020.76 hPa |
| 2026-04-09 18:52:09 | 12.34 ℃ | 56.74 % | 1020.84 hPa |
| 2026-04-09 18:42:09 | 12.46 ℃ | 56.88 % | 1020.86 hPa |
| 2026-04-09 18:32:10 | 12.94 ℃ | 57.84 % | 1020.94 hPa |
| 2026-04-09 18:22:10 | 13.31 ℃ | 59.09 % | 1021.01 hPa |
| 2026-04-09 18:12:09 | 13.42 ℃ | 61.67 % | 1021.14 hPa |
| 2026-04-09 18:02:10 | 13.37 ℃ | 64.28 % | 1021.32 hPa |
| 2026-04-09 17:52:10 | 13.18 ℃ | 67.64 % | 1021.52 hPa |
| 2026-04-09 17:42:10 | 13.32 ℃ | 70 % | 1021.58 hPa |
| 2026-04-09 17:32:11 | 13.38 ℃ | 71.52 % | 1021.67 hPa |
| 2026-04-09 17:22:10 | 13.41 ℃ | 72.04 % | 1021.82 hPa |
| 2026-04-09 17:12:09 | 13.67 ℃ | 69.37 % | 1021.93 hPa |
| 2026-04-09 17:02:11 | 13.7 ℃ | 65.69 % | 1021.97 hPa |
| 2026-04-09 16:52:11 | 14.03 ℃ | 60.49 % | 1022.08 hPa |
| 2026-04-09 16:42:09 | 13.82 ℃ | 58.8 % | 1022.24 hPa |
| 2026-04-09 16:32:10 | 13.88 ℃ | 58.32 % | 1022.4 hPa |
| 2026-04-09 16:22:10 | 14.12 ℃ | 56.7 % | 1022.52 hPa |
| 2026-04-09 16:12:09 | 13.88 ℃ | 56.7 % | 1022.62 hPa |
| 2026-04-09 16:02:10 | 13.87 ℃ | 55.8 % | 1022.73 hPa |
| 2026-04-09 15:52:10 | 14.08 ℃ | 55.25 % | 1022.85 hPa |
| 2026-04-09 15:42:10 | 14.27 ℃ | 54.39 % | 1022.97 hPa |
| 2026-04-09 15:32:10 | 14.25 ℃ | 53.17 % | 1023.09 hPa |
| 2026-04-09 15:22:11 | 14.07 ℃ | 52.42 % | 1023.3 hPa |
| 2026-04-09 15:12:10 | 13.87 ℃ | 51.96 % | 1023.43 hPa |
| 2026-04-09 15:02:10 | 14.12 ℃ | 51.21 % | 1023.51 hPa |
| 2026-04-09 14:52:10 | 14.17 ℃ | 50.1 % | 1023.57 hPa |
| 2026-04-09 14:42:10 | 14.49 ℃ | 48.58 % | 1023.69 hPa |
| 2026-04-09 14:32:10 | 14.35 ℃ | 48.27 % | 1023.87 hPa |
| 2026-04-09 14:22:10 | 14.08 ℃ | 48.23 % | 1024.08 hPa |
| 2026-04-09 14:12:10 | 13.98 ℃ | 47.18 % | 1024.17 hPa |
| 2026-04-09 14:02:10 | 14.12 ℃ | 46.35 % | 1024.2 hPa |
| 2026-04-09 13:52:10 | 14.35 ℃ | 44.76 % | 1024.27 hPa |
| 2026-04-09 13:42:10 | 14.11 ℃ | 43.41 % | 1024.41 hPa |
| 2026-04-09 13:32:10 | 14.12 ℃ | 42.39 % | 1024.6 hPa |
| 2026-04-09 13:22:10 | 14.12 ℃ | 41.9 % | 1024.75 hPa |
| 2026-04-09 13:12:11 | 14.05 ℃ | 41.19 % | 1024.92 hPa |
| 2026-04-09 13:02:11 | 14.16 ℃ | 39.77 % | 1025.1 hPa |
| 2026-04-09 12:52:10 | 14.24 ℃ | 38.27 % | 1025.26 hPa |
| 2026-04-09 12:42:10 | 14.25 ℃ | 37.53 % | 1025.35 hPa |
| 2026-04-09 12:32:10 | 13.79 ℃ | 37.59 % | 1025.46 hPa |
| 2026-04-09 12:22:10 | 13.39 ℃ | 38.05 % | 1025.65 hPa |
| 2026-04-09 12:12:10 | 13.31 ℃ | 38.28 % | 1025.75 hPa |
| 2026-04-09 12:02:10 | 13.41 ℃ | 39.58 % | 1025.8 hPa |
| 2026-04-09 11:52:11 | 13.72 ℃ | 41.37 % | 1025.85 hPa |
| 2026-04-09 11:42:10 | 13.78 ℃ | 43.05 % | 1025.94 hPa |
| 2026-04-09 11:32:10 | 13.8 ℃ | 44.99 % | 1025.98 hPa |
| 2026-04-09 11:22:10 | 13.97 ℃ | 47.06 % | 1026.02 hPa |
| 2026-04-09 11:12:10 | 13.76 ℃ | 48.94 % | 1026.05 hPa |
| 2026-04-09 11:02:10 | 13.58 ℃ | 51.13 % | 1026.04 hPa |
| 2026-04-09 10:52:11 | 13.71 ℃ | 51.75 % | 1026.11 hPa |
| 2026-04-09 10:42:10 | 13.35 ℃ | 52.73 % | 1026.14 hPa |
| 2026-04-09 10:32:10 | 13.04 ℃ | 54.74 % | 1026.19 hPa |
| 2026-04-09 10:22:10 | 12.86 ℃ | 56.42 % | 1026.28 hPa |
| 2026-04-09 10:12:10 | 13.07 ℃ | 57.88 % | 1026.34 hPa |
| 2026-04-09 10:02:11 | 12.4 ℃ | 61.8 % | 1026.42 hPa |
| 2026-04-09 09:52:11 | 11.85 ℃ | 64.47 % | 1026.5 hPa |
| 2026-04-09 09:42:10 | 11.94 ℃ | 65.89 % | 1026.54 hPa |
| 2026-04-09 09:32:10 | 11.69 ℃ | 68.36 % | 1026.53 hPa |
| 2026-04-09 09:22:10 | 11.63 ℃ | 71.06 % | 1026.52 hPa |
| 2026-04-09 09:12:11 | 11.59 ℃ | 74.19 % | 1026.54 hPa |
| 2026-04-09 09:02:10 | 10.9 ℃ | 79.17 % | 1026.55 hPa |
| 2026-04-09 08:52:10 | 10.36 ℃ | 85.45 % | 1026.67 hPa |
| 2026-04-09 08:42:11 | 10.12 ℃ | 89.76 % | 1026.7 hPa |
| 2026-04-09 08:32:10 | 10.06 ℃ | 92.73 % | 1026.68 hPa |
| 2026-04-09 08:22:10 | 9.62 ℃ | 96.48 % | 1026.64 hPa |
| 2026-04-09 08:12:10 | 9.1 ℃ | 100 % | 1026.64 hPa |
| 2026-04-09 08:02:11 | 8.66 ℃ | 100 % | 1026.67 hPa |
| 2026-04-09 07:52:11 | 8.62 ℃ | 100 % | 1026.7 hPa |
| 2026-04-09 07:42:10 | 8.65 ℃ | 100 % | 1026.71 hPa |
| 2026-04-09 07:32:11 | 8.56 ℃ | 100 % | 1026.75 hPa |
| 2026-04-09 07:22:10 | 8.4 ℃ | 100 % | 1026.84 hPa |
| 2026-04-09 07:12:10 | 8.46 ℃ | 100 % | 1026.87 hPa |
| 2026-04-09 07:02:11 | 8.34 ℃ | 100 % | 1026.92 hPa |
| 2026-04-09 06:52:11 | 8.47 ℃ | 100 % | 1026.94 hPa |
| 2026-04-09 06:42:10 | 8.55 ℃ | 100 % | 1026.92 hPa |
| 2026-04-09 06:32:11 | 8.78 ℃ | 100 % | 1026.93 hPa |
| 2026-04-09 06:22:10 | 8.68 ℃ | 100 % | 1026.96 hPa |
| 2026-04-09 06:12:10 | 8.92 ℃ | 100 % | 1027.02 hPa |
| 2026-04-09 06:02:11 | 9.14 ℃ | 100 % | 1027.07 hPa |
| 2026-04-09 05:52:10 | 8.9 ℃ | 100 % | 1027.13 hPa |
| 2026-04-09 05:42:11 | 8.86 ℃ | 100 % | 1027.19 hPa |
| 2026-04-09 05:32:11 | 8.79 ℃ | 100 % | 1027.24 hPa |
| 2026-04-09 05:22:11 | 8.83 ℃ | 100 % | 1027.28 hPa |
| 2026-04-09 05:12:11 | 9.28 ℃ | 100 % | 1027.33 hPa |
| 2026-04-09 05:02:11 | 9.4 ℃ | 100 % | 1027.35 hPa |
| 2026-04-09 04:52:10 | 9.55 ℃ | 100 % | 1027.36 hPa |
| 2026-04-09 04:42:10 | 9.69 ℃ | 100 % | 1027.38 hPa |
| 2026-04-09 04:32:11 | 9.97 ℃ | 100 % | 1027.37 hPa |
| 2026-04-09 04:22:11 | 9.97 ℃ | 100 % | 1027.36 hPa |
| 2026-04-09 04:12:11 | 9.9 ℃ | 100 % | 1027.41 hPa |
| 2026-04-09 04:02:11 | 9.63 ℃ | 100 % | 1027.51 hPa |
| 2026-04-09 03:52:11 | 9.69 ℃ | 100 % | 1027.57 hPa |
| 2026-04-09 03:42:11 | 9.42 ℃ | 100 % | 1027.69 hPa |
| 2026-04-09 03:32:11 | 9.14 ℃ | 100 % | 1027.81 hPa |
| 2026-04-09 03:22:12 | 9.32 ℃ | 100 % | 1027.89 hPa |
| 2026-04-09 03:12:11 | 9.41 ℃ | 100 % | 1027.98 hPa |
| 2026-04-09 03:02:11 | 9.64 ℃ | 100 % | 1028.03 hPa |
| 2026-04-09 02:52:11 | 10.1 ℃ | 100 % | 1028.1 hPa |
| 2026-04-09 02:42:11 | 10.51 ℃ | 100 % | 1028.12 hPa |
| 2026-04-09 02:32:12 | 10.26 ℃ | 100 % | 1028.13 hPa |
| 2026-04-09 02:22:11 | 10.02 ℃ | 100 % | 1028.14 hPa |
| 2026-04-09 02:12:12 | 9.81 ℃ | 100 % | 1028.15 hPa |
| 2026-04-09 02:02:11 | 9.78 ℃ | 100 % | 1028.17 hPa |
| 2026-04-09 01:52:11 | 9.51 ℃ | 100 % | 1028.2 hPa |
| 2026-04-09 01:42:11 | 9.46 ℃ | 100 % | 1028.23 hPa |
| 2026-04-09 01:32:11 | 9.26 ℃ | 100 % | 1028.23 hPa |
| 2026-04-09 01:22:11 | 9.39 ℃ | 100 % | 1028.28 hPa |
| 2026-04-09 01:12:11 | 9.33 ℃ | 100 % | 1028.28 hPa |
| 2026-04-09 01:02:11 | 9.32 ℃ | 100 % | 1028.29 hPa |
| 2026-04-09 00:52:11 | 9.5 ℃ | 100 % | 1028.33 hPa |
| 2026-04-09 00:42:11 | 9.69 ℃ | 100 % | 1028.42 hPa |
| 2026-04-09 00:32:12 | 9.79 ℃ | 100 % | 1028.4 hPa |
| 2026-04-09 00:22:12 | 9.74 ℃ | 100 % | 1028.44 hPa |
| 2026-04-09 00:12:11 | 9.91 ℃ | 100 % | 1028.46 hPa |
| 2026-04-09 00:02:12 | 9.79 ℃ | 100 % | 1028.54 hPa |
| 2026-04-08 23:52:11 | 9.94 ℃ | 100 % | 1028.66 hPa |
| 2026-04-08 23:42:12 | 9.9 ℃ | 100 % | 1028.7 hPa |
| 2026-04-08 23:32:11 | 10.35 ℃ | 100 % | 1028.73 hPa |
| 2026-04-08 23:22:12 | 10.47 ℃ | 100 % | 1028.74 hPa |
| 2026-04-08 23:12:11 | 10.6 ℃ | 99.99 % | 1028.69 hPa |
| 2026-04-08 23:02:11 | 10.23 ℃ | 99.98 % | 1028.62 hPa |
| 2026-04-08 22:52:13 | 10.34 ℃ | 99.96 % | 1028.56 hPa |
| 2026-04-08 22:42:13 | 10.23 ℃ | 99.92 % | 1028.58 hPa |
| 2026-04-08 22:32:11 | 10.3 ℃ | 99.85 % | 1028.65 hPa |
| 2026-04-08 22:22:12 | 10.41 ℃ | 99.7 % | 1028.72 hPa |
| 2026-04-08 22:12:11 | 10.28 ℃ | 99.39 % | 1028.84 hPa |
| 2026-04-08 22:02:11 | 10.46 ℃ | 98.78 % | 1028.92 hPa |
| 2026-04-08 21:52:11 | 10.3 ℃ | 97.57 % | 1028.98 hPa |
| 2026-04-08 21:42:11 | 10.77 ℃ | 95.14 % | 1029.02 hPa |
| 2026-04-08 21:32:11 | 11.26 ℃ | 90.28 % | 1029.03 hPa |
| 2026-04-08 21:22:11 | 11.49 ℃ | 86.54 % | 1029.05 hPa |
| 2026-04-08 21:12:11 | 11.76 ℃ | 83.16 % | 1028.99 hPa |
| 2026-04-08 21:02:11 | 11.56 ℃ | 82.37 % | 1028.91 hPa |
| 2026-04-08 20:52:11 | 11.76 ℃ | 78.95 % | 1028.9 hPa |
| 2026-04-08 20:42:11 | 11.88 ℃ | 76.8 % | 1028.83 hPa |
| 2026-04-08 20:32:12 | 12.18 ℃ | 73.8 % | 1028.74 hPa |
| 2026-04-08 20:22:11 | 11.97 ℃ | 73.24 % | 1028.63 hPa |
| 2026-04-08 20:12:11 | 11.9 ℃ | 72.37 % | 1028.57 hPa |
| 2026-04-08 20:02:11 | 11.76 ℃ | 70.82 % | 1028.53 hPa |
| 2026-04-08 19:52:11 | 11.77 ℃ | 69.29 % | 1028.54 hPa |
| 2026-04-08 19:42:13 | 12.37 ℃ | 66.83 % | 1028.52 hPa |
| 2026-04-08 19:32:12 | 12.45 ℃ | 64.47 % | 1028.5 hPa |
| 2026-04-08 19:22:12 | 12.71 ℃ | 62.64 % | 1028.59 hPa |
| 2026-04-08 19:12:12 | 12.82 ℃ | 60.72 % | 1028.66 hPa |
| 2026-04-08 19:02:11 | 13.04 ℃ | 59.28 % | 1028.73 hPa |
| 2026-04-08 18:52:11 | 12.99 ℃ | 58.26 % | 1028.83 hPa |
| 2026-04-08 18:42:12 | 13.11 ℃ | 57.38 % | 1028.86 hPa |
| 2026-04-08 18:32:11 | 13.49 ℃ | 57.21 % | 1028.9 hPa |
| 2026-04-08 18:22:11 | 13.77 ℃ | 57.94 % | 1028.98 hPa |
| 2026-04-08 18:12:12 | 13.84 ℃ | 58.95 % | 1029 hPa |
| 2026-04-08 18:02:12 | 13.79 ℃ | 59.03 % | 1028.98 hPa |
| 2026-04-08 17:52:12 | 14.08 ℃ | 58.8 % | 1028.97 hPa |
| 2026-04-08 17:42:11 | 14.37 ℃ | 58.03 % | 1028.96 hPa |
| 2026-04-08 17:32:12 | 14.39 ℃ | 58.32 % | 1029.01 hPa |
| 2026-04-08 17:22:12 | 14.62 ℃ | 58.26 % | 1029.05 hPa |
| 2026-04-08 17:12:12 | 14.41 ℃ | 58.4 % | 1029.19 hPa |
| 2026-04-08 17:02:12 | 14.24 ℃ | 58.26 % | 1029.24 hPa |
| 2026-04-08 16:52:12 | 14.55 ℃ | 57.81 % | 1029.26 hPa |
| 2026-04-08 16:42:12 | 14.63 ℃ | 58.22 % | 1029.26 hPa |
| 2026-04-08 16:32:12 | 14.21 ℃ | 58.71 % | 1029.36 hPa |
| 2026-04-08 16:22:12 | 14.76 ℃ | 57.62 % | 1029.36 hPa |
| 2026-04-08 16:12:12 | 14.75 ℃ | 57.57 % | 1029.45 hPa |
| 2026-04-08 16:02:12 | 14.46 ℃ | 57.42 % | 1029.5 hPa |
| 2026-04-08 15:52:12 | 14.54 ℃ | 57.06 % | 1029.6 hPa |
| 2026-04-08 15:42:12 | 14.9 ℃ | 56.6 % | 1029.66 hPa |
| 2026-04-08 15:32:12 | 14.51 ℃ | 57.5 % | 1029.72 hPa |
| 2026-04-08 15:22:12 | 14.44 ℃ | 57.85 % | 1029.84 hPa |
| 2026-04-08 15:12:12 | 14.73 ℃ | 58.02 % | 1029.88 hPa |
| 2026-04-08 15:02:12 | 14.31 ℃ | 58.28 % | 1030.04 hPa |
| 2026-04-08 14:52:12 | 14.29 ℃ | 57.65 % | 1030.08 hPa |
| 2026-04-08 14:42:12 | 14.21 ℃ | 58.51 % | 1030.12 hPa |
| 2026-04-08 14:32:12 | 14.4 ℃ | 59.6 % | 1030.09 hPa |
| 2026-04-08 14:22:12 | 15.09 ℃ | 60.54 % | 1030.1 hPa |
| 2026-04-08 14:12:12 | 15.04 ℃ | 64.73 % | 1030.1 hPa |
| 2026-04-08 14:02:12 | 14.29 ℃ | 67.01 % | 1030.16 hPa |
| 2026-04-08 13:52:12 | 14.59 ℃ | 66.28 % | 1030.17 hPa |
| 2026-04-08 13:42:12 | 14.15 ℃ | 65.32 % | 1030.2 hPa |
| 2026-04-08 13:32:12 | 14.59 ℃ | 64.45 % | 1030.25 hPa |
| 2026-04-08 13:22:12 | 14.64 ℃ | 66.55 % | 1030.29 hPa |
| 2026-04-08 13:12:12 | 14.2 ℃ | 68.56 % | 1030.34 hPa |
| 2026-04-08 13:02:12 | 14.22 ℃ | 71.43 % | 1030.41 hPa |
| 2026-04-08 12:52:14 | 14.79 ℃ | 71.65 % | 1030.48 hPa |
| 2026-04-08 12:42:12 | 13.98 ℃ | 73.35 % | 1030.62 hPa |
| 2026-04-08 12:32:12 | 13.54 ℃ | 75.2 % | 1030.66 hPa |
| 2026-04-08 12:22:12 | 13.74 ℃ | 76.36 % | 1030.69 hPa |
| 2026-04-08 12:12:12 | 13.93 ℃ | 76.35 % | 1030.76 hPa |
| 2026-04-08 12:02:12 | 13.82 ℃ | 77.82 % | 1030.83 hPa |
| 2026-04-08 11:52:12 | 14.07 ℃ | 79.8 % | 1030.85 hPa |
| 2026-04-08 11:42:12 | 14.14 ℃ | 84.88 % | 1030.82 hPa |
| 2026-04-08 11:32:12 | 13.72 ℃ | 90.25 % | 1030.81 hPa |
| 2026-04-08 11:22:13 | 13.01 ℃ | 93.88 % | 1030.8 hPa |
| 2026-04-08 11:12:12 | 12.51 ℃ | 97.72 % | 1030.9 hPa |
| 2026-04-08 11:02:12 | 12.17 ℃ | 100 % | 1030.9 hPa |
| 2026-04-08 10:52:13 | 11.39 ℃ | 100 % | 1030.96 hPa |
| 2026-04-08 10:42:12 | 11.33 ℃ | 100 % | 1031.02 hPa |
| 2026-04-08 10:32:12 | 11.58 ℃ | 100 % | 1031.03 hPa |
| 2026-04-08 10:22:14 | 11.51 ℃ | 100 % | 1031.05 hPa |
| 2026-04-08 10:12:14 | 11.14 ℃ | 100 % | 1031.05 hPa |
| 2026-04-08 10:02:14 | 11.45 ℃ | 100 % | 1030.98 hPa |
| 2026-04-08 09:52:13 | 12.03 ℃ | 100 % | 1030.92 hPa |
| 2026-04-08 09:42:13 | 11.35 ℃ | 100 % | 1030.84 hPa |
| 2026-04-08 09:32:13 | 10.73 ℃ | 100 % | 1030.88 hPa |
| 2026-04-08 09:22:12 | 11.29 ℃ | 100 % | 1030.86 hPa |
| 2026-04-08 09:12:14 | 10.79 ℃ | 100 % | 1030.85 hPa |
| 2026-04-08 09:02:13 | 10.28 ℃ | 100 % | 1030.82 hPa |
| 2026-04-08 08:52:13 | 9.97 ℃ | 100 % | 1030.75 hPa |
| 2026-04-08 08:42:13 | 9.9 ℃ | 100 % | 1030.65 hPa |
| 2026-04-08 08:32:12 | 10.19 ℃ | 100 % | 1030.6 hPa |
| 2026-04-08 08:22:14 | 10.39 ℃ | 100 % | 1030.54 hPa |
| 2026-04-08 08:12:13 | 11.15 ℃ | 100 % | 1030.5 hPa |
| 2026-04-08 08:02:15 | 11.58 ℃ | 100 % | 1030.49 hPa |
| 2026-04-08 07:52:13 | 12.31 ℃ | 100 % | 1030.42 hPa |
| 2026-04-08 07:42:14 | 11.67 ℃ | 100 % | 1030.43 hPa |
| 2026-04-08 07:32:13 | 11.16 ℃ | 100 % | 1030.41 hPa |
| 2026-04-08 07:22:13 | 11.17 ℃ | 100 % | 1030.35 hPa |
| 2026-04-08 07:12:13 | 11.13 ℃ | 100 % | 1030.31 hPa |
| 2026-04-08 07:02:13 | 10.76 ℃ | 100 % | 1030.31 hPa |
| 2026-04-08 06:52:13 | 10.08 ℃ | 100 % | 1030.34 hPa |
| 2026-04-08 06:42:13 | 10.03 ℃ | 100 % | 1030.33 hPa |
| 2026-04-08 06:32:13 | 10.22 ℃ | 99.99 % | 1030.26 hPa |
| 2026-04-08 06:22:17 | 10.59 ℃ | 99.98 % | 1030.28 hPa |
| 2026-04-08 06:12:13 | 10.59 ℃ | 99.96 % | 1030.24 hPa |
| 2026-04-08 06:02:14 | 10.6 ℃ | 99.93 % | 1030.19 hPa |
| 2026-04-08 05:52:13 | 10.66 ℃ | 99.86 % | 1030.15 hPa |
| 2026-04-08 05:42:13 | 10.79 ℃ | 99.72 % | 1030.12 hPa |
| 2026-04-08 05:32:13 | 10.7 ℃ | 99.43 % | 1030.07 hPa |
| 2026-04-08 05:22:13 | 11.01 ℃ | 98.87 % | 1030.08 hPa |
| 2026-04-08 05:12:13 | 10.95 ℃ | 97.73 % | 1030.08 hPa |
| 2026-04-08 05:02:13 | 10.99 ℃ | 97.39 % | 1030.06 hPa |
| 2026-04-08 04:52:13 | 11.08 ℃ | 98.01 % | 1030.07 hPa |
| 2026-04-08 04:42:13 | 11 ℃ | 98.18 % | 1030.06 hPa |
| 2026-04-08 04:32:13 | 11.32 ℃ | 96.36 % | 1030.1 hPa |
| 2026-04-08 04:22:13 | 11.28 ℃ | 96.41 % | 1030.12 hPa |
| 2026-04-08 04:12:13 | 11.32 ℃ | 96.42 % | 1030.12 hPa |
| 2026-04-08 04:02:14 | 11.33 ℃ | 95.01 % | 1030.14 hPa |
| 2026-04-08 03:52:13 | 11.56 ℃ | 93.24 % | 1030.13 hPa |
| 2026-04-08 03:42:13 | 11.48 ℃ | 93.75 % | 1030.12 hPa |
| 2026-04-08 03:32:13 | 11.4 ℃ | 94.15 % | 1030.17 hPa |
| 2026-04-08 03:22:13 | 11.38 ℃ | 92.87 % | 1030.2 hPa |
| 2026-04-08 03:12:14 | 11.45 ℃ | 91.5 % | 1030.17 hPa |
| 2026-04-08 03:05:10 | 11.48 ℃ | 92.16 % | 1030.24 hPa |
| 2026-04-08 02:55:10 | 11.47 ℃ | 92.43 % | 1030.26 hPa |
| 2026-04-08 02:45:10 | 11.39 ℃ | 93.65 % | 1030.26 hPa |
| 2026-04-08 02:35:10 | 11.54 ℃ | 94.54 % | 1030.21 hPa |
| 2026-04-08 02:25:10 | 11.41 ℃ | 96.1 % | 1030.19 hPa |
| 2026-04-08 02:15:10 | 11.69 ℃ | 94.42 % | 1030.11 hPa |
| 2026-04-08 02:05:10 | 12.06 ℃ | 93.71 % | 1030.1 hPa |
| 2026-04-08 01:55:10 | 12.33 ℃ | 92.25 % | 1030.13 hPa |
| 2026-04-08 01:45:10 | 12.11 ℃ | 93.18 % | 1030.1 hPa |
| 2026-04-08 01:35:11 | 12.29 ℃ | 92.51 % | 1030.08 hPa |
| 2026-04-08 01:25:10 | 12.2 ℃ | 91.1 % | 1030.04 hPa |
| 2026-04-08 01:15:10 | 12.26 ℃ | 89.88 % | 1030.05 hPa |
| 2026-04-08 01:05:10 | 11.97 ℃ | 89.6 % | 1030.02 hPa |
| 2026-04-08 00:55:10 | 12.47 ℃ | 88.01 % | 1029.99 hPa |
| 2026-04-08 00:45:10 | 12.85 ℃ | 83.2 % | 1029.93 hPa |
| 2026-04-08 00:35:11 | 12.79 ℃ | 83.38 % | 1029.81 hPa |
| 2026-04-08 00:25:10 | 12.71 ℃ | 83.13 % | 1029.7 hPa |
| 2026-04-08 00:15:10 | 12.6 ℃ | 83.21 % | 1029.64 hPa |
| 2026-04-08 00:05:11 | 12.86 ℃ | 82.28 % | 1029.59 hPa |
| 2026-04-07 23:55:10 | 12.68 ℃ | 83.2 % | 1029.54 hPa |
| 2026-04-07 23:45:11 | 12.46 ℃ | 84.9 % | 1029.49 hPa |
| 2026-04-07 23:35:11 | 12.96 ℃ | 82.23 % | 1029.51 hPa |
| 2026-04-07 23:25:10 | 13.3 ℃ | 80.81 % | 1029.49 hPa |
| 2026-04-07 23:15:10 | 13.14 ℃ | 82.59 % | 1029.48 hPa |
| 2026-04-07 23:05:10 | 12.83 ℃ | 85.3 % | 1029.46 hPa |
| 2026-04-07 22:55:10 | 12.72 ℃ | 85.57 % | 1029.47 hPa |
| 2026-04-07 22:45:10 | 12.57 ℃ | 85.73 % | 1029.48 hPa |
| 2026-04-07 22:35:11 | 12.33 ℃ | 86.83 % | 1029.47 hPa |
| 2026-04-07 22:25:10 | 12.12 ℃ | 88.61 % | 1029.4 hPa |
| 2026-04-07 22:15:10 | 12.18 ℃ | 88.28 % | 1029.38 hPa |
| 2026-04-07 22:05:11 | 11.99 ℃ | 90.77 % | 1029.36 hPa |
| 2026-04-07 21:55:10 | 11.67 ℃ | 93.29 % | 1029.29 hPa |
| 2026-04-07 21:45:10 | 11.52 ℃ | 91.84 % | 1029.29 hPa |
| 2026-04-07 21:35:10 | 11.5 ℃ | 91.01 % | 1029.22 hPa |
| 2026-04-07 21:25:11 | 12.13 ℃ | 87.74 % | 1029.16 hPa |
| 2026-04-07 21:15:11 | 11.84 ℃ | 87.62 % | 1029.07 hPa |
| 2026-04-07 21:05:12 | 11.88 ℃ | 85.64 % | 1028.92 hPa |
| 2026-04-07 20:55:10 | 12.29 ℃ | 79.6 % | 1028.76 hPa |
| 2026-04-07 20:45:11 | 12.04 ℃ | 77.57 % | 1028.72 hPa |
| 2026-04-07 20:35:11 | 11.93 ℃ | 77.92 % | 1028.66 hPa |
| 2026-04-07 20:25:11 | 12.04 ℃ | 78.63 % | 1028.6 hPa |
| 2026-04-07 20:15:11 | 12.12 ℃ | 75.33 % | 1028.59 hPa |
| 2026-04-07 20:05:11 | 12.4 ℃ | 73.24 % | 1028.56 hPa |
| 2026-04-07 19:55:10 | 12.71 ℃ | 71.03 % | 1028.59 hPa |
| 2026-04-07 19:45:11 | 13.09 ℃ | 69.67 % | 1028.57 hPa |
| 2026-04-07 19:35:11 | 13.18 ℃ | 69.17 % | 1028.58 hPa |
| 2026-04-07 19:25:10 | 12.68 ℃ | 70.23 % | 1028.6 hPa |
| 2026-04-07 19:15:11 | 12.81 ℃ | 71.03 % | 1028.61 hPa |
| 2026-04-07 19:05:11 | 12.84 ℃ | 71.65 % | 1028.61 hPa |
| 2026-04-07 18:55:11 | 13.5 ℃ | 70.48 % | 1028.55 hPa |
| 2026-04-07 18:45:11 | 13.39 ℃ | 70.44 % | 1028.51 hPa |
| 2026-04-07 18:35:10 | 13.29 ℃ | 70.52 % | 1028.41 hPa |
| 2026-04-07 18:25:11 | 13.47 ℃ | 68.78 % | 1028.42 hPa |
| 2026-04-07 18:15:11 | 13.42 ℃ | 67.59 % | 1028.36 hPa |
| 2026-04-07 18:05:11 | 13.92 ℃ | 65.71 % | 1028.35 hPa |
| 2026-04-07 17:55:11 | 13.77 ℃ | 65.98 % | 1028.34 hPa |
| 2026-04-07 17:45:12 | 13.5 ℃ | 66.05 % | 1028.34 hPa |
| 2026-04-07 17:35:11 | 13.4 ℃ | 65.81 % | 1028.35 hPa |
| 2026-04-07 17:25:11 | 13.67 ℃ | 64.33 % | 1028.37 hPa |
| 2026-04-07 17:15:11 | 13.31 ℃ | 63.64 % | 1028.45 hPa |
| 2026-04-07 17:05:11 | 13.44 ℃ | 62.01 % | 1028.48 hPa |
| 2026-04-07 16:55:12 | 13.61 ℃ | 60.56 % | 1028.48 hPa |
| 2026-04-07 16:45:11 | 13.49 ℃ | 60.3 % | 1028.42 hPa |
| 2026-04-07 16:35:11 | 13.29 ℃ | 61.28 % | 1028.43 hPa |
| 2026-04-07 16:25:11 | 12.79 ℃ | 62.78 % | 1028.42 hPa |
| 2026-04-07 16:15:11 | 12.57 ℃ | 65.52 % | 1028.39 hPa |
| 2026-04-07 16:05:11 | 12.36 ℃ | 68.66 % | 1028.42 hPa |
| 2026-04-07 15:55:11 | 12.74 ℃ | 70.22 % | 1028.41 hPa |
| 2026-04-07 15:45:11 | 12.71 ℃ | 72.35 % | 1028.35 hPa |
| 2026-04-07 15:35:12 | 12.66 ℃ | 73.78 % | 1028.35 hPa |
| 2026-04-07 15:25:11 | 12.73 ℃ | 75.49 % | 1028.36 hPa |
| 2026-04-07 15:15:12 | 13.31 ℃ | 78.45 % | 1028.33 hPa |
| 2026-04-07 15:05:11 | 13.31 ℃ | 79.54 % | 1028.32 hPa |
| 2026-04-07 14:55:12 | 13.65 ℃ | 76.97 % | 1028.28 hPa |
| 2026-04-07 14:45:11 | 13.55 ℃ | 78.32 % | 1028.22 hPa |
| 2026-04-07 14:35:11 | 13 ℃ | 78.84 % | 1028.24 hPa |
| 2026-04-07 14:25:11 | 13.14 ℃ | 78.39 % | 1028.22 hPa |
| 2026-04-07 14:15:11 | 13.33 ℃ | 79.13 % | 1028.24 hPa |
| 2026-04-07 14:05:11 | 13.74 ℃ | 77.52 % | 1028.22 hPa |
| 2026-04-07 13:55:11 | 13.29 ℃ | 79.39 % | 1028.23 hPa |
| 2026-04-07 13:45:11 | 14.23 ℃ | 75.75 % | 1028.21 hPa |
| 2026-04-07 13:35:11 | 14.64 ℃ | 76.1 % | 1028.13 hPa |
| 2026-04-07 13:25:11 | 14.92 ℃ | 78.14 % | 1028.09 hPa |
| 2026-04-07 13:15:11 | 14.39 ℃ | 80.14 % | 1028.11 hPa |
| 2026-04-07 13:05:11 | 14.3 ℃ | 82.05 % | 1028.15 hPa |
| 2026-04-07 12:55:11 | 13.61 ℃ | 86.83 % | 1028.2 hPa |
| 2026-04-07 12:45:11 | 13.37 ℃ | 89.99 % | 1028.22 hPa |
| 2026-04-07 12:35:12 | 13.38 ℃ | 92.82 % | 1028.22 hPa |
| 2026-04-07 12:25:12 | 13.19 ℃ | 97.94 % | 1028.22 hPa |
| 2026-04-07 12:15:11 | 12.84 ℃ | 100 % | 1028.26 hPa |
| 2026-04-07 12:05:11 | 13.19 ℃ | 100 % | 1028.17 hPa |
| 2026-04-07 11:55:11 | 13.19 ℃ | 100 % | 1028.17 hPa |
| 2026-04-07 11:45:12 | 12.78 ℃ | 100 % | 1028.13 hPa |
| 2026-04-07 11:35:12 | 12.14 ℃ | 100 % | 1028.09 hPa |
| 2026-04-07 11:25:12 | 11.99 ℃ | 100 % | 1028.01 hPa |
| 2026-04-07 11:15:11 | 11.98 ℃ | 100 % | 1027.97 hPa |
| 2026-04-07 11:05:11 | 12.19 ℃ | 100 % | 1027.91 hPa |
| 2026-04-07 10:55:11 | 11.8 ℃ | 100 % | 1027.89 hPa |
| 2026-04-07 10:45:13 | 11.55 ℃ | 100 % | 1027.83 hPa |
| 2026-04-07 10:35:11 | 11.53 ℃ | 100 % | 1027.82 hPa |
| 2026-04-07 10:25:11 | 11.59 ℃ | 100 % | 1027.79 hPa |
| 2026-04-07 10:15:12 | 11.56 ℃ | 100 % | 1027.68 hPa |
| 2026-04-07 10:05:12 | 11.34 ℃ | 100 % | 1027.6 hPa |
| 2026-04-07 09:55:11 | 10.99 ℃ | 100 % | 1027.56 hPa |
| 2026-04-07 09:45:11 | 10.8 ℃ | 100 % | 1027.5 hPa |
| 2026-04-07 09:35:11 | 10.75 ℃ | 100 % | 1027.37 hPa |
| 2026-04-07 09:25:11 | 10.78 ℃ | 100 % | 1027.35 hPa |
| 2026-04-07 09:15:11 | 10.66 ℃ | 100 % | 1027.24 hPa |
| 2026-04-07 09:05:12 | 10.54 ℃ | 100 % | 1027.17 hPa |
| 2026-04-07 08:55:13 | 10.52 ℃ | 100 % | 1027.11 hPa |
| 2026-04-07 08:45:12 | 10.89 ℃ | 100 % | 1027.11 hPa |
| 2026-04-07 08:35:11 | 11.32 ℃ | 100 % | 1027.03 hPa |
| 2026-04-07 08:25:12 | 12 ℃ | 100 % | 1026.93 hPa |
| 2026-04-07 08:15:12 | 12.26 ℃ | 100 % | 1026.83 hPa |
| 2026-04-07 08:05:12 | 12.25 ℃ | 100 % | 1026.79 hPa |
| 2026-04-07 07:55:12 | 12.04 ℃ | 100 % | 1026.76 hPa |
| 2026-04-07 07:45:12 | 11.16 ℃ | 100 % | 1026.63 hPa |
| 2026-04-07 07:35:12 | 11.01 ℃ | 100 % | 1026.45 hPa |
| 2026-04-07 07:25:12 | 10.4 ℃ | 100 % | 1026.37 hPa |
| 2026-04-07 07:15:12 | 10.42 ℃ | 100 % | 1026.25 hPa |
| 2026-04-07 07:05:12 | 10.15 ℃ | 100 % | 1026.15 hPa |
| 2026-04-07 06:55:12 | 9.7 ℃ | 100 % | 1026.07 hPa |
| 2026-04-07 06:45:12 | 9.7 ℃ | 100 % | 1026 hPa |
| 2026-04-07 06:35:12 | 9.67 ℃ | 100 % | 1025.97 hPa |
| 2026-04-07 06:25:12 | 9.8 ℃ | 100 % | 1025.93 hPa |
| 2026-04-07 06:15:11 | 9.79 ℃ | 100 % | 1026.01 hPa |
| 2026-04-07 06:05:12 | 9.97 ℃ | 100 % | 1026.04 hPa |
| 2026-04-07 05:55:12 | 9.71 ℃ | 100 % | 1026.07 hPa |
| 2026-04-07 05:45:12 | 9.46 ℃ | 100 % | 1026.08 hPa |
| 2026-04-07 05:35:12 | 9.54 ℃ | 100 % | 1026.03 hPa |
| 2026-04-07 05:25:12 | 9.42 ℃ | 100 % | 1026.09 hPa |
| 2026-04-07 05:15:12 | 9.26 ℃ | 100 % | 1026.01 hPa |
| 2026-04-07 05:05:12 | 9.46 ℃ | 100 % | 1026 hPa |
| 2026-04-07 04:55:14 | 9.62 ℃ | 100 % | 1026 hPa |
| 2026-04-07 04:45:12 | 9.18 ℃ | 100 % | 1025.97 hPa |
| 2026-04-07 04:35:12 | 8.95 ℃ | 100 % | 1025.92 hPa |
| 2026-04-07 04:25:12 | 9.13 ℃ | 100 % | 1025.93 hPa |
| 2026-04-07 04:15:12 | 9 ℃ | 100 % | 1025.89 hPa |
| 2026-04-07 04:05:13 | 8.71 ℃ | 100 % | 1025.88 hPa |
| 2026-04-07 03:55:12 | 8.71 ℃ | 100 % | 1025.88 hPa |
| 2026-04-07 03:45:12 | 8.75 ℃ | 100 % | 1025.9 hPa |
| 2026-04-07 03:35:12 | 8.87 ℃ | 100 % | 1025.96 hPa |
| 2026-04-07 03:25:12 | 8.9 ℃ | 100 % | 1026.03 hPa |
| 2026-04-07 03:15:12 | 8.73 ℃ | 100 % | 1026.11 hPa |
| 2026-04-07 03:05:12 | 8.94 ℃ | 100 % | 1026.12 hPa |
| 2026-04-07 02:55:12 | 8.9 ℃ | 100 % | 1026.11 hPa |
| 2026-04-07 02:45:13 | 8.62 ℃ | 100 % | 1026.15 hPa |
| 2026-04-07 02:35:13 | 8.6 ℃ | 100 % | 1026.15 hPa |
| 2026-04-07 02:25:12 | 8.71 ℃ | 100 % | 1026.21 hPa |
| 2026-04-07 02:15:12 | 8.56 ℃ | 100 % | 1026.27 hPa |
| 2026-04-07 02:05:12 | 8.88 ℃ | 100 % | 1026.24 hPa |
| 2026-04-07 01:55:12 | 9.01 ℃ | 100 % | 1026.24 hPa |
| 2026-04-07 01:45:12 | 9.05 ℃ | 100 % | 1026.25 hPa |
| 2026-04-07 01:35:12 | 9.17 ℃ | 100 % | 1026.29 hPa |
| 2026-04-07 01:25:12 | 9.26 ℃ | 100 % | 1026.25 hPa |
| 2026-04-07 01:15:12 | 9.37 ℃ | 100 % | 1026.25 hPa |
| 2026-04-07 01:05:12 | 9.13 ℃ | 100 % | 1026.23 hPa |
| 2026-04-07 00:55:12 | 9.3 ℃ | 100 % | 1026.25 hPa |
| 2026-04-07 00:45:12 | 9.28 ℃ | 100 % | 1026.23 hPa |
| 2026-04-07 00:35:12 | 9.02 ℃ | 100 % | 1026.22 hPa |
| 2026-04-07 00:25:12 | 9.19 ℃ | 100 % | 1026.23 hPa |
| 2026-04-07 00:15:12 | 9.31 ℃ | 100 % | 1026.18 hPa |
| 2026-04-07 00:05:12 | 9.56 ℃ | 100 % | 1026.18 hPa |
| 2026-04-06 23:55:12 | 9.54 ℃ | 100 % | 1026.14 hPa |
| 2026-04-06 23:45:12 | 9.9 ℃ | 100 % | 1026.15 hPa |
| 2026-04-06 23:35:12 | 10.04 ℃ | 100 % | 1026.08 hPa |
| 2026-04-06 23:25:12 | 10.36 ℃ | 100 % | 1026.07 hPa |
| 2026-04-06 23:15:12 | 10.21 ℃ | 100 % | 1026.09 hPa |
| 2026-04-06 23:05:12 | 9.94 ℃ | 100 % | 1026.14 hPa |
| 2026-04-06 22:55:12 | 9.9 ℃ | 100 % | 1026.16 hPa |
| 2026-04-06 22:45:12 | 10.01 ℃ | 100 % | 1026.15 hPa |
| 2026-04-06 22:35:12 | 10.45 ℃ | 100 % | 1026.18 hPa |
| 2026-04-06 22:25:12 | 10.7 ℃ | 100 % | 1026.11 hPa |
| 2026-04-06 22:15:13 | 11.35 ℃ | 100 % | 1026.11 hPa |
| 2026-04-06 22:05:12 | 12 ℃ | 100 % | 1026.1 hPa |
| 2026-04-06 21:55:13 | 12.24 ℃ | 100 % | 1026.03 hPa |
| 2026-04-06 21:45:13 | 12.09 ℃ | 100 % | 1026.1 hPa |
| 2026-04-06 21:35:13 | 12.07 ℃ | 100 % | 1026.1 hPa |
| 2026-04-06 21:25:13 | 12.19 ℃ | 100 % | 1026.06 hPa |
| 2026-04-06 21:15:13 | 11.87 ℃ | 100 % | 1025.98 hPa |
| 2026-04-06 21:05:12 | 11.68 ℃ | 100 % | 1025.9 hPa |
| 2026-04-06 20:55:12 | 12.32 ℃ | 100 % | 1025.9 hPa |
| 2026-04-06 20:45:12 | 12.15 ℃ | 100 % | 1025.83 hPa |
| 2026-04-06 20:35:12 | 12.3 ℃ | 99.99 % | 1025.73 hPa |
| 2026-04-06 20:25:13 | 12.27 ℃ | 99.98 % | 1025.74 hPa |
| 2026-04-06 20:15:12 | 11.95 ℃ | 99.96 % | 1025.63 hPa |
| 2026-04-06 20:05:13 | 12.52 ℃ | 99.92 % | 1025.57 hPa |
| 2026-04-06 19:55:13 | 12.43 ℃ | 99.85 % | 1025.53 hPa |
| 2026-04-06 19:45:13 | 12.63 ℃ | 99.69 % | 1025.45 hPa |
| 2026-04-06 19:35:13 | 13.05 ℃ | 99.39 % | 1025.39 hPa |
| 2026-04-06 19:25:14 | 13.14 ℃ | 98.78 % | 1025.35 hPa |
| 2026-04-06 19:15:14 | 13.34 ℃ | 97.55 % | 1025.34 hPa |
| 2026-04-06 19:05:13 | 13.7 ℃ | 95.11 % | 1025.26 hPa |
| 2026-04-06 18:55:13 | 14.05 ℃ | 92.43 % | 1025.23 hPa |
| 2026-04-06 18:45:13 | 13.61 ℃ | 90.92 % | 1025.24 hPa |
| 2026-04-06 18:35:13 | 13.03 ℃ | 84.58 % | 1025.28 hPa |
| 2026-04-06 18:25:13 | 12.58 ℃ | 83.52 % | 1025.27 hPa |
| 2026-04-06 18:15:13 | 12.76 ℃ | 83.41 % | 1025.1 hPa |
| 2026-04-06 18:05:13 | 12.71 ℃ | 85.06 % | 1025.08 hPa |
| 2026-04-06 17:55:13 | 12.85 ℃ | 87.25 % | 1024.93 hPa |
| 2026-04-06 17:45:13 | 12.84 ℃ | 86.12 % | 1024.92 hPa |
| 2026-04-06 17:35:13 | 13.03 ℃ | 82.25 % | 1024.8 hPa |
| 2026-04-06 17:25:13 | 12.83 ℃ | 79.06 % | 1024.8 hPa |
| 2026-04-06 17:15:13 | 13.02 ℃ | 77.64 % | 1024.74 hPa |
| 2026-04-06 17:05:14 | 13.03 ℃ | 78.76 % | 1024.72 hPa |
| 2026-04-06 16:55:13 | 12.9 ℃ | 80.8 % | 1024.59 hPa |
| 2026-04-06 16:45:13 | 13.35 ℃ | 80.92 % | 1024.56 hPa |
| 2026-04-06 16:35:13 | 12.9 ℃ | 83.61 % | 1024.45 hPa |
| 2026-04-06 16:25:13 | 13.01 ℃ | 85.02 % | 1024.44 hPa |
| 2026-04-06 16:15:14 | 13.25 ℃ | 81.9 % | 1024.39 hPa |
| 2026-04-06 16:05:13 | 13.64 ℃ | 79.96 % | 1024.37 hPa |
| 2026-04-06 15:55:13 | 13.32 ℃ | 81.02 % | 1024.39 hPa |
| 2026-04-06 15:45:13 | 13.7 ℃ | 80.57 % | 1024.28 hPa |
| 2026-04-06 15:35:13 | 13.74 ℃ | 80.68 % | 1024.16 hPa |
| 2026-04-06 15:25:14 | 14.01 ℃ | 81 % | 1024.01 hPa |
| 2026-04-06 15:15:13 | 14.36 ℃ | 79.46 % | 1023.87 hPa |
| 2026-04-06 15:05:14 | 14.33 ℃ | 79.41 % | 1023.87 hPa |
| 2026-04-06 14:55:13 | 14.13 ℃ | 78.67 % | 1023.88 hPa |
| 2026-04-06 14:45:13 | 13.86 ℃ | 77.62 % | 1023.87 hPa |
| 2026-04-06 14:35:14 | 13.94 ℃ | 78.03 % | 1023.88 hPa |
| 2026-04-06 14:25:14 | 14.18 ℃ | 77.93 % | 1023.83 hPa |
| 2026-04-06 14:15:15 | 14.23 ℃ | 78 % | 1023.82 hPa |
| 2026-04-06 14:05:13 | 13.96 ℃ | 78.83 % | 1023.86 hPa |
| 2026-04-06 13:55:13 | 13.44 ℃ | 79.97 % | 1023.75 hPa |
| 2026-04-06 13:45:14 | 13.43 ℃ | 81.23 % | 1023.64 hPa |
| 2026-04-06 13:35:14 | 13.34 ℃ | 83.55 % | 1023.6 hPa |
| 2026-04-06 13:25:13 | 13.21 ℃ | 83.54 % | 1023.6 hPa |
| 2026-04-06 13:15:13 | 13.32 ℃ | 85.26 % | 1023.46 hPa |
| 2026-04-06 13:05:13 | 13.65 ℃ | 85.25 % | 1023.37 hPa |
| 2026-04-06 12:55:13 | 13.26 ℃ | 86.53 % | 1023.39 hPa |
| 2026-04-06 12:45:14 | 13.66 ℃ | 87.41 % | 1023.16 hPa |
| 2026-04-06 12:35:14 | 13.94 ℃ | 87.29 % | 1022.86 hPa |
| 2026-04-06 12:25:13 | 13.22 ℃ | 88.31 % | 1022.77 hPa |
| 2026-04-06 12:15:13 | 12.97 ℃ | 89.41 % | 1022.68 hPa |
| 2026-04-06 12:05:14 | 12.81 ℃ | 90 % | 1022.56 hPa |
| 2026-04-06 11:55:13 | 13.07 ℃ | 89.88 % | 1022.49 hPa |
| 2026-04-06 11:45:13 | 12.89 ℃ | 90.21 % | 1022.46 hPa |
| 2026-04-06 11:35:14 | 12.78 ℃ | 91.84 % | 1022.49 hPa |
| 2026-04-06 11:25:14 | 12.77 ℃ | 95.02 % | 1022.6 hPa |
| 2026-04-06 11:16:34 | 12.76 ℃ | 95.85 % | 1022.39 hPa |
| 2026-04-06 11:16:29 | 12.81 ℃ | 0 % | 1022.55 hPa |
| Durchschnitt | 14.65 ℃ | 85.64 % | 1021.36 hPa |
Nachfolgend die Extremwerte seit Aufzeichnung.
| Bezeichnung | Wert | Zeitpunkt |
|---|---|---|
| Niedrigste Temperatur | -145.27 ℃ | 2026-01-26 10:26:14 |
| Höchste Temperatur | 39.1 ℃ | 2022-07-20 16:29:08 |
| Niedrigster Luftdruck | 773.33 hPa | 2026-02-11 23:59:43 |
| Höchster Luftdruck | 1162.75 hPa | 2026-01-26 10:26:14 |
| Niedrigste Luftfeuchtigkeit | 22.3 % | 2020-04-13 15:26:13 |
| Höchste Luftfeuchtigkeit | 100 % | 2020-06-11 06:39:27 |